[[{"header":{"parameterUnit":"m.s-1","parameterCategory":1,"la1":30.6,"la2":29.2853,"lo1":-89.7004,"lo2":-87.6739,"dy":0.0162,"dx":0.0183,"nx":112,"ny":82,"refTime":"2023-09-17T18:00:00:Z","depth":0,"parameterNumber":2,"parameterNumberName":"U-component_of_WINDS"},"data":[0.0,0.0,0.0,0.0,0.0,0.0,0.0,0.0,0.0,0.0,0.0,0.0,0.0,0.0,0.0,0.0,0.0,0.0,0.0,0.0,0.0,0.0,0.0,0.0,0.0,0.0,0.0,0.0,0.0,0.0,0.0,0.0,0.0,0.0,0.0,0.0,0.0,0.0,0.0,0.0,0.0,0.0,0.0,0.0,0.0,0.0,0.0,0.0,0.0,0.0,0.0,0.0,0.0,0.0,0.0,0.0,0.0,0.0,0.0,0.0,0.0,0.0,0.0,0.0,0.0,0.0,0.0,0.0,0.0,0.0,0.0,0.0,0.0,0.0,0.0,0.0,0.0,0.0,0.0,0.0,0.0,0.0,0.0,0.0,0.0,0.0,0.0,0.0,0.0,0.0,1.2305,1.2473,1.214,1.1878,1.1836,1.0959,1.0587,1.1,0.0,0.0,0.0,0.0,0.0,0.0,0.0,0.0,0.0,0.0,0.0,0.0,0.0,0.0,0.0,0.0,0.0,0.0,0.0,0.0,0.0,0.0,0.0,0.0,0.0,0.0,0.0,0.0,0.0,0.0,0.0,0.0,0.0,0.0,0.0,0.0,0.0,0.0,0.0,0.0,0.0,0.0,0.0,0.0,0.0,0.0,0.0,0.0,0.0,0.0,0.0,0.0,0.0,0.0,0.0,0.0,0.0,0.0,0.0,0.0,0.0,0.0,0.0,0.0,0.0,0.0,0.0,0.0,0.0,0.0,0.0,0.0,0.0,0.0,0.0,0.0,0.0,0.0,0.0,0.0,0.0,0.0,0.0,0.0,0.0,0.0,0.0,0.0,0.0,0.0,0.0,0.0,0.0,0.0,0.0,0.0,0.0,0.0,0.0,0.0,0.0,0.0,0.0,0.0,1.2325,1.3293,1.3576,1.3592,1.3302,1.2913,1.2254,1.1225,0.0,0.0,0.0,0.0,0.0,0.0,0.0,0.0,0.0,0.0,0.0,0.0,0.0,0.0,0.0,0.0,0.0,0.0,0.0,0.0,0.0,0.0,0.0,0.0,0.0,0.0,0.0,0.0,0.0,0.0,0.0,0.0,0.0,0.0,0.0,0.0,0.0,0.0,0.0,0.0,0.0,0.0,0.0,0.0,0.0,0.0,0.0,0.0,0.0,0.0,0.0,0.0,0.0,0.0,0.0,0.0,0.0,0.0,0.0,0.0,0.0,0.0,0.0,0.0,0.0,0.0,0.0,0.0,0.0,0.0,0.0,0.0,0.0,0.0,0.0,0.0,0.0,0.0,0.0,0.0,0.0,0.0,0.0,0.0,0.0,0.0,0.0,0.0,0.0,0.0,0.0,0.0,0.0,0.0,0.0,0.0,0.0,0.0,0.0,0.0,0.0,0.0,0.0,1.2465,1.308,1.3808,1.3598,1.3252,1.2908,1.1983,1.1152,1.0538,0.8915,0.0,0.0,0.0,0.0,0.0,0.0,0.0,0.0,0.0,0.0,0.0,0.0,0.0,0.0,0.0,0.0,0.0,0.0,0.0,0.0,0.0,0.0,0.0,0.0,0.0,0.0,0.0,0.0,0.0,0.0,0.0,0.0,0.0,0.0,0.0,0.0,0.0,0.0,0.0,0.0,0.0,0.0,0.0,0.0,0.0,0.0,0.0,0.0,0.0,0.0,0.0,0.0,0.0,0.0,0.0,0.0,0.0,0.0,0.0,0.0,0.0,0.0,0.0,0.0,0.0,0.0,0.0,0.0,0.0,0.0,0.0,0.0,0.0,0.0,0.0,0.0,0.0,0.0,0.0,0.0,0.0,0.0,0.0,0.0,0.0,0.0,0.0,0.0,0.0,0.0,0.0,0.0,0.0,0.0,0.0,0.0,0.0,0.0,0.0,0.0,0.0,0.0,1.338,1.3867,1.4277,1.3644,1.3103,1.2832,1.1553,1.0772,1.0772,0.9444,0.0,0.0,0.0,0.0,0.0,0.0,0.0,0.0,0.0,0.0,0.0,0.0,0.0,0.0,0.0,0.0,0.0,0.0,0.0,0.0,0.0,0.0,0.0,0.0,0.0,0.0,0.0,0.0,0.0,0.0,0.0,0.0,0.0,0.0,0.0,0.0,0.0,0.0,0.0,0.0,0.0,0.0,0.0,0.0,0.0,0.0,0.0,0.0,0.0,0.0,0.0,0.0,0.0,0.0,0.0,0.0,0.0,0.0,0.0,0.0,0.0,0.0,0.0,0.0,0.0,0.0,0.0,0.0,0.0,0.0,0.0,0.0,0.0,0.0,0.0,0.0,0.0,0.0,0.0,0.0,0.0,0.0,0.0,0.0,0.0,0.0,0.0,0.0,0.0,0.0,0.0,0.0,0.0,0.0,0.0,0.0,0.0,0.0,0.0,0.0,0.0,0.0,1.3694,1.4297,1.4865,1.4603,1.4379,1.4359,1.3732,1.3335,1.3335,1.2019,0.0,0.0,0.0,0.0,0.0,0.0,0.0,0.0,0.0,0.0,0.0,0.0,0.0,0.0,0.0,0.0,0.0,0.0,0.0,0.0,0.0,0.0,0.0,0.0,0.0,0.0,0.0,0.0,0.0,0.0,0.0,0.0,0.0,0.0,0.0,0.0,0.0,0.0,0.0,0.0,0.0,0.0,0.0,0.0,0.0,0.0,0.0,0.0,0.0,0.0,0.0,0.0,0.0,0.0,0.0,0.0,0.0,0.0,0.0,0.0,0.0,0.0,0.0,0.0,0.0,0.0,0.0,0.0,0.0,0.0,0.0,0.0,0.0,0.0,0.0,0.0,0.0,0.0,0.0,0.0,0.0,0.0,0.0,0.0,0.0,0.0,0.0,0.0,0.0,0.0,0.0,0.0,0.0,0.0,0.0,0.0,0.0,0.0,0.0,0.0,0.0,0.0,1.386,1.4516,0.0,1.5046,1.4917,1.4527,1.4148,1.3544,1.2731,0.0,0.0,0.0,0.0,0.0,0.0,0.0,0.0,0.0,0.0,0.0,0.0,0.0,0.0,0.0,0.0,0.0,0.0,0.0,0.0,0.0,0.0,0.0,0.0,0.0,0.0,0.0,0.0,0.0,0.0,0.0,0.0,0.0,0.0,0.0,0.0,0.0,0.0,0.0,0.0,0.0,0.0,0.0,0.0,0.0,0.0,0.0,0.0,0.0,0.0,0.0,0.0,0.0,0.0,0.0,0.0,0.0,0.0,0.0,0.0,0.0,0.0,0.0,0.0,0.0,0.0,0.0,0.0,0.0,0.0,0.0,0.0,0.0,0.0,0.0,0.0,0.0,0.0,0.0,0.0,0.0,0.0,0.0,0.0,0.0,0.0,0.0,0.0,0.0,0.0,0.0,0.0,0.0,0.0,0.0,0.0,0.0,0.0,0.0,0.0,0.0,0.0,1.3414,1.4175,1.481,0.0,1.5273,1.512,1.4696,1.433,1.3715,1.28,0.0,0.0,0.0,0.0,0.0,0.0,0.0,0.0,0.0,0.0,0.0,0.0,0.0,0.0,0.0,0.0,0.0,0.0,0.0,0.0,0.0,0.0,0.0,0.0,0.0,0.0,0.0,0.0,0.0,0.0,0.0,0.0,0.0,0.0,0.0,0.0,0.0,0.0,0.0,0.0,0.0,0.0,0.0,0.0,0.0,0.0,0.0,0.0,0.0,0.0,0.0,0.0,0.0,0.0,0.0,0.0,0.0,0.0,0.0,0.0,0.0,0.0,0.0,0.0,0.0,0.0,0.0,0.0,0.0,0.0,0.0,0.0,0.0,0.0,0.0,0.0,0.0,0.0,0.0,0.0,0.0,0.0,0.0,0.0,0.0,0.0,0.0,0.0,0.0,0.0,0.0,0.0,0.0,0.0,0.0,0.0,0.0,0.0,0.0,0.0,0.0,0.0,1.4008,1.4618,1.52,1.5735,1.5327,1.5008,1.4979,1.4451,1.4088,0.0,0.0,0.0,0.0,0.0,0.0,0.0,0.0,0.0,0.0,0.0,0.0,0.0,0.0,0.0,0.0,0.0,0.0,0.0,0.0,0.0,0.0,0.0,0.0,0.0,0.0,0.0,0.0,0.0,0.0,0.0,0.0,0.0,0.0,0.0,0.0,0.0,0.0,0.0,0.0,0.0,0.0,0.0,0.0,0.0,0.0,0.0,0.0,0.0,0.0,0.0,0.0,0.0,0.0,0.0,0.0,0.0,0.0,0.0,0.0,0.0,0.0,0.0,0.0,0.0,0.0,0.0,0.0,0.0,0.0,0.0,0.0,0.0,0.0,0.0,0.0,0.0,0.0,0.0,0.0,0.0,0.0,0.0,0.0,0.0,0.0,0.0,0.0,0.0,0.0,0.0,0.0,0.0,0.0,0.0,0.0,0.0,0.0,0.0,0.0,0.0,0.0,0.0,1.4008,1.4416,1.4877,1.5464,1.5213,1.4899,1.4669,1.4467,1.4302,1.4102,0.0,0.0,0.0,0.0,0.0,0.0,0.0,0.0,0.0,0.0,0.0,0.0,0.0,0.0,0.0,0.0,0.0,0.0,0.0,0.0,0.0,0.0,0.0,0.0,0.0,0.0,0.0,0.0,0.0,0.0,0.0,0.0,0.0,0.0,0.0,0.0,0.0,0.0,0.0,0.0,0.0,0.0,0.0,0.0,0.0,0.0,0.0,0.0,0.0,0.0,0.0,0.0,0.0,0.0,0.0,0.0,0.0,0.0,0.0,0.0,0.0,0.0,0.0,0.0,0.0,0.0,0.0,0.0,0.0,0.0,0.0,0.0,0.0,0.0,0.0,0.0,0.0,0.0,0.0,0.0,0.0,0.0,0.0,0.0,0.0,0.0,0.0,0.0,0.0,0.0,0.0,0.0,0.0,0.0,0.0,0.0,0.0,0.0,0.0,0.0,0.0,0.0,1.4168,1.4516,1.4923,1.5504,1.5227,1.4912,1.471,1.4482,1.4269,1.4116,0.0,0.0,0.0,0.0,0.0,0.0,0.0,0.0,0.0,0.0,0.0,0.0,0.0,0.0,0.0,0.0,0.0,0.0,0.0,0.0,0.0,0.0,0.0,0.0,0.0,0.0,0.0,0.0,0.0,0.0,0.0,0.0,0.0,0.0,0.0,0.0,0.0,0.0,0.0,0.0,0.0,0.0,0.0,0.0,0.0,0.0,0.0,0.0,0.0,0.0,0.0,0.0,0.0,0.0,0.0,0.0,0.0,0.0,0.0,0.0,0.0,0.0,0.0,0.0,0.0,0.0,0.0,0.0,0.0,0.0,0.0,0.0,0.0,0.0,0.0,0.0,0.0,0.0,0.0,0.0,0.0,0.0,0.0,0.0,0.0,0.0,0.0,0.0,0.0,0.0,0.0,0.0,0.0,0.0,0.0,0.0,0.0,0.0,0.0,0.0,0.0,0.0,1.4387,1.4778,1.5166,1.5701,1.532,1.5008,1.5008,1.4497,1.419,1.419,0.0,0.0,0.0,0.0,0.0,0.0,0.0,0.0,0.0,0.0,0.0,0.0,0.0,0.0,0.0,0.0,0.0,0.0,0.0,0.0,0.0,0.0,0.0,0.0,0.0,0.0,0.0,0.0,0.0,0.0,0.0,0.0,0.0,0.0,0.0,0.0,0.0,0.0,0.0,0.0,0.0,0.0,0.0,0.0,0.0,0.0,0.0,0.0,0.0,0.0,0.0,0.0,0.0,0.0,0.0,0.0,0.0,0.0,0.0,0.0,0.7601,0.0,0.0,0.0,0.0,0.0,0.0,0.0,0.0,0.0,0.0,0.0,0.0,0.0,0.0,0.0,0.0,0.0,0.0,0.0,0.0,0.0,0.0,0.0,0.0,0.0,0.0,0.0,0.0,0.0,0.0,0.0,0.0,0.0,0.0,0.0,0.0,0.0,0.0,0.0,0.0,0.0,1.4414,1.4554,1.4836,1.5424,1.5193,1.5008,1.5008,1.4872,1.4798,1.4798,1.4556,0.0,0.0,0.0,0.0,0.0,0.0,0.0,0.0,0.0,0.0,0.0,0.0,0.0,0.0,0.0,0.0,0.0,0.0,0.0,0.0,0.0,0.0,0.0,0.0,0.0,0.0,0.0,0.0,0.0,0.0,0.0,0.0,0.0,0.0,0.0,0.0,0.0,0.0,0.0,0.0,0.0,0.0,0.0,0.0,0.0,0.0,0.0,0.0,0.0,0.0,0.0,0.0,0.0,0.0,0.0,0.0,0.0,0.0,0.0,0.0,0.8572,0.0,0.0,0.0,0.0,0.0,0.0,0.0,0.0,0.0,0.0,0.0,0.0,0.0,0.0,0.0,0.0,0.0,0.0,0.0,0.0,0.0,0.0,0.0,0.0,0.0,0.0,0.0,0.0,0.0,0.0,0.0,0.0,0.0,0.0,0.0,0.0,0.0,0.0,0.0,0.0,1.4656,1.4856,1.511,1.5535,1.5344,1.5193,1.5193,1.5066,1.5008,1.5008,1.4845,0.0,0.0,0.0,0.0,0.0,0.0,0.0,0.0,0.0,0.0,0.0,0.0,0.0,0.0,0.0,0.0,0.0,0.0,0.0,0.0,0.0,0.0,0.0,0.0,0.0,0.0,0.0,0.0,0.0,0.0,0.0,0.0,0.0,0.0,0.0,0.0,0.0,0.0,0.0,0.0,0.0,0.0,0.0,0.0,0.0,0.0,0.0,0.0,0.0,0.0,0.0,0.0,0.0,0.8517,0.9002,0.9048,1.0033,0.9941,0.9001,0.8865,0.8866,0.899,0.0,0.0,0.0,0.0,0.0,0.0,0.0,0.0,0.0,0.0,0.0,0.0,0.0,0.0,0.0,0.0,0.0,0.0,0.0,0.0,0.0,0.0,0.0,0.0,0.0,1.4596,1.4536,0.0,0.0,0.0,0.0,0.0,0.0,0.0,0.0,0.0,0.0,0.0,0.0,1.4986,1.5273,1.5504,1.5775,1.5595,1.5471,1.5471,1.5273,1.514,1.514,1.5093,1.5059,0.0,0.0,0.0,0.0,0.0,0.0,0.0,0.0,0.0,0.0,0.0,0.0,0.0,0.0,0.0,0.0,0.0,0.0,0.0,0.0,0.0,0.0,0.0,0.0,0.0,0.0,0.0,0.0,0.0,0.0,0.0,0.0,1.1295,1.2222,0.0,0.0,0.0,0.0,0.0,0.0,0.0,0.0,0.0,0.0,0.0,0.0,0.0,0.9876,0.8971,0.8997,0.9018,0.8999,0.8201,0.7828,0.7828,0.7993,0.7969,0.7872,0.8814,0.0,0.9096,0.9223,0.0,0.0,0.0,0.0,0.0,0.0,0.0,0.0,0.0,0.0,0.0,0.0,0.0,0.0,0.0,0.0,0.0,0.0,0.0,0.0,0.0,0.0,1.4536,1.4859,1.4926,1.4919,0.0,1.4872,1.4798,1.4494,0.0,0.0,0.0,0.0,0.0,0.0,0.0,0.0,1.5264,1.5371,1.5504,1.5775,1.5775,1.5748,1.5748,1.5708,1.5688,1.5688,1.5478,1.5337,1.5337,1.512,0.0,0.0,0.0,0.0,0.0,0.0,0.0,0.0,0.0,0.0,0.0,0.0,0.0,0.0,0.0,0.0,0.0,0.0,0.0,0.0,0.0,0.0,0.0,0.0,0.0,0.0,0.0,0.0,0.0,1.2024,1.2325,1.2947,1.2609,1.2511,0.0,0.0,0.0,0.0,0.0,0.0,0.0,0.0,0.0,1.0405,1.0848,1.0283,0.8581,0.8677,0.8726,0.8726,0.83,0.8096,0.8092,0.8039,0.8002,0.8019,0.8411,0.8488,0.8465,0.9719,1.0388,1.0756,0.0,0.0,0.0,0.0,1.4604,1.4604,1.4604,1.4604,0.0,0.0,0.0,0.0,0.0,0.0,0.0,0.0,0.0,0.0,0.0,0.0,0.0,1.516,1.5227,1.5273,1.5418,1.5451,1.5317,0.0,1.4792,1.4711,1.4429,0.0,0.0,0.0,0.0,1.5104,1.5364,1.5538,1.5668,1.5788,1.5808,1.5808,1.5808,1.5808,1.5808,1.5808,1.5688,1.5615,1.5615,1.5518,1.5451,0.0,0.0,0.0,0.0,0.0,0.0,0.0,0.0,0.0,0.0,0.0,0.0,0.0,0.0,0.0,0.0,0.0,0.0,0.0,0.0,0.0,0.0,0.0,0.0,0.0,0.0,0.0,0.0,1.2985,1.3166,1.328,1.3433,1.3514,0.0,0.0,0.0,0.0,0.0,0.0,1.4701,1.4454,1.3484,1.1734,1.1342,1.0212,0.8211,0.8326,0.841,0.841,0.8478,0.8509,0.8505,0.84,0.8352,0.8345,0.8201,0.8285,0.8666,1.0161,1.0403,1.0033,1.2193,1.2723,1.2472,1.4315,1.5008,1.5008,1.5008,1.5008,1.4966,1.479,0.0,1.4689,1.4402,0.0,0.0,0.0,0.0,1.5028,1.5079,1.5099,1.5173,1.5438,1.5565,1.5658,1.5775,1.5861,1.5772,0.0,1.5099,1.5073,1.4999,0.0,0.0,0.0,0.0,1.5424,1.5498,1.5675,1.5808,1.5808,1.5808,1.5808,1.5808,1.5808,1.5808,1.5808,1.5808,1.5808,1.5808,1.5808,1.5808,1.5808,0.0,0.0,0.0,0.0,0.0,0.0,0.0,0.0,0.0,0.0,0.0,0.0,0.0,0.0,0.0,0.0,0.0,0.0,0.0,0.0,0.0,0.0,0.0,0.0,0.0,0.0,0.0,0.0,0.0,1.3613,1.4094,0.0,0.0,0.0,0.0,1.4454,1.499,1.5317,1.5351,1.4323,1.3266,1.2203,1.0924,0.9747,0.8676,0.8682,0.8686,0.8686,0.855,0.8509,0.8509,0.8502,0.8498,0.8498,0.8488,0.9276,1.0506,1.0068,1.0392,1.1329,1.266,1.3857,1.4829,1.4941,1.5008,1.5008,1.5008,1.5008,1.5033,1.5287,1.5351,1.5297,1.5033,1.4952,0.0,0.0,1.4995,1.5053,1.5304,1.5378,1.5444,1.5715,1.6019,1.6177,1.5861,1.6052,1.6103,0.0,1.5378,1.5314,1.5033,0.0,1.5079,1.5331,1.5384,1.5498,1.5748,1.5795,1.5808,1.5808,1.5808,1.5808,1.5808,1.5808,1.5808,1.5808,1.5808,1.5808,1.5808,1.5808,1.5808,1.5808,1.5808,0.0,0.0,0.0,0.0,0.0,0.0,0.0,0.0,0.0,0.0,0.0,0.0,0.0,0.0,0.0,0.0,0.0,0.0,0.0,0.0,0.0,0.0,0.0,0.0,0.0,0.0,0.0,0.0,1.4736,1.4957,0.0,1.5181,1.5108,1.5237,1.5618,1.4986,1.5049,1.6177,1.4163,1.292,1.2722,1.1468,1.0248,0.9169,0.9144,0.9144,0.914,0.9015,0.8941,0.8934,0.8716,0.8628,0.8625,0.8523,0.8793,0.9321,0.9929,1.1007,1.2409,1.3711,1.4497,1.4965,1.5783,1.5989,1.5855,1.6019,1.5989,1.5849,1.5949,1.5728,1.5378,1.53,1.5371,1.5518,1.5518,1.5658,1.5896,1.6166,1.6239,1.6266,1.6373,1.6473,1.652,1.6395,1.6473,1.6486,1.6279,1.5908,1.5621,1.5538,1.5702,1.5862,1.5969,1.6119,1.6273,1.638,1.6233,1.6112,1.6112,1.5921,1.5808,1.5808,1.5808,1.5808,1.5808,1.5808,1.5808,1.5808,1.5808,1.5808,1.5808,1.5808,1.5808,0.0,0.0,0.0,0.0,0.0,0.0,0.0,0.0,0.0,0.0,0.0,0.0,0.0,0.0,0.0,0.0,0.0,0.0,0.0,0.0,0.0,0.0,0.0,0.0,0.0,0.0,1.5081,1.5498,1.5718,1.5912,1.6082,1.6039,1.5992,1.5934,1.513,1.4916,1.5529,1.3442,1.2306,1.2496,1.1247,1.0238,0.9485,0.9459,0.9459,0.9456,0.9332,0.9257,0.925,0.9025,0.8937,0.893,0.8828,0.9079,0.9583,1.0412,1.1971,1.3839,1.4467,1.4724,1.485,1.6217,1.6587,1.6471,1.664,1.658,1.6444,1.6444,1.6152,1.5838,1.5838,1.5948,1.6102,1.6102,1.6266,1.6491,1.6653,1.6707,1.6707,1.6707,1.678,1.6827,1.6727,1.678,1.6852,1.6727,1.6393,1.6102,1.6102,1.6286,1.6444,1.6444,1.6587,1.6707,1.6707,1.6533,1.6444,1.6444,1.6152,1.5979,1.5979,1.5861,1.5808,1.5808,1.5808,1.5808,1.5808,1.5808,1.5808,1.5808,1.5808,1.5808,1.5808,0.0,0.0,0.0,0.0,0.0,0.0,0.0,0.0,0.0,0.0,0.0,0.0,0.0,0.0,0.0,0.0,0.0,0.0,0.0,0.0,0.0,0.0,0.0,1.4554,1.5301,1.5855,1.5868,1.6375,1.6754,1.676,1.6989,1.6606,1.5328,1.5437,1.4911,1.3381,1.213,1.1466,1.152,1.0292,0.9618,0.9615,0.9615,0.9615,0.9615,0.9462,0.9417,0.9417,0.9413,0.941,0.941,0.941,1.0178,1.1425,1.1425,1.304,1.5452,1.4859,1.4612,1.479,1.6193,1.6734,1.6734,1.6727,1.672,1.672,1.6734,1.6727,1.672,1.672,1.672,1.672,1.672,1.672,1.672,1.6734,1.674,1.6747,1.6747,1.6999,1.714,1.6814,1.7006,1.7127,1.6807,1.6754,1.6747,1.6714,1.6714,1.672,1.672,1.6727,0.0,1.6734,1.6727,1.672,1.672,1.646,1.631,1.6297,1.6012,1.5815,1.5808,1.5808,1.5808,1.5808,1.5808,1.5808,1.5808,1.5808,1.5808,1.5808,0.0,0.0,0.0,0.0,0.0,0.0,0.0,0.0,0.0,0.0,0.0,0.0,0.0,0.0,0.0,0.0,0.0,0.0,0.0,0.0,0.0,0.0,1.5521,1.5758,1.6391,1.6966,1.7335,1.7542,1.7736,1.7983,1.6856,1.6036,1.5886,1.3856,1.2932,1.3549,1.1473,1.0706,1.1691,1.0537,0.9846,0.9734,0.9734,0.9734,0.9731,0.9615,0.9547,0.9544,0.9432,0.941,0.941,0.941,0.961,0.9979,0.9979,1.0436,1.1415,1.4282,1.6067,1.7053,1.7258,1.7341,1.7315,1.7127,1.7053,1.7086,1.7301,1.7227,1.7053,1.7053,1.7053,1.7053,1.7053,1.7053,1.71,1.7314,1.7508,1.7649,1.7649,1.7909,1.8043,1.7716,1.7909,1.8029,1.7709,1.7849,1.7729,1.6854,1.6906,1.7053,1.7053,1.7234,0.0,1.7341,1.718,1.7053,1.7053,1.6785,1.65,1.6317,1.6223,1.6059,1.5821,1.5808,1.5808,1.5808,1.5808,1.5808,1.5808,1.5808,1.5808,0.0,0.0,0.0,0.0,0.0,0.0,0.0,0.0,0.0,0.0,0.0,0.0,0.0,0.0,0.0,0.0,0.0,0.0,0.0,0.0,0.0,0.0,1.6029,1.6613,1.7288,1.7381,1.7575,1.8143,1.8309,1.8218,1.7843,1.6851,1.5812,1.4752,1.2883,1.1925,1.226,1.0688,1.0172,1.1015,1.0318,0.9879,0.9792,0.9792,0.9792,0.9788,0.9707,0.9696,0.9696,0.9605,0.9564,0.0,0.9564,0.9564,0.9564,0.9564,0.9906,0.0,0.0,0.0,0.0,0.0,1.799,1.7936,1.7796,1.7655,1.7549,1.7722,1.7662,1.7502,1.7394,1.7448,1.7495,1.7394,1.7454,1.7562,1.7736,1.7976,1.8203,1.8203,1.8364,1.8444,1.8243,1.837,1.8437,1.8236,0.0,0.0,1.7575,1.7495,1.7569,1.7722,1.7749,1.7822,1.797,1.7842,1.7689,1.7535,1.7255,1.6901,1.6486,1.6364,0.0,0.0,0.0,1.5808,1.5808,1.5808,0.0,0.0,0.0,1.5808,1.5808,0.0,0.0,0.0,1.5808,1.5875,0.0,0.0,0.0,0.0,0.0,0.0,0.0,0.0,0.0,0.0,0.0,0.0,0.0,0.0,0.0,0.0,1.6761,1.7417,1.8494,1.8029,1.7847,1.8589,1.8564,1.8051,1.6985,1.6672,1.5459,1.2898,1.2231,1.1463,1.0358,0.0,0.0,0.0,0.0,0.9808,0.9792,0.9808,0.9815,0.9815,0.9836,0.9842,0.9842,0.9825,0.9815,0.9815,0.9798,0.9792,0.9792,0.9792,1.0486,1.1602,1.1727,1.2756,1.4475,1.7238,1.8378,1.849,1.849,0.0,0.0,1.8002,1.7995,1.7962,1.7675,1.7776,1.7909,1.7662,1.7782,1.7995,1.7995,1.8263,1.8544,1.8544,1.8564,1.8584,1.8544,1.8564,1.8577,1.8544,1.8571,1.8591,1.8591,1.8289,1.8163,1.845,1.8236,1.8163,1.8457,1.849,1.8377,1.8056,0.0,0.0,1.6807,1.6545,1.627,1.5921,1.5875,1.5841,1.5808,1.5808,1.5808,1.5808,1.5808,1.5808,1.5808,1.5841,1.5855,1.5855,1.5821,1.5985,0.0,0.0,0.0,0.0,0.0,0.0,0.0,0.0,0.0,0.0,0.0,0.0,0.0,0.0,0.0,1.6924,1.6533,1.6394,1.7111,1.7249,1.7912,1.9668,1.7424,1.6187,1.7341,1.5063,1.3305,1.2727,1.1305,1.0395,1.0301,1.0072,0.9988,0.9984,0.9991,0.9913,0.9792,0.9913,0.9974,0.9978,0.0,0.0,1.0188,1.0032,0.9974,0.9967,0.9846,0.9792,0.9792,0.9792,0.9953,1.0417,1.2763,1.4513,1.5772,1.6604,1.7563,1.849,1.849,1.8457,1.8364,1.8096,1.7995,1.7962,1.7675,1.7648,0.0,1.7602,1.7782,1.7995,1.7995,1.8416,1.881,1.881,1.9025,1.916,1.8891,1.9032,1.9154,1.8885,1.9032,1.9227,1.9227,1.8758,1.8424,1.8484,1.8444,1.8424,1.8484,1.849,1.8377,1.8056,1.7935,1.7689,1.714,1.7065,1.6879,1.6553,1.6319,1.6079,1.5815,1.5808,1.5808,1.5808,1.5808,1.5808,1.5808,1.6072,1.621,1.6203,1.5939,1.5985,0.0,0.0,0.0,0.0,0.0,0.0,0.0,0.0,0.0,0.0,0.0,1.2711,0.0,0.0,1.6883,1.6678,1.6476,1.6274,1.6074,1.5458,1.569,1.7399,1.6976,1.6206,1.5329,1.3816,1.2525,1.1676,1.0714,1.0229,1.0378,1.014,1.0055,1.0164,0.9984,0.9866,0.9792,0.994,0.9987,0.9987,1.0205,1.0312,1.0276,1.0089,0.9987,0.9977,0.9856,0.9792,0.9792,0.9792,0.9792,0.9933,1.1425,1.336,1.5469,1.6402,1.7695,1.896,1.896,1.8831,1.8684,1.8503,1.8456,1.8403,1.813,1.8136,1.8223,1.8076,1.825,1.8456,1.8456,1.879,1.9145,1.9145,1.9287,1.9354,1.9178,1.9294,1.9354,1.9172,1.9294,1.9395,1.9395,1.9154,1.896,1.896,1.8804,1.8764,1.894,1.896,1.8811,1.8489,1.8456,1.8183,1.7454,1.712,1.6892,1.6714,1.6567,1.6426,1.6248,1.6126,1.6119,1.6242,1.6126,1.6126,1.6242,1.6413,1.6486,1.6511,1.6339,1.6426,0.0,0.0,0.0,0.0,0.0,0.0,0.0,1.0028,0.9134,0.9669,1.0949,1.241,1.375,1.5615,1.6682,1.592,1.5944,1.5766,1.4955,1.377,1.327,1.4055,1.5639,1.5682,1.3229,1.2778,1.2027,1.062,1.0385,1.0403,1.0487,1.0207,1.012,1.0276,1.0008,0.9836,0.9836,0.9988,1.0076,1.0106,1.0293,1.0368,1.0358,1.0147,1.0079,1.0092,0.9913,0.9819,0.9792,0.9792,0.9792,0.9792,0.9792,1.1589,1.4331,1.5932,1.7536,1.8975,1.9278,1.9212,1.8998,1.8916,1.8896,1.8843,1.8577,1.8651,1.8791,1.8557,1.8698,1.8896,1.8896,1.9145,1.9395,1.9395,1.9395,1.9395,1.9395,1.9395,1.9395,1.9395,1.9395,1.9395,1.9395,1.9395,1.9395,1.9395,1.9165,1.9098,1.9368,1.9395,1.9281,1.893,1.8896,1.8583,1.7849,1.7268,1.6941,1.6881,1.682,1.6767,1.6707,1.648,1.6491,1.67,1.6498,1.6473,1.6707,1.6767,1.6794,1.6794,1.6847,1.6999,0.7753,0.8195,0.9944,1.2513,1.1624,1.0519,0.0,1.041,0.8982,1.044,1.1011,1.1342,1.1772,1.3336,1.4622,1.4746,1.395,1.3288,1.3167,1.3209,1.2734,1.1355,1.1399,1.1995,1.3131,1.1867,1.0833,1.0533,1.0477,1.0477,1.049,1.0341,1.0295,1.0312,1.0082,0.9991,0.9991,1.0178,1.0317,1.0443,1.0599,1.067,1.0663,1.0382,1.0324,1.0426,1.0113,0.9917,0.9792,0.9792,0.9792,0.9792,0.9792,1.0899,1.2663,1.4272,1.5902,1.7472,1.891,1.9374,1.9301,1.9011,1.8896,1.8843,1.8577,1.851,1.8537,1.8504,1.8698,1.8896,1.8896,1.9145,1.9395,1.9395,1.9395,1.9395,1.9395,1.9395,1.9395,1.9395,1.9395,1.9395,1.9395,1.9395,1.9395,1.9395,1.9368,1.9361,1.9395,1.9395,1.9281,1.893,1.8896,1.875,1.8417,1.8056,1.7756,1.7502,1.7267,1.7006,1.6714,1.6673,1.6673,1.6707,1.6673,1.6673,1.6707,1.6999,1.7152,1.7159,1.7388,1.7388,0.9754,1.0222,1.1062,1.3095,1.187,1.0357,1.1146,0.9977,0.8965,0.9852,1.0949,1.1808,1.1992,1.3474,1.4401,0.0,1.3157,1.2572,1.1645,1.1661,1.1498,1.0694,1.0585,1.0914,1.1721,1.1144,1.0623,1.0504,1.049,1.049,1.049,1.0273,1.0188,1.0308,1.0099,0.9987,0.9987,1.0287,1.0432,1.0493,1.0646,1.0688,1.0681,1.05,1.0341,1.0191,0.9978,0.9849,0.9792,0.9792,0.9792,0.9792,0.9792,1.021,1.0989,1.2603,1.4212,1.5695,1.6385,1.6626,1.6727,1.7525,1.7784,1.7939,1.8768,1.9033,1.9033,1.9033,1.9085,1.9185,1.9185,1.9301,1.9395,1.9395,1.9395,1.9395,1.9395,1.9395,1.9395,1.9395,1.9395,1.9395,1.9395,1.9395,1.9395,1.9395,1.9395,1.9395,1.9395,1.9395,1.9348,1.9221,1.9025,1.8843,1.8751,1.8289,1.7962,1.7836,1.7569,1.7374,1.7221,1.708,1.7066,1.7215,1.7073,1.7073,1.7215,1.7367,1.7428,1.7434,1.7548,1.7541,1.1607,1.2234,1.2539,1.3864,1.2739,1.1228,1.096,1.0021,0.9288,0.9578,1.0762,1.1753,1.1853,1.2953,1.3454,1.2322,1.2242,1.1875,1.0718,1.0616,1.0616,1.0507,1.0456,1.0477,1.0588,1.0633,1.0612,1.05,1.0531,1.0534,1.0493,1.0295,1.0234,1.0337,1.0197,1.014,1.014,1.0385,1.0514,1.0558,1.0633,1.0688,1.0714,1.0561,1.0307,0.995,0.9883,0.9829,0.9792,0.9792,0.9792,0.9792,0.9792,0.9792,0.994,1.1106,1.2573,1.4004,1.4455,1.4604,1.4777,1.5961,1.6344,1.6644,1.8256,1.8735,1.8823,1.9278,1.9395,1.9395,1.9395,1.9395,1.9395,1.9395,1.9395,1.9395,1.9395,1.9395,1.9395,1.9395,1.9395,1.9395,1.9395,1.9395,1.9395,1.9395,1.9395,1.9395,1.9395,1.9395,1.9395,1.9395,1.9172,1.9045,1.9045,1.8483,1.8143,1.8143,1.7796,1.7608,1.7608,1.7408,1.7394,1.7608,1.7401,1.7401,1.7608,1.7608,1.7608,1.7608,1.7608,1.7608,1.2779,1.3578,1.4163,1.4798,1.4272,1.3336,1.2383,1.1023,1.0028,1.0219,1.0432,1.0535,1.0574,1.07,1.0803,1.077,1.0777,1.0747,1.0714,1.0592,1.0497,1.049,1.0403,1.0322,0.0,1.0419,1.0497,1.049,1.0629,1.0649,1.05,1.0622,1.0633,1.049,1.048,1.0477,1.0477,1.0487,1.0565,1.0681,1.0684,1.0688,1.0714,1.0561,1.0249,0.9805,0.995,0.9927,0.9792,0.9792,0.9792,0.9792,0.9792,0.9792,0.9822,0.9852,1.0899,1.2513,1.4068,1.4604,1.4604,1.4663,1.4663,1.4955,1.658,1.7085,1.7413,1.8975,1.9395,1.9395,1.9395,1.9395,1.9395,1.9395,1.9395,1.9395,1.9395,1.9395,1.9395,1.9395,1.9395,1.9395,1.9395,1.9395,1.9395,1.9395,1.9395,1.9395,1.9395,1.9395,1.9395,1.9395,1.9388,1.9381,1.9381,1.8846,1.8477,1.8477,1.7943,1.7608,1.7608,1.7602,1.7602,1.7608,1.7602,1.7602,1.7608,1.7608,1.7608,1.7608,1.7608,1.7608,1.3666,1.4303,1.4902,1.5768,1.4346,1.2715,1.2685,1.1453,1.0358,1.0412,1.0304,1.0167,1.0167,1.0126,1.0126,1.0224,1.0407,1.0568,1.0568,1.0524,1.0419,1.0191,1.0123,0.0,0.0,0.0,0.0,1.0483,1.0453,1.049,1.0636,1.0376,1.0309,1.0487,1.0399,1.0395,1.049,1.0592,1.067,1.0684,1.0616,1.0568,1.0561,1.0278,1.0082,0.994,0.989,0.9839,0.9792,0.9792,0.9792,0.9792,0.9792,0.9792,0.9792,0.9792,1.0149,1.0691,1.1227,1.1408,1.1585,1.2663,1.3023,1.3317,1.4926,1.6138,1.7114,1.7653,1.8583,1.9395,1.9395,1.9395,1.9395,1.9395,1.9395,1.9395,1.9395,1.9395,1.9395,1.9395,1.9395,1.9395,1.9395,1.9395,1.9395,1.9395,1.9395,1.9395,1.9395,1.9395,1.9395,1.9395,1.9395,1.9395,1.9395,1.9005,1.8698,1.8504,1.8116,1.7796,1.7615,1.7608,1.7608,1.7608,1.7608,1.7608,1.7608,1.7608,1.7608,1.7608,1.7608,1.7608,1.5078,1.5628,1.6156,1.7119,1.5224,1.3207,1.3568,1.1984,1.0429,1.048,1.0212,0.9937,0.9937,0.9771,0.9696,0.9765,0.9971,1.0151,1.031,1.0243,1.0164,1.0103,1.0052,0.9967,0.0,0.0,0.0,1.0405,1.0378,1.0439,1.0629,1.0383,1.0343,1.0568,1.0483,1.048,1.0571,1.067,1.0694,1.0636,1.0487,1.0388,1.0295,1.0106,0.9988,0.993,0.9832,0.9792,0.9792,0.9792,0.9792,0.9792,0.9792,0.9792,0.9792,0.9792,0.9792,0.9792,0.9792,0.9792,0.997,1.102,1.1348,1.1645,1.3262,1.4475,1.5389,1.5991,1.7302,1.8402,1.7841,1.811,1.8554,1.8554,1.8554,1.8706,1.9278,1.9395,1.9395,1.9395,1.9395,1.9395,1.9395,1.9395,1.9395,1.9395,1.9395,1.9395,1.9395,1.9395,1.9395,1.9395,1.9395,1.9395,1.9395,1.9092,1.8804,1.851,1.8183,1.7882,1.7622,1.7608,1.7608,1.7608,1.7608,1.7608,1.7608,1.7608,1.7608,1.7608,1.7608,1.7608,1.6906,1.7441,1.7862,1.8716,1.6873,1.4856,1.4989,1.2555,1.0346,1.0432,1.01,0.9751,0.9737,0.954,0.939,0.9396,0.943,0.9578,0.9971,0.9795,0.9812,0.0,0.0,0.0,0.0,0.0,0.0,1.0301,0.0,1.0487,1.0504,1.0633,1.0677,1.0688,1.0681,1.0677,1.0688,1.0681,1.0636,1.049,1.0341,1.0192,0.9987,0.9977,0.9927,0.9792,0.9792,0.9792,0.9792,0.9792,0.9792,0.9792,0.9792,0.9792,0.9792,0.9792,0.9792,0.9792,0.9792,0.9792,0.9792,0.9792,0.9792,1.0092,1.1619,1.2127,1.2513,1.4038,1.5636,1.6521,1.4985,1.5725,1.6879,1.6879,1.6879,1.7325,1.8917,1.9278,1.9307,1.9395,1.9395,1.9395,1.9395,1.9395,1.9395,1.9395,1.9395,1.9395,1.9395,1.9395,1.9395,1.9395,1.9395,1.9395,1.9395,1.9112,1.879,1.851,1.8196,1.7896,1.7622,1.7608,1.7608,1.7608,1.7608,1.7608,1.7608,1.7608,1.7608,1.7608,1.7608,1.7608,1.7595,1.8176,1.8744,1.9412,1.7166,1.4887,1.517,1.2681,1.0226,1.0032,0.9635,0.9284,0.9035,0.8997,0.9086,0.9223,0.9713,0.0,1.0205,1.0249,0.0,1.0312,1.0246,1.0205,1.0168,1.0198,0.0,0.0,1.0346,1.0429,1.0649,1.0592,1.0602,1.0684,1.0609,1.0605,1.0684,1.0609,1.0531,1.0487,1.0201,1.0059,0.9984,0.99,0.9829,0.9792,0.9792,0.9792,0.9792,0.9792,0.9792,0.9792,0.9792,0.9792,0.9792,0.9792,0.9792,0.9792,0.9792,0.9792,0.9792,0.9792,0.9792,0.9879,1.0301,1.1257,1.2303,1.2693,1.3974,1.5104,1.4723,1.4896,1.5222,1.5222,1.5222,1.5636,1.7267,1.7595,1.7987,1.9156,1.9395,1.9395,1.9395,1.9395,1.9395,1.9395,1.9395,1.9395,1.9395,1.9395,1.9395,1.9395,1.9395,1.9395,1.9395,1.9328,1.906,1.8524,1.8424,1.8136,1.7628,1.7608,1.7608,1.7608,1.7608,1.7608,1.7608,1.7608,1.7608,1.7608,1.7608,1.7608,1.8217,1.8636,1.9032,1.9492,1.7666,1.5622,1.5052,1.2855,1.0687,0.9722,0.9199,0.8835,0.8642,0.8628,0.8693,0.8862,0.9298,0.9707,1.0032,1.0093,1.0171,1.0383,1.0407,0.0,1.0318,1.0337,1.0407,0.0,1.0407,1.0446,1.0612,1.0602,1.0629,1.0684,1.0636,1.0602,1.0619,1.0473,1.0365,1.0297,1.0028,0.9917,0.9913,0.9829,0.9792,0.9792,0.0,0.9792,0.9792,0.9792,0.9792,0.9792,0.9792,0.9792,0.9792,0.9792,0.9792,0.9792,0.9792,0.9792,0.9792,0.9792,0.9792,0.9792,0.9792,1.0418,1.1137,1.1137,1.2303,1.3377,1.2693,1.3023,1.3556,1.3556,1.3556,1.4004,1.5607,1.6497,1.7472,1.9098,1.9395,1.9395,1.9395,1.9395,1.9395,1.9395,1.9395,1.9395,1.9395,1.9395,1.9395,1.9395,1.9395,1.9395,1.9395,1.9395,1.9201,1.8711,1.8564,1.8277,1.7802,1.7789,1.7722,1.7615,1.7716,1.7716,1.7608,1.7608,1.7608,1.7608,1.7608,1.7608,1.8764,1.8985,1.9045,1.9334,1.8167,1.6494,1.4764,1.2992,1.122,0.9465,0.8781,0.8495,0.8431,0.8379,0.8376,0.8516,0.8703,0.9076,0.9781,0.9791,0.9924,1.046,1.0521,1.0473,1.0351,1.0449,1.0521,1.0521,1.0521,1.0521,1.0521,1.0649,1.0688,1.0688,1.0688,1.0646,1.0493,1.0383,1.0202,0.9984,0.9863,0.9792,0.9792,0.9792,0.9792,0.9792,0.0,0.0,0.9792,0.9792,0.9792,0.9792,0.9792,0.9792,0.9792,0.9792,0.9792,0.9792,0.9792,0.9792,0.9792,0.9792,0.9792,0.9792,0.9792,0.9792,0.9792,0.9792,1.0808,1.1559,1.0149,1.0838,1.1886,1.1886,1.1886,1.2333,1.3919,1.5548,1.7149,1.8765,1.9068,1.9156,1.9366,1.9395,1.9395,1.9395,1.9395,1.9395,1.9395,1.9395,1.9395,1.9395,1.9395,1.9395,1.9395,1.9395,1.9267,1.8916,1.8691,1.8417,1.8089,1.8076,1.7949,1.7709,1.7902,1.7889,1.7642,1.7628,1.7608,1.7608,1.7608,1.7608,1.9207,1.9321,1.9334,1.9388,1.7987,1.6172,1.4518,1.2706,1.087,0.8997,0.8563,0.8408,0.8135,0.8296,0.8537,0.8787,0.9166,0.9629,1.0131,1.028,1.0426,1.0653,1.068,1.067,1.0646,1.0666,0.0,0.0,0.0,1.068,1.068,1.0707,1.0688,1.0688,1.0688,1.0646,1.0493,1.0383,1.0202,0.9984,0.9863,0.9792,0.9792,0.9792,0.9792,0.9792,0.9792,0.0,0.9792,0.9792,0.9792,0.9792,0.9792,0.9792,0.9792,0.9792,0.9792,0.9792,0.9792,0.9792,0.9792,0.9792,0.9792,0.9792,0.9792,0.9792,0.9792,0.9792,1.0001,1.0149,0.9879,1.0001,1.021,1.021,1.021,1.066,1.2273,1.3885,1.5488,1.7085,1.7413,1.7835,1.9156,1.9395,1.9395,1.9395,1.9395,1.9395,1.9395,1.9395,1.9395,1.9395,1.9395,1.9395,1.9395,1.9395,1.9267,1.8916,1.885,1.8718,1.8424,1.841,1.839,1.8337,1.8116,1.7969,1.7936,1.7709,1.7608,1.7608,1.7608,1.7608,1.9314,1.9395,1.9361,1.9172,1.833,1.6846,1.4286,1.2857,1.134,0.8757,0.8252,0.8182,0.804,0.8221,0.8471,0.8665,0.8947,0.9351,0.9958,1.01,1.0287,1.0673,1.0688,1.0688,1.0688,1.0688,1.0688,0.0,0.0,1.0688,1.0688,1.0688,1.0688,1.0688,1.0688,1.0612,1.0385,1.0346,1.0161,0.99,0.9825,0.9792,0.9792,0.9792,0.9792,0.9792,0.9792,0.0,0.9792,0.9792,0.9792,0.9792,0.9792,0.9792,0.9792,0.9792,0.9744,0.9694,0.9765,0.9744,0.9694,0.9765,0.9792,0.9792,0.9792,0.9792,0.9792,0.9792,0.9792,0.9792,0.9792,0.9792,0.9792,0.9792,0.9792,1.024,1.1856,1.2813,1.3825,1.5429,1.6433,1.7237,1.8017,1.8858,1.9395,1.9395,1.9395,1.9395,1.9395,1.9395,1.9395,1.9395,1.9395,1.9395,1.9395,1.9395,1.9334,1.9165,1.9011,1.8836,1.8724,1.8571,1.8417,1.8236,1.8096,1.7942,1.7776,1.7655,1.7608,1.7608,1.7608,1.7199,1.9205,1.9348,1.9328,1.897,1.8427,1.7167,1.4012,1.278,1.1462,0.8585,0.7988,0.7988,0.7988,0.814,0.8304,0.8481,0.8581,0.8923,0.9639,0.9771,1.0001,1.0605,1.0667,0.0,1.0688,1.0688,0.0,0.0,0.0,0.0,1.0688,1.0688,1.0688,1.0688,1.0688,1.0578,1.0315,1.0342,1.0158,0.9792,0.9822,0.9822,0.9792,0.9792,0.9792,0.9792,0.9792,0.0,0.0,0.9792,0.9771,0.9744,0.9744,0.9744,0.9741,0.9737,0.9676,0.9625,0.9707,0.9703,0.9632,0.9744,0.9792,0.9792,0.9792,0.9792,0.9792,0.9792,0.9792,0.9792,0.9792,0.9792,0.9792,0.9792,0.9792,1.0149,1.1408,1.1675,1.2157,1.377,1.5098,1.6191,1.6874,1.8046,1.9004,1.9336,1.9395,1.9395,1.9395,1.9395,1.9395,1.9395,1.9395,1.9395,1.9395,1.9395,1.9395,1.9395,1.9152,1.9018,1.9018,1.8798,1.8544,1.8216,1.8175,1.8029,1.7682,1.7682,1.7649,1.7582,1.7285,1.6499,1.893,1.9158,1.9328,1.897,1.7588,1.5798,1.3763,1.1918,1.0117,0.8368,0.7988,0.7988,0.7988,0.8027,0.8128,0.8461,0.8519,0.8767,0.9523,0.971,0.9995,1.046,0.0,0.0,1.0688,1.0688,0.0,0.0,0.0,0.0,1.0688,1.0688,1.0688,1.0688,1.0688,1.0578,1.0315,1.0409,1.0253,0.9792,0.993,0.9927,0.9792,0.9792,0.9792,0.9792,0.9792,0.0,0.0,0.9792,0.9714,0.9629,0.9629,0.9629,0.9612,0.9473,0.95,0.9612,0.9625,0.9618,0.9632,0.9744,0.9792,0.9792,0.9792,0.9792,0.9792,0.9792,0.9792,0.9792,0.9792,0.9792,0.9792,0.9792,0.9792,0.9852,1.0001,1.0031,1.0513,1.2123,1.2543,1.3581,1.6492,1.7114,1.7712,1.9185,1.9395,1.9395,1.9395,1.9395,1.9395,1.9395,1.9395,1.9395,1.9395,1.9395,1.9395,1.9395,1.9368,1.9354,1.9354,1.9328,1.9145,1.8823,1.8816,1.8536,1.7949,1.7949,1.7829,1.7582,1.6227,1.5524,1.875,1.9011,1.9032,1.8738,1.7112,1.51,1.3387,1.1535,0.9739,0.8297,0.7988,0.7988,0.7988,0.7988,0.8054,0.8172,0.8192,0.8388,0.8988,0.9117,0.9389,1.0109,1.0248,0.0,0.0,0.0,0.0,0.0,0.0,0.0,1.0688,1.0688,1.0688,1.0688,1.0688,1.0578,1.0315,1.0337,1.0181,0.9792,0.9852,0.9849,0.9792,0.9792,0.9792,0.9792,0.9792,0.0,0.0,0.9792,0.9707,0.9608,0.9608,0.9554,0.9466,0.9434,0.939,0.939,0.9547,0.9551,0.951,0.9714,0.9792,0.9792,0.9792,0.9792,0.9792,0.9792,0.9792,0.9792,0.9792,0.9792,0.9792,0.9792,0.9792,0.9792,0.9792,0.9792,1.0001,1.063,1.1529,1.2603,1.388,1.572,1.7208,1.7864,1.8765,1.9395,1.9395,1.9395,1.9395,1.9395,1.9395,1.9395,1.9395,1.9395,1.9395,1.9395,1.9395,1.9395,1.9395,1.9221,1.9045,1.8896,1.8751,1.8429,1.7995,1.7995,1.742,1.6254,1.5663,1.4475,1.823,1.8597,1.8704,1.8317,1.6406,1.4285,1.2986,1.097,0.9143,0.8187,0.7988,0.7988,0.7988,0.7988,0.7988,0.7988,0.7988,0.8155,0.8584,0.8682,0.8977,0.967,0.0,0.9998,0.0,1.061,0.0,0.0,0.0,0.0,0.0,1.0697,1.0667,1.0653,1.0653,1.051,1.0215,1.0256,1.0127,0.9792,0.9836,0.9836,0.9792,0.9792,0.9792,0.9792,0.0,0.0,0.0,0.9744,0.9673,0.9537,0.9493,0.9437,0.9342,0.9342,0.9274,0.9248,0.9452,0.9469,0.9451,0.9676,0.9758,0.9792,0.9792,0.9792,0.9792,0.9792,0.9792,0.9792,0.9792,0.9792,0.9792,0.9792,0.9792,0.9792,0.9792,0.9792,0.9792,0.9792,1.0721,1.1645,1.2127,1.4083,1.5897,1.685,1.7952,1.8852,1.9336,1.9395,1.9395,1.9395,1.9395,1.9395,1.9395,1.9395,1.9395,1.9395,1.9395,1.9395,1.9395,1.9165,1.9011,1.8896,1.8811,1.8564,1.8156,1.8236,1.7322,1.5534,1.5098,1.3542,1.7219,1.7842,1.835,1.7769,1.5446,1.3164,1.2536,1.0133,0.8017,0.8013,0.7988,0.7988,0.7988,0.7988,0.7988,0.7988,0.7988,0.8118,0.8442,0.8615,0.8825,0.0,0.0,0.9564,0.9981,0.0,0.0,0.0,0.0,0.0,0.0,1.0636,1.0649,1.05,1.0493,1.0351,1.0025,1.0205,1.0127,0.9792,0.9944,0.9937,0.9792,0.9792,0.9792,0.0,0.0,0.0,0.0,0.9669,0.952,0.9396,0.9243,0.9214,0.921,0.921,0.921,0.9231,0.9359,0.9413,0.9408,0.9561,0.9707,0.9792,0.9792,0.9792,0.9792,0.9792,0.9792,0.9792,0.9792,0.9792,0.9792,0.9792,0.9792,0.9792,0.9792,0.9792,0.9792,0.9792,0.9822,1.0331,1.1916,1.2243,1.3343,1.6521,1.6997,1.7595,1.9185,1.9395,1.9395,1.9395,1.9395,1.9395,1.9395,1.9395,1.9395,1.9395,1.9395,1.9395,1.9395,1.9395,1.9254,1.8903,1.9205,1.91,1.849,1.875,1.7858,1.5859,1.4394,1.279,1.7038,1.7407,1.7581,1.7361,1.4995,1.2633,1.2439,1.0133,0.7988,0.7988,0.7988,0.7988,0.7988,0.7988,0.7988,0.7988,0.7988,0.8047,0.0,0.0,0.0,0.9277,0.9893,1.0351,0.0,0.0,0.0,0.0,0.0,0.0,0.0,1.0595,1.0541,1.0493,1.0595,1.0507,1.0209,1.0256,1.0127,0.9792,0.9839,0.9839,0.9792,0.9792,0.0,0.0,0.0,0.0,0.0,0.9629,0.9459,0.9247,0.9228,0.9121,0.9008,0.9008,0.9069,0.9217,0.9237,0.939,0.9544,0.9595,0.9703,0.9792,0.9792,0.9792,0.9792,0.9792,0.9792,0.9792,0.9792,0.9792,0.9792,0.9792,0.9792,0.9792,0.9792,0.9792,0.9792,0.9792,0.9792,0.997,1.0479,1.1468,1.2586,1.3684,1.4695,1.5963,1.7672,1.7828,1.8192,1.9278,1.9395,1.9395,1.9395,1.9395,1.9395,1.9395,1.9395,1.9395,1.9395,1.9395,1.9354,1.9232,1.9348,1.9178,1.8756,1.885,1.7353,1.4366,1.2701,1.2164,1.633,1.6697,1.6738,1.6239,1.423,1.2234,1.1627,0.9685,0.7988,0.7988,0.7988,0.7988,0.7988,0.7988,0.7988,0.7988,0.7988,0.8033,0.8091,0.0,0.0,0.9257,0.0,0.0,0.0,0.0,0.0,0.0,0.0,0.0,0.0,1.0514,1.0466,1.0415,1.0504,1.0409,1.011,1.0164,1.007,0.9792,0.9792,0.9792,0.9792,0.9792,0.0,0.0,0.0,0.0,0.0,0.9486,0.9352,0.9204,0.9121,0.9018,0.8919,0.897,0.9104,0.9217,0.9247,0.943,0.9608,0.9608,0.9703,0.9792,0.9792,0.9792,0.9792,0.9792,0.9792,0.9792,0.9792,0.9792,0.9792,0.9792,0.9792,0.9792,0.9792,0.9792,0.9792,0.9792,0.9792,0.9792,0.9792,1.0682,1.1607,1.2299,1.3186,1.4414,1.6157,1.6738,1.7397,1.8467,1.9076,1.9395,1.9395,1.9395,1.9395,1.9395,1.9395,1.9395,1.9395,1.9395,1.9395,1.9395,1.9395,1.9308,1.9092,1.7755,1.5671,1.2964,1.2266,1.243,0.0,1.5619,1.5812,1.4452,1.3168,1.183,1.0332,0.897,0.0,0.7988,0.7988,0.7988,0.7988,0.7988,0.7988,0.7988,0.7988,0.8067,0.0,0.8464,0.0,0.0,0.973,0.0,0.0,0.0,0.0,0.0,0.0,0.0,0.0,1.0405,1.0412,1.0266,1.0276,1.0144,0.9825,0.9964,0.9957,0.9805,0.9795,0.9792,0.9792,0.9792,0.0,0.0,0.0,0.0,0.0,0.9298,0.9204,0.9152,0.8963,0.8912,0.8926,0.9117,0.92,0.9231,0.9345,0.9473,0.9612,0.9622,0.9683,0.9792,0.9792,0.9792,0.9792,0.9792,0.9792,0.9792,0.9792,0.9792,0.9792,0.9792,0.9792,0.9792,0.9792,0.9792,0.9795,0.9805,0.9798,0.9795,0.9805,0.9923,1.0512,1.2028,1.2244,1.2886,1.461,1.5909,1.6754,1.7003,1.8231,1.9068,1.9068,1.9278,1.9395,1.9395,1.9395,1.9395,1.9395,1.9395,1.9395,1.9395,1.9395,1.9352,1.9216,1.5772,1.3349,1.1953,1.2867,1.3356,1.2175,0.0,1.4141,1.2802,1.1506,1.0468,0.0,0.897,0.7988,0.7988,0.7988,0.7988,0.7988,0.7988,0.7988,0.7988,0.7988,0.8067,0.8274,0.8889,0.0,0.9639,1.0163,0.0,0.0,0.0,0.0,0.0,0.0,0.0,0.0,1.0346,1.0259,1.0076,1.0219,1.0246,1.0171,1.0209,1.0148,0.9964,0.9846,0.9792,0.9792,0.9792,0.0,0.0,0.0,0.0,0.9284,0.9241,0.9117,0.8956,0.8923,0.8912,0.8916,0.895,0.9059,0.9214,0.9251,0.9413,0.9629,0.9707,0.9765,0.9792,0.9792,0.9792,0.9792,0.9792,0.9792,0.9792,0.9792,0.9792,0.9792,0.9792,0.9792,0.9792,0.9792,0.9792,0.9825,0.9944,0.9869,0.9829,0.9944,0.9994,1.018,1.0706,1.0787,1.139,1.304,1.3366,1.393,1.5078,1.5526,1.573,1.573,1.7994,1.9395,1.9395,1.9395,1.9395,1.9395,1.9395,1.9395,1.9395,1.9395,1.8741,1.7399,1.5171,1.3807,1.3251,1.3282,1.4007,1.0585,1.1601,1.2499,1.1312,1.0513,0.9825,0.9213,0.8531,0.7988,0.7988,0.7988,0.7988,0.7988,0.7988,0.7988,0.7988,0.8074,0.0,0.0,0.0,0.9503,0.9758,1.014,0.0,0.0,0.0,0.0,0.0,0.0,0.0,0.0,1.0212,1.0167,1.0218,1.0202,1.0141,1.007,1.0137,1.0065,0.9913,0.9832,0.9792,0.9788,0.9724,0.9683,0.0,0.0,0.0,0.9204,0.9111,0.9008,0.8912,0.8912,0.8912,0.8912,0.8912,0.9028,0.9221,0.9264,0.9412,0.9632,0.9744,0.9748,0.9707,0.9771,0.9792,0.9792,0.9792,0.9792,0.9792,0.9792,0.9792,0.9792,0.9792,0.9792,0.9792,0.9792,0.9792,0.9815,0.9896,0.9846,0.9815,0.99,0.9971,1.0072,1.0256,1.0312,1.0647,1.1562,1.2108,1.2703,1.3504,1.4187,1.4604,1.4604,1.6208,1.7191,1.7191,1.859,1.9062,1.8344,1.9004,1.9039,1.8315,1.7508,1.6286,1.4598,1.3449,1.2786,1.2618,1.3225,1.4358,0.9501,1.009,1.0766,0.9906,0.9706,0.9386,0.8262,0.7988,0.7988,0.7988,0.7988,0.7988,0.7988,0.7988,0.7988,0.7988,0.0,0.0,0.8828,0.9117,0.9461,0.9812,0.0,0.0,0.0,0.0,0.0,0.0,0.0,0.0,0.0,1.0076,1.0123,1.0382,1.0136,0.9944,0.9792,0.994,0.9954,0.9825,0.9802,0.9781,0.9754,0.9663,0.9585,0.0,0.0,0.0,0.9138,0.896,0.8912,0.8912,0.8912,0.8912,0.8912,0.8912,0.9015,0.9172,0.9349,0.9496,0.9659,0.9727,0.9694,0.9659,0.9727,0.9771,0.9792,0.9792,0.9792,0.9792,0.9792,0.9792,0.9792,0.9792,0.9792,0.9792,0.9792,0.9792,0.9798,0.9819,0.9805,0.9798,0.9822,0.9934,1.0072,1.0256,1.0312,1.0324,1.0443,1.1371,1.203,1.2002,1.3122,1.3855,1.3855,1.4098,1.4128,1.3885,1.6891,1.8046,1.6697,1.7929,1.8017,1.6668,1.5165,1.3606,1.1975,1.1688,1.1602,1.1703,1.3101,1.4662,0.8079,0.829,0.8495,0.835,0.8308,0.8262,0.8038,0.7988,0.7988,0.7988,0.7988,0.7988,0.7988,0.7988,0.7988,0.7988,0.0,0.8879,0.0,0.0,0.9907,0.0,0.0,0.0,0.0,0.0,0.0,0.0,0.0,0.0,0.0,0.9961,0.9981,0.9896,0.9974,0.9944,0.9792,0.994,0.9974,0.9981,0.9852,0.9727,0.9642,0.9618,0.9466,0.0,0.0,0.9111,0.894,0.8919,0.8912,0.8912,0.8912,0.8912,0.8912,0.8912,0.8926,0.8983,0.9286,0.9561,0.9741,0.9676,0.9707,0.9741,0.9673,0.9697,0.9792,0.9792,0.9792,0.9792,0.9792,0.9792,0.9792,0.9792,0.9792,0.9792,0.9792,0.9792,0.9829,0.9957,0.9879,0.9832,0.9961,0.997,1.0072,1.0256,1.0312,1.0318,1.0342,1.0343,1.0304,1.0202,1.0406,1.0539,1.0539,1.1796,1.2006,1.063,1.3556,1.5227,1.4985,1.5198,1.5227,1.4955,1.4586,1.3539,1.1821,1.1765,1.2297,1.3349,1.3706,1.5518,0.7868,0.7959,0.7988,0.7988,0.7988,0.7988,0.7988,0.7988,0.7988,0.7988,0.7988,0.7988,0.7988,0.8145,0.8357,0.8601,0.0,0.9191,0.9537,0.9683,0.0,0.0,0.0,0.0,0.0,0.0,0.0,0.0,0.0,0.0,0.0,0.0,0.994,1.0066,0.9944,0.99,0.9913,0.99,0.9896,0.9893,0.9822,0.9717,0.9605,0.9523,0.9393,0.9207,0.0,0.897,0.8912,0.8912,0.8912,0.8912,0.8912,0.8912,0.8912,0.8912,0.9011,0.9184,0.9267,0.9456,0.9696,0.9632,0.9652,0.9707,0.969,0.9741,0.9792,0.9792,0.9792,0.9792,0.9792,0.9792,0.9792,0.9792,0.9792,0.9792,0.9792,0.9792,0.9812,0.9883,0.9839,0.9812,0.9883,0.9896,0.9947,1.0103,1.0123,1.0123,1.0123,1.0062,0.9961,0.9805,0.9792,0.9792,0.9792,1.0479,1.1318,1.2333,1.2963,1.368,1.4574,1.377,1.3287,1.3287,1.2256,1.1338,1.0607,1.0478,1.1576,1.3808,1.4065,1.5869,0.7973,0.7988,0.7988,0.7988,0.7988,0.7988,0.7988,0.7988,0.7988,0.7988,0.7988,0.7988,0.7988,0.8282,0.0,0.9063,0.9318,0.9473,0.0,0.0,0.0,0.0,0.0,0.0,0.0,0.0,0.0,0.0,0.0,0.0,0.0,0.0,0.9927,1.0164,0.9944,0.9846,0.9964,0.9849,0.9792,0.9792,0.9792,0.9727,0.9551,0.9435,0.9308,0.9124,0.896,0.8912,0.8912,0.8912,0.8912,0.8912,0.8912,0.8912,0.8912,0.8912,0.9103,0.9339,0.9251,0.9383,0.9605,0.9568,0.9602,0.9666,0.9707,0.9737,0.9785,0.9751,0.9741,0.9748,0.9781,0.9792,0.9792,0.9792,0.9792,0.9792,0.9792,0.9792,0.9792,0.9792,0.9792,0.9792,0.9792,0.9792,0.9842,0.9994,0.9988,0.9978,0.998,0.9988,0.992,0.9802,0.9792,0.9792,0.9792,0.9792,1.0838,1.3317,1.2333,1.2183,1.3407,1.2303,1.1645,1.1645,1.0211,0.9493,0.9608,0.9773,1.1298,1.4041,1.4703,1.6443,0.7973,0.7988,0.7988,0.7988,0.7988,0.7988,0.7988,0.7988,0.7988,0.7988,0.7988,0.7988,0.7988,0.8282,0.8584,0.8875,0.9284,0.9737,0.0,0.0,0.0,0.0,0.0,0.0,0.0,0.0,0.0,0.0,0.0,0.0,0.0,0.0,0.0,0.9822,0.9802,0.9795,0.9805,0.9795,0.9792,0.9792,0.9792,0.9673,0.9427,0.9417,0.9225,0.8926,0.8916,0.8912,0.8912,0.8912,0.8912,0.8912,0.8912,0.8912,0.8912,0.8912,0.9035,0.9224,0.9214,0.9383,0.9588,0.9445,0.9585,0.9754,0.9493,0.9605,0.9761,0.9663,0.9625,0.9656,0.9758,0.9792,0.9792,0.9792,0.9792,0.9792,0.9792,0.9792,0.9792,0.9792,0.9792,0.9792,0.9792,0.9792,0.9842,0.9994,0.9896,0.9859,0.997,0.9893,0.9802,0.9792,0.9792,0.9792,0.9792,0.9792,0.9913,1.0122,1.0031,1.0031,1.0149,1.0031,0.997,0.997,0.9729,0.9598,0.9608,1.1065,1.2685,1.439,1.6057,1.7717,0.7975,0.7988,0.7988,0.7988,0.7988,0.7988,0.7988,0.8088,0.8153,0.8033,0.8162,0.8343,0.8412,0.0,0.8995,0.9181,0.9562,0.0,0.0,0.0,0.0,0.0,0.0,0.0,0.0,0.0,0.0,0.0,0.0,0.0,0.0,0.0,0.0,0.9792,0.9792,0.9792,0.9792,0.9792,0.9792,0.9788,0.97,0.9581,0.9407,0.9311,0.913,0.8912,0.8912,0.8912,0.8912,0.8912,0.8912,0.8912,0.8912,0.8912,0.8912,0.8912,0.9028,0.9169,0.9052,0.9279,0.9568,0.9349,0.9503,0.9754,0.9585,0.9663,0.9781,0.9724,0.968,0.9642,0.9754,0.9724,0.971,0.9768,0.9792,0.9792,0.9792,0.9792,0.9792,0.9792,0.9792,0.9792,0.9792,0.9792,0.9808,0.9866,0.9829,0.9812,0.9869,0.9825,0.9792,0.9792,0.9792,0.9792,0.9792,0.9792,0.9792,0.9792,0.9792,0.9792,0.9792,0.9792,0.9792,0.9792,0.9683,0.9652,0.9741,1.1258,1.2872,1.4566,1.6246,1.7864,0.7988,0.7988,0.7988,0.7988,0.7988,0.7988,0.7988,0.816,0.8267,0.8133,0.8272,0.8488,0.8611,0.8882,0.0,0.0,0.0,0.0,0.0,0.0,0.0,0.0,0.0,0.0,0.0,0.0,0.0,0.0,0.0,0.0,0.0,0.0,0.0,0.0,0.9792,0.9792,0.9792,0.9748,0.9724,0.9721,0.9557,0.9435,0.9403,0.925,0.9104,0.8912,0.8912,0.8912,0.8912,0.8912,0.8912,0.8912,0.8912,0.8912,0.8912,0.8912,0.8973,0.9097,0.8946,0.9142,0.9439,0.9305,0.9461,0.9663,0.9568,0.9639,0.9714,0.9696,0.9646,0.9642,0.9754,0.9717,0.9646,0.9758,0.9792,0.9792,0.9792,0.9792,0.9792,0.9792,0.9792,0.9792,0.9792,0.9792,0.9792,0.9792,0.9792,0.9792,0.9792,0.9792,0.9792,0.9792,0.9792,0.9792,0.9792,0.9792,0.9792,0.9792,0.9792,0.9792,0.9792,0.9792,0.9792,0.9792,1.0201,1.0467,1.057,1.2582,1.4178,1.54,1.7003,1.8344,0.7988,0.7988,0.7988,0.7988,0.7988,0.7988,0.7988,0.816,0.8298,0.8301,0.8301,0.8345,0.8485,0.8733,0.0,0.0,0.0,0.0,0.0,0.0,0.0,0.0,0.0,0.0,0.0,0.0,0.0,0.0,0.0,0.0,0.0,0.0,0.0,0.0,0.9788,0.9788,0.9788,0.968,0.9608,0.9605,0.9328,0.926,0.9403,0.925,0.91,0.8912,0.8912,0.8912,0.8912,0.8912,0.8912,0.8912,0.8912,0.8912,0.8912,0.8912,0.8912,0.8912,0.8912,0.9032,0.9234,0.9356,0.941,0.941,0.941,0.949,0.9578,0.9429,0.9493,0.9639,0.9751,0.9713,0.9642,0.9758,0.9792,0.9792,0.9792,0.9792,0.9792,0.9792,0.9792,0.9792,0.9792,0.9792,0.9792,0.9792,0.9792,0.9792,0.9792,0.9792,0.9792,0.9792,0.9792,0.9792,0.9792,0.9792,0.9792,0.9792,0.9792,0.9792,0.9792,0.9822,0.9819,0.9819,1.1408,1.2213,1.2243,1.5448,1.6997,1.7026,1.8648,1.9395,0.7988,0.7988,0.7988,0.7988,0.7988,0.7988,0.7988,0.816,0.8355,0.8537,0.8581,0.8591,0.8635,0.8974,0.0,0.0,0.0,0.0,0.0,0.0,0.0,0.0,0.0,0.0,0.0,0.0,0.0,0.0,0.0,0.0,0.0,0.0,0.0,0.0,0.9673,0.9673,0.9673,0.9523,0.9449,0.9445,0.9277,0.9234,0.9243,0.9069,0.8953,0.8912,0.8912,0.8912,0.8912,0.8912,0.8912,0.8912,0.8912,0.8912,0.8912,0.8912,0.8912,0.8912,0.8912,0.9032,0.9172,0.9086,0.9211,0.941,0.941,0.949,0.9618,0.9676,0.9574,0.9483,0.9632,0.9561,0.951,0.9761,0.9792,0.9792,0.9792,0.9792,0.9792,0.9792,0.9792,0.9792,0.9792,0.9792,0.9792,0.9792,0.9792,0.9792,0.9792,0.9792,0.9792,0.9792,0.9792,0.9792,0.9792,0.9792,0.9792,0.9792,0.9792,0.9792,0.9792,1.0899,1.1499,1.1499,1.3078,1.3889,1.3889,1.5991,1.6997,1.7026,1.8648,1.9395,0.7988,0.7988,0.7988,0.7988,0.7988,0.7988,0.7988,0.8204,0.8464,0.8713,0.8727,0.8703,0.8764,0.9022,0.0,0.0,0.0,0.0,0.0,0.0,0.0,0.0,0.0,0.0,0.0,0.0,0.0,0.0,0.0,0.0,0.0,0.0,0.0,0.0,0.9517,0.9517,0.9517,0.9396,0.9318,0.9318,0.9169,0.9066,0.9066,0.895,0.8912,0.8912,0.8912,0.8912,0.8912,0.8912,0.8912,0.8912,0.8912,0.8912,0.8912,0.8912,0.8912,0.8912,0.8912,0.8967,0.9062,0.9032,0.9144,0.9318,0.9318,0.9427,0.9537,0.9622,0.9517,0.9444,0.9568,0.954,0.9517,0.9693,0.9751,0.9792,0.9792,0.9792,0.9792,0.9792,0.9792,0.9792,0.9792,0.9792,0.9792,0.9792,0.9792,0.9792,0.9792,0.9792,0.9792,0.9792,0.9792,0.9792,0.9792,0.9792,0.9792,0.9792,0.9792,0.9792,0.9792,1.1348,1.2213,1.2213,1.4416,1.5548,1.5548,1.7179,1.7952,1.7987,1.8946,1.9395,0.7988,0.7988,0.7988,0.7988,0.7988,0.7992,0.8033,0.8279,0.856,0.8814,0.0,0.8747,0.8885,0.8923,0.0,0.0,0.0,0.0,0.0,0.0,0.0,0.0,0.0,0.0,0.0,0.0,0.0,0.0,0.0,0.0,0.0,0.0,0.0,0.9393,0.939,0.939,0.939,0.9237,0.9155,0.0,0.8994,0.8896,0.8872,0.8899,0.8912,0.8912,0.8912,0.8912,0.8912,0.8912,0.8912,0.8912,0.8912,0.8912,0.8912,0.8912,0.8912,0.8912,0.8912,0.8912,0.8933,0.9134,0.92,0.9165,0.9221,0.9298,0.9413,0.9427,0.942,0.9444,0.9568,0.9598,0.9591,0.9605,0.9717,0.9792,0.9792,0.9792,0.9792,0.9792,0.9792,0.9792,0.9792,0.9792,0.9792,0.9792,0.9792,0.9792,0.9792,0.9792,0.9792,0.9792,0.9792,0.9792,0.9792,0.9792,0.9792,0.9792,0.9792,0.9792,0.9792,1.1499,1.2423,1.2423,1.5572,1.7208,1.7231,1.8677,1.9395,1.9395,1.9395,1.9395,0.7988,0.7988,0.7988,0.7988,0.7988,0.8047,0.8194,0.8383,0.8529,0.8567,0.872,0.8872,0.8906,0.0,0.0,0.0,0.0,0.0,0.0,0.0,0.0,0.0,0.0,0.0,0.0,0.0,0.0,0.0,0.0,0.0,0.0,0.0,0.0,0.9237,0.923,0.923,0.923,0.9059,0.8923,0.0,0.8869,0.8784,0.8587,0.8801,0.8912,0.8912,0.8912,0.8912,0.8912,0.8912,0.8912,0.8912,0.8912,0.8912,0.8912,0.8912,0.8912,0.8912,0.8912,0.8912,0.8933,0.9134,0.9104,0.9028,0.9291,0.9383,0.9434,0.9527,0.9473,0.9444,0.9568,0.952,0.9459,0.9581,0.9717,0.9792,0.9792,0.9792,0.9792,0.9792,0.9792,0.9792,0.9792,0.9792,0.9792,0.9792,0.9792,0.9792,0.9792,0.9792,0.9792,0.9792,0.9792,0.9792,0.9792,0.9792,0.9792,0.9792,0.9792,0.9792,0.9792,1.2573,1.4063,1.4063,1.7243,1.8887,1.8887,1.9243,1.9395,1.9395,1.9395,1.9395,0.7988,0.7988,0.7988,0.7988,0.7988,0.8037,0.814,0.8326,0.8509,0.8509,0.8726,0.8912,0.8912,0.0,0.0,0.0,0.0,0.0,0.0,0.0,0.0,0.0,0.0,0.0,0.0,0.0,0.0,0.0,0.0,0.0,0.0,0.9339,0.9199,0.8975,0.8968,0.8934,0.8859,0.8757,0.8679,0.8601,0.8682,0.8635,0.8512,0.8648,0.872,0.8723,0.877,0.8801,0.8808,0.8882,0.8869,0.8801,0.8801,0.8801,0.8801,0.8801,0.8848,0.8912,0.8912,0.8912,0.8923,0.9025,0.9045,0.9059,0.9144,0.9218,0.9332,0.9456,0.934,0.9218,0.9442,0.9417,0.9339,0.9462,0.9663,0.9792,0.9792,0.9792,0.9792,0.9792,0.9792,0.9792,0.9792,0.9792,0.9792,0.9792,0.9792,0.9792,0.9792,0.9792,0.9792,0.9792,0.9792,0.9792,0.9792,0.9792,0.9792,0.9792,0.9792,0.9792,0.9792,1.2153,1.38,1.4574,1.7753,1.9395,1.9395,1.9395,1.9395,1.9395,1.9395,1.9395,0.7988,0.7988,0.7988,0.7988,0.7988,0.7988,0.7988,0.8252,0.8471,0.8471,0.871,0.8912,0.0,0.0,0.0,0.0,0.0,0.0,0.0,0.0,0.0,0.0,0.0,0.0,0.0,0.0,0.0,0.0,0.0,0.0,0.9306,0.9189,0.8978,0.8679,0.8672,0.8611,0.8509,0.8509,0.8495,0.8471,0.8418,0.8421,0.8471,0.8418,0.8435,0.8515,0.8645,0.871,0.8723,0.8848,0.8838,0.8723,0.8723,0.8723,0.8723,0.8723,0.8801,0.8912,0.8912,0.8912,0.8916,0.894,0.9039,0.9124,0.9005,0.9059,0.9234,0.9335,0.9164,0.9011,0.931,0.9294,0.922,0.9373,0.9568,0.9727,0.9781,0.9792,0.9792,0.9792,0.9792,0.9792,0.9792,0.9792,0.9792,0.9792,0.9792,0.9792,0.9792,0.9792,0.9792,0.9792,0.9792,0.9792,0.9792,0.9792,0.9792,0.9792,0.9792,0.9792,0.9792,1.1348,1.2963,1.4574,1.7484,1.9127,1.9395,1.9395,1.9395,1.9395,1.9395,1.9395,0.7988,0.7988,0.7988,0.7988,0.7988,0.7988,0.7988,0.8174,0.8325,0.0,0.8638,0.0,0.0,0.0,0.0,0.0,0.0,0.0,0.0,0.0,0.0,0.0,0.0,0.0,0.0,0.0,0.0,0.0,0.0,0.0,0.8977,0.8852,0.8693,0.8543,0.8539,0.8529,0.8509,0.8509,0.8447,0.8321,0.8163,0.817,0.8318,0.8135,0.8213,0.8515,0.8645,0.871,0.8723,0.8848,0.8899,0.8882,0.8882,0.8882,0.8882,0.8882,0.8892,0.8912,0.8912,0.8912,0.8929,0.9111,0.9052,0.896,0.9121,0.9165,0.9214,0.9234,0.9182,0.9192,0.9366,0.9294,0.922,0.9373,0.9441,0.951,0.9737,0.9792,0.9792,0.9792,0.9792,0.9792,0.9792,0.9792,0.9792,0.9792,0.9792,0.9792,0.9792,0.9792,0.9792,0.9792,0.9792,0.9792,0.9792,0.9792,0.9792,0.9792,0.9792,0.9792,0.9792,1.1348,1.2963,1.4574,1.638,1.8017,1.9395,1.9395,1.9395,1.9395,1.9395,1.9395,0.7988,0.7988,0.7988,0.7988,0.7988,0.7988,0.7988,0.816,0.8298,0.8298,0.0,0.0,0.0,0.0,0.0,0.0,0.0,0.0,0.0,0.0,0.0,0.0,0.0,0.0,0.0,0.0,0.0,0.0,0.0,0.8916,0.8909,0.8713,0.8516,0.8393,0.8389,0.8323,0.8209,0.8209,0.8201,0.814,0.8047,0.805,0.814,0.8044,0.8084,0.8216,0.8397,0.8465,0.8476,0.8621,0.8682,0.8676,0.8594,0.8665,0.8774,0.8713,0.8764,0.8912,0.8912,0.8912,0.8923,0.9011,0.8963,0.8923,0.9015,0.9032,0.9049,0.9158,0.9124,0.9066,0.9243,0.9172,0.9069,0.9247,0.9281,0.9342,0.9527,0.9574,0.9598,0.9686,0.9737,0.9792,0.9792,0.9792,0.9792,0.9792,0.9792,0.9792,0.9792,0.9792,0.9792,0.9792,0.9792,0.9792,0.9792,0.9792,0.9792,0.9792,0.9792,0.9792,0.9792,1.0479,1.1619,1.3228,1.572,1.7806,1.9395,1.9395,1.9395,1.9395,1.9395,1.9395,0.7988,0.7988,0.7988,0.7988,0.7988,0.7988,0.7988,0.0,0.8211,0.0,0.0,0.0,0.0,0.0,0.0,0.0,0.0,0.0,0.0,0.0,0.0,0.0,0.0,0.0,0.0,0.0,0.0,0.0,0.0,0.8686,0.8737,0.8554,0.8389,0.8218,0.8211,0.8157,0.7992,0.7988,0.7988,0.7988,0.7988,0.7988,0.7988,0.7988,0.7988,0.8023,0.8204,0.8298,0.8308,0.8451,0.8532,0.853,0.8451,0.8516,0.8703,0.8625,0.8693,0.8804,0.8885,0.8885,0.8862,0.8899,0.8912,0.8912,0.8912,0.8912,0.8933,0.9069,0.9022,0.8936,0.9097,0.9018,0.8936,0.91,0.9128,0.9189,0.9391,0.9437,0.9439,0.9629,0.972,0.9748,0.9785,0.9792,0.9792,0.9792,0.9792,0.9792,0.9792,0.9792,0.9792,0.9792,0.9792,0.9792,0.9792,0.9792,0.9792,0.9792,0.9792,0.9792,0.9792,0.9792,1.057,1.2157,1.4559,1.6762,1.8794,1.9185,1.9395,1.9395,1.9395,1.9185,0.7988,0.7988,0.7988,0.7988,0.7988,0.7988,0.0,0.0,0.0,0.0,0.0,0.0,0.0,0.0,0.0,0.0,0.0,0.0,0.0,0.0,0.0,0.0,0.0,0.0,0.0,0.0,0.0,0.0,0.0,0.8464,0.8338,0.8315,0.8211,0.8033,0.8027,0.8023,0.7988,0.7988,0.7988,0.7988,0.7988,0.7988,0.7988,0.7988,0.7988,0.8023,0.8204,0.8298,0.8308,0.8451,0.8567,0.8699,0.8689,0.8696,0.8726,0.8838,0.8716,0.8547,0.8811,0.8818,0.872,0.8865,0.8912,0.8912,0.8912,0.8912,0.8912,0.8919,0.8916,0.8912,0.8919,0.8916,0.8912,0.8919,0.8923,0.9041,0.9503,0.9483,0.9466,0.9754,0.9677,0.9663,0.9768,0.9792,0.9792,0.9792,0.9792,0.9792,0.9792,0.9792,0.9792,0.9792,0.9792,0.9792,0.9792,0.9792,0.9792,0.9792,0.9792,0.9792,0.9792,0.9792,1.057,1.2157,1.2363,1.3999,1.7114,1.8648,1.9395,1.9395,1.9395,1.8583,0.7988,0.7988,0.7988,0.7988,0.7988,0.7988,0.7988,0.7988,0.7988,0.0,0.0,0.0,0.0,0.0,0.0,0.0,0.0,0.0,0.0,0.0,0.0,0.0,0.0,0.0,0.0,0.0,0.0,0.0,0.0,0.0,0.8301,0.8177,0.8071,0.7992,0.7988,0.7988,0.7988,0.7988,0.7988,0.7988,0.7988,0.7988,0.7988,0.7988,0.7988,0.7992,0.8074,0.8098,0.8101,0.8152,0.8289,0.8418,0.8294,0.8372,0.856,0.8523,0.856,0.8645,0.8727,0.8794,0.8838,0.8892,0.8912,0.8912,0.8912,0.8912,0.8912,0.8912,0.8912,0.8912,0.8912,0.8912,0.8912,0.8912,0.8912,0.898,0.9291,0.9379,0.9441,0.9517,0.9649,0.9731,0.9781,0.9792,0.9792,0.9792,0.9792,0.9792,0.9792,0.9792,0.9792,0.9792,0.9792,0.9792,0.9792,0.9792,0.9792,0.9792,0.9792,0.9792,0.9792,0.9792,1.0061,1.066,1.1675,1.3287,1.5459,1.7061,1.7331,1.6326,1.739,1.7003,0.7988,0.7988,0.7988,0.7988,0.7988,0.7988,0.7988,0.0,0.7988,0.0,0.0,0.0,0.0,0.0,0.0,0.0,0.0,0.0,0.0,0.0,0.0,0.0,0.0,0.0,0.0,0.0,0.0,0.0,0.0,0.0,0.8194,0.8071,0.7988,0.7988,0.7988,0.7988,0.7988,0.7988,0.7988,0.7988,0.7988,0.7988,0.7988,0.7988,0.7988,0.7988,0.7988,0.7988,0.7988,0.7988,0.813,0.8284,0.8157,0.8238,0.8434,0.8386,0.8461,0.857,0.8618,0.8733,0.8835,0.8835,0.8869,0.8912,0.8912,0.8912,0.8912,0.8912,0.8912,0.8912,0.8912,0.8912,0.8912,0.8912,0.8912,0.8936,0.9059,0.9226,0.9349,0.94,0.9581,0.9721,0.9721,0.9758,0.9792,0.9792,0.9792,0.9792,0.9792,0.9792,0.9792,0.9792,0.9792,0.9792,0.9792,0.9792,0.9792,0.9792,0.9792,0.9792,0.9792,0.9792,0.9792,0.9792,1.0838,1.1916,1.2988,1.5158,1.5636,1.4634,1.5695,1.5335,0.0,0.0,0.0,0.7988,0.0,0.0,0.7988,0.0,0.7988,0.0,0.0,0.0,0.0,0.0,0.0,0.0,0.0,0.0,0.0,0.0,0.0,0.0,0.0,0.0,0.0,0.0,0.0,0.0,0.0,0.7988,0.7988,0.7988,0.7988,0.7988,0.7988,0.7988,0.7988,0.7988,0.7988,0.7988,0.7988,0.7988,0.7988,0.7988,0.7988,0.7988,0.7988,0.7988,0.7988,0.7988,0.8104,0.8287,0.8287,0.8287,0.8308,0.8444,0.841,0.8318,0.8457,0.8581,0.871,0.8716,0.8791,0.8912,0.8912,0.8912,0.8912,0.8912,0.8912,0.8912,0.8912,0.8912,0.8912,0.8912,0.8912,0.8912,0.8912,0.9052,0.9226,0.9376,0.95,0.9602,0.9602,0.969,0.9785,0.9785,0.9788,0.9792,0.9792,0.9792,0.9792,0.9792,0.9792,0.9792,0.9792,0.9792,0.9792,0.9792,0.9792,0.9792,0.9792,0.9792,0.9792,0.9792,0.9792,0.9792,0.9822,1.2988,1.451,1.4455,1.4455,1.3616,0.7988,0.0,0.0,0.0,0.0,0.0,0.0,0.0,0.0,0.0,0.0,0.0,0.0,0.0,0.0,0.0,0.0,0.0,0.0,0.0,0.0,0.0,0.0,0.0,0.0,0.0,0.0,0.0,0.7988,0.7988,0.7988,0.7988,0.7988,0.7988,0.7988,0.7988,0.7988,0.7988,0.7988,0.7988,0.7988,0.7988,0.7988,0.7988,0.7988,0.7988,0.7988,0.7988,0.7988,0.7988,0.804,0.8077,0.8077,0.8077,0.8084,0.8121,0.8208,0.8318,0.8457,0.8581,0.8726,0.8814,0.8875,0.8912,0.8912,0.8912,0.8912,0.8912,0.8912,0.8912,0.8912,0.8912,0.8912,0.8912,0.8912,0.8912,0.8912,0.9052,0.9221,0.9237,0.9369,0.9445,0.9445,0.9568,0.9666,0.9666,0.9724,0.9792,0.9792,0.9792,0.9792,0.9792,0.9792,0.9792,0.9792,0.9792,0.9792,0.9792,0.9792,0.9792,0.9792,0.9792,0.9792,0.9792,0.9792,0.9792,0.9792,1.1856,1.2273,1.114,1.114,1.0899,0.0,0.0,0.0,0.0,0.0,0.0,0.7988,0.7988,0.0,0.0,0.0,0.0,0.0,0.0,0.0,0.0,0.0,0.0,0.0,0.0,0.0,0.0,0.0,0.0,0.0,0.0,0.0,0.7988,0.7988,0.7988,0.7988,0.7988,0.7988,0.7988,0.7988,0.7988,0.7988,0.7988,0.7988,0.7988,0.7988,0.7988,0.7988,0.7988,0.7988,0.7988,0.7988,0.7988,0.7988,0.7988,0.7988,0.7988,0.7988,0.7988,0.7988,0.7988,0.8174,0.8389,0.841,0.8574,0.8784,0.8808,0.8858,0.8912,0.8912,0.8912,0.8912,0.8912,0.8912,0.8912,0.8912,0.8912,0.8912,0.8912,0.8912,0.8912,0.8912,0.9005,0.9062,0.9062,0.9264,0.939,0.9325,0.9441,0.9537,0.9602,0.968,0.9724,0.9785,0.9792,0.9792,0.9792,0.9792,0.9792,0.9792,0.9792,0.9792,0.9792,0.9792,0.9792,0.9792,0.9792,0.9792,0.9792,0.9792,0.9792,0.9792,1.0747,1.0721,0.9792,0.9792,0.9792,0.0,0.0,0.0,0.0,0.0,0.0,0.7988,0.7988,0.7988,0.0,0.0,0.0,0.0,0.0,0.0,0.0,0.0,0.0,0.0,0.0,0.0,0.0,0.0,0.0,0.0,0.7988,0.7988,0.7988,0.7988,0.7988,0.7988,0.7988,0.7988,0.7988,0.7988,0.7988,0.7988,0.7988,0.7988,0.7988,0.7988,0.7988,0.7988,0.7988,0.7988,0.7988,0.7988,0.7988,0.7988,0.7988,0.7988,0.7988,0.7988,0.7988,0.7988,0.7988,0.8192,0.8468,0.8359,0.8567,0.8865,0.8747,0.8801,0.8912,0.8912,0.8912,0.8912,0.8912,0.8912,0.8912,0.8912,0.8912,0.8912,0.8912,0.8912,0.8912,0.8912,0.8912,0.8912,0.8912,0.915,0.9318,0.9182,0.9298,0.9425,0.9564,0.9612,0.968,0.9775,0.9792,0.9792,0.9792,0.9792,0.9792,0.9792,0.9792,0.9792,0.9792,0.9792,0.9792,0.9792,0.9792,0.9792,0.9792,0.9792,0.9792,0.9792,0.9792,0.9792,0.9792,0.9792,0.9792,0.0,0.0,0.0,0.0,0.0,0.0,0.7988,0.7988,0.7988,0.0,0.0,0.0,0.0,0.0,0.0,0.0,0.0,0.0,0.0,0.0,0.0,0.0,0.0,0.0,0.0,0.7988,0.7988,0.7988,0.7988,0.7988,0.7988,0.7988,0.7988,0.7988,0.7988,0.7988,0.7988,0.7988,0.7988,0.7988,0.7988,0.7988,0.7988,0.7988,0.7988,0.7988,0.7988,0.7988,0.7988,0.7988,0.7988,0.7988,0.7988,0.7988,0.7988,0.7988,0.8153,0.8349,0.8437,0.8577,0.8743,0.8835,0.8885,0.8912,0.8912,0.8912,0.8912,0.8912,0.8912,0.8912,0.8912,0.8912,0.8912,0.8912,0.8912,0.8912,0.8912,0.8912,0.8912,0.8912,0.8956,0.8987,0.8956,0.9201,0.942,0.9422,0.9629,0.9758,0.9788,0.9792,0.9792,0.9792,0.9792,0.9792,0.9792,0.9792,0.9792,0.9792,0.9792,0.9792,0.9792,0.9792,0.9792,0.9792,0.9792,0.9792,0.9792,0.9792,0.9792,0.9792,0.9792,0.9792,0.0,0.0,0.0,0.7988,0.0,0.0,0.0,0.7988,0.7988,0.7988,0.0,0.0,0.0,0.0,0.0,0.0,0.0,0.0,0.0,0.0,0.0,0.0,0.0,0.0,0.0,0.7988,0.7988,0.7988,0.7988,0.7988,0.7988,0.7988,0.7988,0.7988,0.7988,0.7988,0.7988,0.7988,0.7988,0.7988,0.7988,0.7988,0.7988,0.7988,0.7988,0.7988,0.7988,0.7988,0.7988,0.7988,0.7988,0.7988,0.7988,0.7988,0.7988,0.7988,0.8159,0.8413,0.8485,0.8632,0.8798,0.8798,0.8848,0.8896,0.8821,0.8852,0.8912,0.8912,0.8912,0.8912,0.8912,0.8912,0.8912,0.8912,0.8912,0.8912,0.8912,0.8912,0.8912,0.8912,0.8912,0.8912,0.8912,0.9034,0.9184,0.9284,0.9459,0.9629,0.9707,0.9748,0.9792,0.9792,0.9792,0.9792,0.9792,0.9792,0.9792,0.9792,0.9792,0.9792,0.9792,0.9792,0.9792,0.9792,0.9792,0.9792,0.9792,0.9792,0.9792,0.9792,0.9792,0.9792,0.0,0.0,0.0,0.0,0.0,0.7988,0.0,0.0,0.0,0.7988,0.0,0.0,0.0,0.0,0.0,0.0,0.0,0.0,0.0,0.0,0.0,0.0,0.0,0.0,0.0,0.7988,0.7988,0.7988,0.7988,0.7988,0.7988,0.7988,0.7988,0.7988,0.7988,0.7988,0.7988,0.7988,0.7988,0.7988,0.7988,0.7988,0.7988,0.7988,0.7988,0.7988,0.7988,0.7988,0.7988,0.7988,0.7988,0.7988,0.7988,0.7988,0.7988,0.7988,0.8202,0.8509,0.8509,0.8662,0.8845,0.8723,0.8747,0.8804,0.8737,0.877,0.8872,0.8902,0.8912,0.8912,0.8912,0.8912,0.8912,0.8912,0.8912,0.8912,0.8912,0.8912,0.8912,0.8912,0.8912,0.8912,0.8912,0.8933,0.9018,0.9162,0.9335,0.9469,0.9595,0.9704,0.9792,0.9792,0.9792,0.9792,0.9792,0.9792,0.9792,0.9792,0.9792,0.9792,0.9792,0.9792,0.9792,0.9792,0.9792,0.9792,0.9792,0.9792,0.9792,0.9792,0.9792,0.9792,0.0,0.0,0.0,0.0,0.7988,0.0,0.0,0.0,0.7988,0.7988,0.0,0.0,0.0,0.0,0.0,0.0,0.0,0.0,0.0,0.0,0.0,0.0,0.0,0.0,0.0,0.0,0.7988,0.7988,0.7988,0.7988,0.7988,0.7988,0.7988,0.7988,0.7988,0.7988,0.7988,0.7988,0.7988,0.7988,0.7988,0.7988,0.7988,0.7988,0.7988,0.7988,0.7988,0.7988,0.7988,0.7988,0.7988,0.7988,0.7988,0.7988,0.7988,0.7988,0.8202,0.8509,0.8509,0.8594,0.8733,0.8716,0.8628,0.8557,0.8676,0.8723,0.8737,0.8872,0.8912,0.8912,0.8912,0.8912,0.8912,0.8912,0.8912,0.8912,0.8912,0.8912,0.8912,0.8912,0.8912,0.8912,0.8912,0.9045,0.9162,0.9207,0.9427,0.9591,0.9608,0.9704,0.9792,0.9792,0.9792,0.9792,0.9792,0.9792,0.9792,0.9792,0.9792,0.9792,0.9792,0.9792,0.9792,0.9792,0.9792,0.9792,0.9792,0.9792,0.9792,0.9792,0.9792,0.9792,0.0,0.0,0.0,0.0,0.0,0.0,0.7988,0.0,0.7988,0.0,0.0,0.0,0.0,0.0,0.0,0.0,0.9117,0.0,0.0,0.0,0.0,0.0,0.0,0.0,0.0,0.0,0.0,0.0,0.0,0.7988,0.7988,0.7988,0.7988,0.7988,0.7988,0.7988,0.7988,0.7988,0.7988,0.7988,0.7988,0.7988,0.7988,0.7988,0.7988,0.7988,0.7988,0.7988,0.7988,0.7988,0.7988,0.7988,0.7988,0.7988,0.7988,0.7988,0.8152,0.8386,0.8386,0.8481,0.8577,0.8577,0.8505,0.843,0.8638,0.871,0.8716,0.8869,0.8912,0.8912,0.8912,0.8912,0.8912,0.8912,0.8912,0.8912,0.8912,0.8912,0.8912,0.8912,0.9008,0.9035,0.8926,0.9059,0.921,0.921,0.9441,0.9608,0.9608,0.9704,0.9792,0.9792,0.9792,0.9792,0.9792,0.9792,0.9792,0.9792,0.9792,0.9792,0.9792,0.9792,0.9792,0.9792,0.9792,0.9792,0.9792,0.9792,0.9792,0.9792,0.9792,0.9792,0.7988,0.0,0.0,0.0,0.0,0.0,0.0,0.0,0.0,0.0,0.0,0.0,0.0,0.0,0.0,0.0,0.0,0.0,0.0,0.0,0.0,0.0,0.0,0.0,0.0,0.0,0.0,0.8552,0.8212,0.7988,0.7988,0.7988,0.7988,0.7988,0.7988,0.7988,0.7988,0.7988,0.7988,0.7988,0.7988,0.7988,0.7988,0.7988,0.7988,0.7988,0.7988,0.7988,0.7988,0.7988,0.7988,0.7988,0.7988,0.7988,0.7988,0.7988,0.8136,0.8298,0.8298,0.8362,0.8444,0.8374,0.8345,0.8345,0.857,0.8676,0.8716,0.8869,0.8912,0.8912,0.8912,0.8912,0.8912,0.8912,0.8912,0.8912,0.8912,0.8912,0.8912,0.8912,0.9022,0.9104,0.9008,0.9148,0.923,0.9217,0.9441,0.9608,0.9608,0.9704,0.9792,0.9792,0.9792,0.9792,0.9792,0.9792,0.9792,0.9792,0.9792,0.9792,0.9792,0.9792,0.9792,0.9792,0.9792,0.9792,0.9792,0.9792,0.9792,0.9792,0.9792,0.9792,0.0,0.0,0.0,0.7988,0.0,0.0,0.0,0.0,0.8357,0.0,0.0,0.0,0.0,0.0,0.0,0.0,0.0,0.0,0.0,0.0,0.0,0.0,0.0,0.0,0.0,0.0,0.0,0.9924,0.8726,0.7988,0.7988,0.7988,0.7988,0.7988,0.7988,0.7988,0.7988,0.7988,0.7988,0.7988,0.7988,0.7988,0.7988,0.7988,0.7988,0.7988,0.7988,0.7988,0.7988,0.7988,0.7988,0.7988,0.7988,0.7988,0.7988,0.7988,0.8136,0.8298,0.8298,0.8301,0.8277,0.8077,0.815,0.8325,0.8471,0.8594,0.8716,0.8869,0.8912,0.8912,0.8912,0.8912,0.8912,0.8912,0.8912,0.8912,0.8912,0.8912,0.8912,0.8912,0.8916,0.896,0.9152,0.9301,0.9352,0.9231,0.9441,0.9608,0.9608,0.9704,0.9792,0.9792,0.9792,0.9792,0.9792,0.9792,0.9792,0.9792,0.9792,0.9792,0.9792,0.9792,0.9792,0.9792,0.9792,0.9792,0.9792,0.9792,0.9792,0.9792,0.9792,0.9792,0.0,0.0,0.7988,0.7988,0.0,0.0,0.0,0.0,0.0,0.0,0.0,0.0,0.0,0.0,0.0,0.0,0.0,0.0,0.0,0.0,0.0,0.0,0.0,0.0,0.0,0.0,0.0,0.9998,0.8751,0.7988,0.0,0.7988,0.7988,0.7988,0.7988,0.7988,0.7988,0.7988,0.7988,0.7988,0.7988,0.7988,0.7988,0.7988,0.7988,0.7988,0.7988,0.7988,0.7988,0.7988,0.7988,0.7988,0.7988,0.7988,0.7988,0.7988,0.8047,0.8091,0.8091,0.8091,0.8084,0.8033,0.8143,0.8321,0.8464,0.8587,0.8716,0.8869,0.8912,0.8912,0.8912,0.8912,0.8912,0.8912,0.8912,0.8912,0.8912,0.8912,0.8912,0.8912,0.9071,0.9215,0.9189,0.9471,0.9622,0.9479,0.9625,0.9717,0.9717,0.9761,0.9792,0.9792,0.9792,0.9792,0.9792,0.9792,0.9792,0.9792,0.9792,0.9792,0.9792,0.9792,0.9792,0.9792,0.9792,0.9792,0.9792,0.9792,0.9792,0.9792,0.9792,0.9792,0.7988,0.7988,0.0,0.7988,0.7988,0.0,0.7988,0.0,0.0,0.0,0.0,0.0,0.0,0.0,0.0,0.0,0.0,0.0,0.0,1.5289,0.0,0.0,0.0,0.0,0.0,0.0,1.0485,1.0022,0.8751,0.7988,0.0,0.0,0.7988,0.7988,0.7988,0.7988,0.7988,0.7988,0.7988,0.7988,0.7988,0.7988,0.7988,0.7988,0.7988,0.7988,0.7988,0.7988,0.7988,0.7988,0.7988,0.7988,0.7988,0.7988,0.7988,0.7988,0.7988,0.7988,0.7988,0.7988,0.8023,0.8077,0.8225,0.84,0.852,0.8669,0.8794,0.8974,0.895,0.8923,0.9001,0.895,0.8912,0.8912,0.8912,0.8912,0.8912,0.8912,0.8912,0.8912,0.9133,0.9315,0.9271,0.9517,0.9687,0.9625,0.97,0.9792,0.9792,0.9792,0.9792,0.9792,0.9792,0.9792,0.9792,0.9792,0.9792,0.9792,0.9792,0.9792,0.9792,0.9792,0.9842,0.9981,0.9846,0.9846,0.9985,0.9842,0.9792,0.9792,0.9792,0.9792]},{"header":{"parameterUnit":"m.s-1","parameterCategory":1,"la1":30.6,"la2":29.2853,"lo1":-89.7004,"lo2":-87.6739,"dy":0.0162,"dx":0.0183,"nx":112,"ny":82,"refTime":"2023-09-17T18:00:00:Z","depth":0,"parameterNumber":3,"parameterNumberName":"V-component_of_WINDS"},"data":[0.0,0.0,0.0,0.0,0.0,0.0,0.0,0.0,0.0,0.0,0.0,0.0,0.0,0.0,0.0,0.0,0.0,0.0,0.0,0.0,0.0,0.0,0.0,0.0,0.0,0.0,0.0,0.0,0.0,0.0,0.0,0.0,0.0,0.0,0.0,0.0,0.0,0.0,0.0,0.0,0.0,0.0,0.0,0.0,0.0,0.0,0.0,0.0,0.0,0.0,0.0,0.0,0.0,0.0,0.0,0.0,0.0,0.0,0.0,0.0,0.0,0.0,0.0,0.0,0.0,0.0,0.0,0.0,0.0,0.0,0.0,0.0,0.0,0.0,0.0,0.0,0.0,0.0,0.0,0.0,0.0,0.0,0.0,0.0,0.0,0.0,0.0,0.0,0.0,0.0,3.3807,3.4328,3.5955,3.6967,3.6837,3.6923,3.6544,3.5564,0.0,0.0,0.0,0.0,0.0,0.0,0.0,0.0,0.0,0.0,0.0,0.0,0.0,0.0,0.0,0.0,0.0,0.0,0.0,0.0,0.0,0.0,0.0,0.0,0.0,0.0,0.0,0.0,0.0,0.0,0.0,0.0,0.0,0.0,0.0,0.0,0.0,0.0,0.0,0.0,0.0,0.0,0.0,0.0,0.0,0.0,0.0,0.0,0.0,0.0,0.0,0.0,0.0,0.0,0.0,0.0,0.0,0.0,0.0,0.0,0.0,0.0,0.0,0.0,0.0,0.0,0.0,0.0,0.0,0.0,0.0,0.0,0.0,0.0,0.0,0.0,0.0,0.0,0.0,0.0,0.0,0.0,0.0,0.0,0.0,0.0,0.0,0.0,0.0,0.0,0.0,0.0,0.0,0.0,0.0,0.0,0.0,0.0,0.0,0.0,0.0,0.0,0.0,0.0,3.3862,3.6648,3.7812,3.8118,3.7433,3.6784,3.6164,3.5535,0.0,0.0,0.0,0.0,0.0,0.0,0.0,0.0,0.0,0.0,0.0,0.0,0.0,0.0,0.0,0.0,0.0,0.0,0.0,0.0,0.0,0.0,0.0,0.0,0.0,0.0,0.0,0.0,0.0,0.0,0.0,0.0,0.0,0.0,0.0,0.0,0.0,0.0,0.0,0.0,0.0,0.0,0.0,0.0,0.0,0.0,0.0,0.0,0.0,0.0,0.0,0.0,0.0,0.0,0.0,0.0,0.0,0.0,0.0,0.0,0.0,0.0,0.0,0.0,0.0,0.0,0.0,0.0,0.0,0.0,0.0,0.0,0.0,0.0,0.0,0.0,0.0,0.0,0.0,0.0,0.0,0.0,0.0,0.0,0.0,0.0,0.0,0.0,0.0,0.0,0.0,0.0,0.0,0.0,0.0,0.0,0.0,0.0,0.0,0.0,0.0,0.0,0.0,3.4247,3.5998,3.7936,3.9006,3.9249,3.8437,3.7364,3.6621,3.6375,3.5922,0.0,0.0,0.0,0.0,0.0,0.0,0.0,0.0,0.0,0.0,0.0,0.0,0.0,0.0,0.0,0.0,0.0,0.0,0.0,0.0,0.0,0.0,0.0,0.0,0.0,0.0,0.0,0.0,0.0,0.0,0.0,0.0,0.0,0.0,0.0,0.0,0.0,0.0,0.0,0.0,0.0,0.0,0.0,0.0,0.0,0.0,0.0,0.0,0.0,0.0,0.0,0.0,0.0,0.0,0.0,0.0,0.0,0.0,0.0,0.0,0.0,0.0,0.0,0.0,0.0,0.0,0.0,0.0,0.0,0.0,0.0,0.0,0.0,0.0,0.0,0.0,0.0,0.0,0.0,0.0,0.0,0.0,0.0,0.0,0.0,0.0,0.0,0.0,0.0,0.0,0.0,0.0,0.0,0.0,0.0,0.0,0.0,0.0,0.0,0.0,0.0,0.0,3.6762,3.8164,3.9158,3.9837,3.9957,3.9347,3.801,3.7182,3.7182,3.611,0.0,0.0,0.0,0.0,0.0,0.0,0.0,0.0,0.0,0.0,0.0,0.0,0.0,0.0,0.0,0.0,0.0,0.0,0.0,0.0,0.0,0.0,0.0,0.0,0.0,0.0,0.0,0.0,0.0,0.0,0.0,0.0,0.0,0.0,0.0,0.0,0.0,0.0,0.0,0.0,0.0,0.0,0.0,0.0,0.0,0.0,0.0,0.0,0.0,0.0,0.0,0.0,0.0,0.0,0.0,0.0,0.0,0.0,0.0,0.0,0.0,0.0,0.0,0.0,0.0,0.0,0.0,0.0,0.0,0.0,0.0,0.0,0.0,0.0,0.0,0.0,0.0,0.0,0.0,0.0,0.0,0.0,0.0,0.0,0.0,0.0,0.0,0.0,0.0,0.0,0.0,0.0,0.0,0.0,0.0,0.0,0.0,0.0,0.0,0.0,0.0,0.0,3.7624,3.9213,4.0773,4.0328,3.9911,3.9856,3.8379,3.7463,3.7463,3.6921,0.0,0.0,0.0,0.0,0.0,0.0,0.0,0.0,0.0,0.0,0.0,0.0,0.0,0.0,0.0,0.0,0.0,0.0,0.0,0.0,0.0,0.0,0.0,0.0,0.0,0.0,0.0,0.0,0.0,0.0,0.0,0.0,0.0,0.0,0.0,0.0,0.0,0.0,0.0,0.0,0.0,0.0,0.0,0.0,0.0,0.0,0.0,0.0,0.0,0.0,0.0,0.0,0.0,0.0,0.0,0.0,0.0,0.0,0.0,0.0,0.0,0.0,0.0,0.0,0.0,0.0,0.0,0.0,0.0,0.0,0.0,0.0,0.0,0.0,0.0,0.0,0.0,0.0,0.0,0.0,0.0,0.0,0.0,0.0,0.0,0.0,0.0,0.0,0.0,0.0,0.0,0.0,0.0,0.0,0.0,0.0,0.0,0.0,0.0,0.0,0.0,0.0,3.8146,3.9882,0.0,4.1268,4.0983,3.9981,3.8872,3.8114,3.7776,0.0,0.0,0.0,0.0,0.0,0.0,0.0,0.0,0.0,0.0,0.0,0.0,0.0,0.0,0.0,0.0,0.0,0.0,0.0,0.0,0.0,0.0,0.0,0.0,0.0,0.0,0.0,0.0,0.0,0.0,0.0,0.0,0.0,0.0,0.0,0.0,0.0,0.0,0.0,0.0,0.0,0.0,0.0,0.0,0.0,0.0,0.0,0.0,0.0,0.0,0.0,0.0,0.0,0.0,0.0,0.0,0.0,0.0,0.0,0.0,0.0,0.0,0.0,0.0,0.0,0.0,0.0,0.0,0.0,0.0,0.0,0.0,0.0,0.0,0.0,0.0,0.0,0.0,0.0,0.0,0.0,0.0,0.0,0.0,0.0,0.0,0.0,0.0,0.0,0.0,0.0,0.0,0.0,0.0,0.0,0.0,0.0,0.0,0.0,0.0,0.0,0.0,3.6853,3.8946,4.0689,0.0,4.1892,4.147,4.0377,3.9305,3.853,3.8185,0.0,0.0,0.0,0.0,0.0,0.0,0.0,0.0,0.0,0.0,0.0,0.0,0.0,0.0,0.0,0.0,0.0,0.0,0.0,0.0,0.0,0.0,0.0,0.0,0.0,0.0,0.0,0.0,0.0,0.0,0.0,0.0,0.0,0.0,0.0,0.0,0.0,0.0,0.0,0.0,0.0,0.0,0.0,0.0,0.0,0.0,0.0,0.0,0.0,0.0,0.0,0.0,0.0,0.0,0.0,0.0,0.0,0.0,0.0,0.0,0.0,0.0,0.0,0.0,0.0,0.0,0.0,0.0,0.0,0.0,0.0,0.0,0.0,0.0,0.0,0.0,0.0,0.0,0.0,0.0,0.0,0.0,0.0,0.0,0.0,0.0,0.0,0.0,0.0,0.0,0.0,0.0,0.0,0.0,0.0,0.0,0.0,0.0,0.0,0.0,0.0,0.0,3.8487,4.0094,4.169,4.3304,4.2039,4.1095,4.1085,3.9635,3.8707,0.0,0.0,0.0,0.0,0.0,0.0,0.0,0.0,0.0,0.0,0.0,0.0,0.0,0.0,0.0,0.0,0.0,0.0,0.0,0.0,0.0,0.0,0.0,0.0,0.0,0.0,0.0,0.0,0.0,0.0,0.0,0.0,0.0,0.0,0.0,0.0,0.0,0.0,0.0,0.0,0.0,0.0,0.0,0.0,0.0,0.0,0.0,0.0,0.0,0.0,0.0,0.0,0.0,0.0,0.0,0.0,0.0,0.0,0.0,0.0,0.0,0.0,0.0,0.0,0.0,0.0,0.0,0.0,0.0,0.0,0.0,0.0,0.0,0.0,0.0,0.0,0.0,0.0,0.0,0.0,0.0,0.0,0.0,0.0,0.0,0.0,0.0,0.0,0.0,0.0,0.0,0.0,0.0,0.0,0.0,0.0,0.0,0.0,0.0,0.0,0.0,0.0,0.0,3.8487,3.9606,4.0873,4.2488,4.1727,4.0865,4.0304,3.9816,3.9294,3.8744,0.0,0.0,0.0,0.0,0.0,0.0,0.0,0.0,0.0,0.0,0.0,0.0,0.0,0.0,0.0,0.0,0.0,0.0,0.0,0.0,0.0,0.0,0.0,0.0,0.0,0.0,0.0,0.0,0.0,0.0,0.0,0.0,0.0,0.0,0.0,0.0,0.0,0.0,0.0,0.0,0.0,0.0,0.0,0.0,0.0,0.0,0.0,0.0,0.0,0.0,0.0,0.0,0.0,0.0,0.0,0.0,0.0,0.0,0.0,0.0,0.0,0.0,0.0,0.0,0.0,0.0,0.0,0.0,0.0,0.0,0.0,0.0,0.0,0.0,0.0,0.0,0.0,0.0,0.0,0.0,0.0,0.0,0.0,0.0,0.0,0.0,0.0,0.0,0.0,0.0,0.0,0.0,0.0,0.0,0.0,0.0,0.0,0.0,0.0,0.0,0.0,0.0,3.8927,3.9882,4.1001,4.2598,4.1764,4.0901,4.0414,3.979,3.9203,3.8718,0.0,0.0,0.0,0.0,0.0,0.0,0.0,0.0,0.0,0.0,0.0,0.0,0.0,0.0,0.0,0.0,0.0,0.0,0.0,0.0,0.0,0.0,0.0,0.0,0.0,0.0,0.0,0.0,0.0,0.0,0.0,0.0,0.0,0.0,0.0,0.0,0.0,0.0,0.0,0.0,0.0,0.0,0.0,0.0,0.0,0.0,0.0,0.0,0.0,0.0,0.0,0.0,0.0,0.0,0.0,0.0,0.0,0.0,0.0,0.0,0.0,0.0,0.0,0.0,0.0,0.0,0.0,0.0,0.0,0.0,0.0,0.0,0.0,0.0,0.0,0.0,0.0,0.0,0.0,0.0,0.0,0.0,0.0,0.0,0.0,0.0,0.0,0.0,0.0,0.0,0.0,0.0,0.0,0.0,0.0,0.0,0.0,0.0,0.0,0.0,0.0,0.0,3.9596,4.0534,4.1599,4.3212,4.2021,4.1095,4.1095,3.9764,3.892,3.892,0.0,0.0,0.0,0.0,0.0,0.0,0.0,0.0,0.0,0.0,0.0,0.0,0.0,0.0,0.0,0.0,0.0,0.0,0.0,0.0,0.0,0.0,0.0,0.0,0.0,0.0,0.0,0.0,0.0,0.0,0.0,0.0,0.0,0.0,0.0,0.0,0.0,0.0,0.0,0.0,0.0,0.0,0.0,0.0,0.0,0.0,0.0,0.0,0.0,0.0,0.0,0.0,0.0,0.0,0.0,0.0,0.0,0.0,0.0,0.0,3.736,0.0,0.0,0.0,0.0,0.0,0.0,0.0,0.0,0.0,0.0,0.0,0.0,0.0,0.0,0.0,0.0,0.0,0.0,0.0,0.0,0.0,0.0,0.0,0.0,0.0,0.0,0.0,0.0,0.0,0.0,0.0,0.0,0.0,0.0,0.0,0.0,0.0,0.0,0.0,0.0,0.0,3.9669,4.0055,4.0763,4.2378,4.1672,4.1095,4.1095,4.0791,4.0589,4.0589,3.9992,0.0,0.0,0.0,0.0,0.0,0.0,0.0,0.0,0.0,0.0,0.0,0.0,0.0,0.0,0.0,0.0,0.0,0.0,0.0,0.0,0.0,0.0,0.0,0.0,0.0,0.0,0.0,0.0,0.0,0.0,0.0,0.0,0.0,0.0,0.0,0.0,0.0,0.0,0.0,0.0,0.0,0.0,0.0,0.0,0.0,0.0,0.0,0.0,0.0,0.0,0.0,0.0,0.0,0.0,0.0,0.0,0.0,0.0,0.0,0.0,3.837,0.0,0.0,0.0,0.0,0.0,0.0,0.0,0.0,0.0,0.0,0.0,0.0,0.0,0.0,0.0,0.0,0.0,0.0,0.0,0.0,0.0,0.0,0.0,0.0,0.0,0.0,0.0,0.0,0.0,0.0,0.0,0.0,0.0,0.0,0.0,0.0,0.0,0.0,0.0,0.0,4.0267,4.0818,4.1515,4.2753,4.2158,4.1672,4.1672,4.1323,4.1095,4.1095,4.0718,0.0,0.0,0.0,0.0,0.0,0.0,0.0,0.0,0.0,0.0,0.0,0.0,0.0,0.0,0.0,0.0,0.0,0.0,0.0,0.0,0.0,0.0,0.0,0.0,0.0,0.0,0.0,0.0,0.0,0.0,0.0,0.0,0.0,0.0,0.0,0.0,0.0,0.0,0.0,0.0,0.0,0.0,0.0,0.0,0.0,0.0,0.0,0.0,0.0,0.0,0.0,0.0,0.0,4.2096,4.2694,4.2684,4.2403,4.2425,4.2574,4.0406,3.9786,4.0238,0.0,0.0,0.0,0.0,0.0,0.0,0.0,0.0,0.0,0.0,0.0,0.0,0.0,0.0,0.0,0.0,0.0,0.0,0.0,0.0,0.0,0.0,0.0,0.0,0.0,4.0102,3.9937,0.0,0.0,0.0,0.0,0.0,0.0,0.0,0.0,0.0,0.0,0.0,0.0,4.1103,4.1892,4.2598,4.3414,4.2919,4.2506,4.2506,4.1892,4.1525,4.1525,4.1397,4.1305,0.0,0.0,0.0,0.0,0.0,0.0,0.0,0.0,0.0,0.0,0.0,0.0,0.0,0.0,0.0,0.0,0.0,0.0,0.0,0.0,0.0,0.0,0.0,0.0,0.0,0.0,0.0,0.0,0.0,0.0,0.0,0.0,3.5287,3.4998,0.0,0.0,0.0,0.0,0.0,0.0,0.0,0.0,0.0,0.0,0.0,0.0,0.0,4.0171,4.1982,4.2216,4.2311,4.2335,4.2815,4.3024,4.3024,4.2994,4.2998,4.2996,4.2374,0.0,4.1135,4.0967,0.0,0.0,0.0,0.0,0.0,0.0,0.0,0.0,0.0,0.0,0.0,0.0,0.0,0.0,0.0,0.0,0.0,0.0,0.0,0.0,0.0,0.0,3.9937,4.0755,4.0938,4.092,0.0,4.0791,4.0589,3.989,0.0,0.0,0.0,0.0,0.0,0.0,0.0,0.0,4.1937,4.2231,4.2598,4.3414,4.3414,4.3341,4.3341,4.3231,4.3176,4.3176,4.2525,4.2139,4.2139,4.147,0.0,0.0,0.0,0.0,0.0,0.0,0.0,0.0,0.0,0.0,0.0,0.0,0.0,0.0,0.0,0.0,0.0,0.0,0.0,0.0,0.0,0.0,0.0,0.0,0.0,0.0,0.0,0.0,0.0,3.4983,3.5355,3.5693,3.5855,3.589,0.0,0.0,0.0,0.0,0.0,0.0,0.0,0.0,0.0,4.1831,4.1758,4.2524,4.4274,4.4772,4.5021,4.5021,4.5618,4.5913,4.5893,4.5447,4.5235,4.5192,4.4565,4.3794,4.2923,4.2096,4.1473,4.1036,0.0,0.0,0.0,0.0,4.0057,4.0057,4.0057,4.0057,0.0,0.0,0.0,0.0,0.0,0.0,0.0,0.0,0.0,0.0,0.0,0.0,0.0,4.158,4.1764,4.1892,4.2359,4.2451,4.2084,0.0,4.0571,4.0351,3.9643,0.0,0.0,0.0,0.0,4.1497,4.2213,4.269,4.3121,4.3451,4.3506,4.3506,4.3506,4.3506,4.3506,4.3506,4.3176,4.2974,4.2974,4.2635,4.2451,0.0,0.0,0.0,0.0,0.0,0.0,0.0,0.0,0.0,0.0,0.0,0.0,0.0,0.0,0.0,0.0,0.0,0.0,0.0,0.0,0.0,0.0,0.0,0.0,0.0,0.0,0.0,0.0,3.5555,3.6112,3.6549,3.6971,3.7129,0.0,0.0,0.0,0.0,0.0,0.0,4.0459,4.0817,4.1887,4.3888,4.4253,4.5129,4.6567,4.7221,4.7543,4.7543,4.7928,4.8101,4.8082,4.7485,4.7216,4.7178,4.6509,4.5819,4.4973,4.3256,4.2515,4.2403,4.1833,4.1696,4.1771,4.128,4.1095,4.1095,4.1095,4.1095,4.1048,4.0634,0.0,4.0359,3.957,0.0,0.0,0.0,0.0,4.115,4.136,4.1415,4.1617,4.2415,4.2763,4.302,4.3414,4.3653,4.3332,0.0,4.1415,4.1342,4.114,0.0,0.0,0.0,0.0,4.2378,4.258,4.3139,4.3506,4.3506,4.3506,4.3506,4.3506,4.3506,4.3506,4.3506,4.3506,4.3506,4.3506,4.3506,4.3506,4.3506,0.0,0.0,0.0,0.0,0.0,0.0,0.0,0.0,0.0,0.0,0.0,0.0,0.0,0.0,0.0,0.0,0.0,0.0,0.0,0.0,0.0,0.0,0.0,0.0,0.0,0.0,0.0,0.0,0.0,3.7529,3.8788,0.0,0.0,0.0,0.0,3.978,4.1185,4.2084,4.2176,4.3277,4.4429,4.5643,4.6849,4.8044,4.9202,4.924,4.926,4.926,4.849,4.8101,4.8101,4.8062,4.8043,4.8043,4.7985,4.772,4.7144,4.472,4.3081,4.2096,4.1735,4.1415,4.116,4.112,4.1095,4.1095,4.1095,4.1095,4.1232,4.1929,4.2176,4.2029,4.1232,4.1012,0.0,0.0,4.1058,4.1287,4.2047,4.2249,4.2433,4.3249,4.4011,4.437,4.3653,4.4103,4.4168,0.0,4.2249,4.2002,4.1232,0.0,4.136,4.2121,4.2268,4.258,4.3341,4.3469,4.3506,4.3506,4.3506,4.3506,4.3506,4.3506,4.3506,4.3506,4.3506,4.3506,4.3506,4.3506,4.3506,4.3506,4.3506,0.0,0.0,0.0,0.0,0.0,0.0,0.0,0.0,0.0,0.0,0.0,0.0,0.0,0.0,0.0,0.0,0.0,0.0,0.0,0.0,0.0,0.0,0.0,0.0,0.0,0.0,0.0,0.0,4.0487,4.1093,0.0,4.178,4.1579,4.1864,4.291,4.3755,4.4332,4.4598,4.6055,4.729,4.8213,4.9429,5.0653,5.1832,5.1856,5.1856,5.1837,5.0966,5.0543,5.0505,4.9433,4.8933,4.8913,4.8336,4.803,4.7811,4.671,4.5846,4.5223,4.4845,4.4618,4.4484,4.4262,4.3856,4.3489,4.4011,4.3856,4.347,4.3746,4.314,4.2249,4.1966,4.2231,4.2635,4.2635,4.302,4.3599,4.4415,4.4617,4.469,4.4984,4.5259,4.5388,4.5121,4.5259,4.5296,4.4727,4.3781,4.2992,4.269,4.3067,4.3507,4.3801,4.4287,4.4709,4.5002,4.4599,4.4268,4.4268,4.3818,4.3506,4.3506,4.3506,4.3506,4.3506,4.3506,4.3506,4.3506,4.3506,4.3506,4.3506,4.3506,4.3506,0.0,0.0,0.0,0.0,0.0,0.0,0.0,0.0,0.0,0.0,0.0,0.0,0.0,0.0,0.0,0.0,0.0,0.0,0.0,0.0,0.0,0.0,0.0,0.0,0.0,0.0,4.1505,4.258,4.3185,4.3718,4.4259,4.4066,4.454,4.6031,4.6651,4.7129,4.7527,4.899,5.0052,5.0589,5.1801,5.2825,5.3621,5.3645,5.3645,5.3626,5.2755,5.2332,5.2294,5.1183,5.0683,5.0644,5.0067,4.9744,4.959,4.9383,4.8807,4.7965,4.6861,4.6432,4.6392,4.6035,4.5571,4.5177,4.5718,4.5553,4.5104,4.5104,4.4378,4.3516,4.3516,4.3892,4.4314,4.4314,4.469,4.5232,4.5755,4.5902,4.5902,4.5902,4.6104,4.6232,4.5957,4.6104,4.6223,4.5957,4.5039,4.4314,4.4314,4.4745,4.5104,4.5104,4.5571,4.5902,4.5902,4.5424,4.5104,4.5104,4.4378,4.3901,4.3901,4.3653,4.3506,4.3506,4.3506,4.3506,4.3506,4.3506,4.3506,4.3506,4.3506,4.3506,4.3506,0.0,0.0,0.0,0.0,0.0,0.0,0.0,0.0,0.0,0.0,0.0,0.0,0.0,0.0,0.0,0.0,0.0,0.0,0.0,0.0,0.0,0.0,0.0,4.0055,4.2111,4.3635,4.3671,4.5066,4.603,4.6049,4.6755,4.772,4.8986,4.9811,5.044,5.0826,5.2022,5.2672,5.2641,5.3889,5.4549,5.453,5.453,5.453,5.453,5.3664,5.3236,5.3236,5.3217,5.3197,5.3197,5.3197,5.2976,5.2621,5.2621,5.1701,5.0052,4.7577,4.6611,4.6555,4.6127,4.5975,4.5975,4.5957,4.5938,4.5938,4.5975,4.5957,4.5938,4.5938,4.5938,4.5938,4.5938,4.5938,4.5938,4.5975,4.5993,4.6012,4.6012,4.6627,4.7012,4.6195,4.6645,4.6975,4.6177,4.603,4.6012,4.592,4.592,4.5938,4.5938,4.5957,0.0,4.5975,4.5957,4.5938,4.5938,4.5223,4.4737,4.47,4.3993,4.3524,4.3506,4.3506,4.3506,4.3506,4.3506,4.3506,4.3506,4.3506,4.3506,4.3506,0.0,0.0,0.0,0.0,0.0,0.0,0.0,0.0,0.0,0.0,0.0,0.0,0.0,0.0,0.0,0.0,0.0,0.0,0.0,0.0,0.0,0.0,4.2717,4.3296,4.4957,4.6535,4.771,4.8279,4.8811,4.9407,4.939,4.9724,5.0674,5.1488,5.1869,5.1691,5.369,5.4445,5.3563,5.5334,5.6016,5.5381,5.5381,5.5381,5.5362,5.453,5.4145,5.4126,5.3491,5.3197,5.3197,5.3197,5.3142,5.3034,5.3034,5.2767,5.2164,5.0012,4.8995,4.8661,4.7904,4.7645,4.7572,4.6975,4.6773,4.6865,4.7452,4.725,4.6773,4.6773,4.6773,4.6773,4.6773,4.6773,4.6902,4.7489,4.8104,4.8573,4.8573,4.9205,4.9572,4.8756,4.9205,4.9536,4.8738,4.904,4.871,4.6305,4.637,4.6773,4.6773,4.7269,0.0,4.7645,4.7122,4.6773,4.6773,4.6039,4.5333,4.4755,4.4498,4.4121,4.3543,4.3506,4.3506,4.3506,4.3506,4.3506,4.3506,4.3506,4.3506,0.0,0.0,0.0,0.0,0.0,0.0,0.0,0.0,0.0,0.0,0.0,0.0,0.0,0.0,0.0,0.0,0.0,0.0,0.0,0.0,0.0,0.0,4.3966,4.5645,4.7498,4.7672,4.8205,4.9848,5.039,5.1004,5.2004,5.1862,5.2331,5.3876,5.3791,5.3931,5.4597,5.5305,5.5561,5.5221,5.6011,5.6209,5.5708,5.5708,5.5708,5.5689,5.5228,5.4991,5.4991,5.4472,5.4241,0.0,5.4241,5.4241,5.4241,5.4241,5.3942,0.0,0.0,0.0,0.0,0.0,4.9342,4.9279,4.881,4.8425,4.8214,4.8691,4.8526,4.8086,4.7709,4.7856,4.8067,4.7709,4.7874,4.8251,4.8728,4.9472,5.0096,5.0096,5.0453,5.0674,5.0206,5.0472,5.0655,5.0188,0.0,0.0,4.8288,4.8067,4.8269,4.8608,4.8765,4.8967,4.9287,4.8939,4.8517,4.8177,4.7407,4.6434,4.5296,4.4883,0.0,0.0,0.0,4.3506,4.3506,4.3506,0.0,0.0,0.0,4.3506,4.3506,0.0,0.0,0.0,4.3506,4.369,0.0,0.0,0.0,0.0,0.0,0.0,0.0,0.0,0.0,0.0,0.0,0.0,0.0,0.0,0.0,0.0,4.6443,4.8677,5.1777,5.0387,4.9622,5.1161,5.2063,5.2986,5.4075,5.4213,5.516,5.7437,5.6184,5.6186,5.8187,0.0,0.0,0.0,0.0,5.5805,5.5708,5.5805,5.5843,5.5843,5.5958,5.5997,5.5997,5.5901,5.5843,5.5843,5.5747,5.5708,5.5708,5.5708,5.5065,5.4002,5.3035,5.2375,5.1866,5.124,5.0926,5.0802,5.0802,0.0,0.0,4.9629,4.961,4.9435,4.8563,4.8838,4.9288,4.8526,4.894,4.961,4.961,5.0261,5.0949,5.0949,5.1004,5.1059,5.0949,5.1004,5.1041,5.0949,5.1022,5.1077,5.1077,5.0335,4.9986,5.0692,5.0188,4.9986,5.071,5.0802,5.049,4.9692,0.0,0.0,4.6177,4.5379,4.4626,4.3818,4.369,4.3598,4.3506,4.3506,4.3506,4.3506,4.3506,4.3506,4.3506,4.3598,4.3635,4.3635,4.3543,4.392,0.0,0.0,0.0,0.0,0.0,0.0,0.0,0.0,0.0,0.0,0.0,0.0,0.0,0.0,0.0,4.6342,4.8881,5.1312,5.3256,5.3684,5.4022,5.4592,5.5472,5.5988,5.5846,5.6463,5.7063,5.7555,5.6995,5.7128,5.8236,5.7305,5.6824,5.6983,5.6843,5.6401,5.5708,5.6401,5.6747,5.6766,0.0,0.0,5.778,5.7074,5.6747,5.6709,5.6016,5.5708,5.5708,5.5708,5.5561,5.5197,5.3679,5.2443,5.1588,5.2065,5.1646,5.0802,5.0802,5.071,5.0453,4.9802,4.961,4.9435,4.8563,4.8406,0.0,4.8361,4.894,4.961,4.961,5.0684,5.1767,5.1767,5.227,5.2553,5.1903,5.2289,5.2535,5.1885,5.2289,5.2737,5.2737,5.1536,5.0618,5.0784,5.0674,5.0618,5.0784,5.0802,5.049,4.9692,4.9445,4.8683,4.7012,4.6727,4.6296,4.548,4.4837,4.4176,4.3524,4.3506,4.3506,4.3506,4.3506,4.3506,4.3506,4.4158,4.4461,4.4443,4.3791,4.392,0.0,0.0,0.0,0.0,0.0,0.0,0.0,0.0,0.0,0.0,0.0,4.3432,0.0,0.0,4.7105,4.8956,5.1183,5.3334,5.5146,5.6336,5.6819,5.636,5.6855,5.7344,5.7584,5.7966,5.8299,5.8534,5.7983,5.8011,5.8858,5.769,5.7209,5.7646,5.6805,5.6132,5.5708,5.6555,5.7003,5.7003,5.7877,5.8294,5.828,5.7401,5.7003,5.6945,5.6074,5.5708,5.5708,5.5708,5.5708,5.5624,5.4778,5.3836,5.2963,5.3131,5.2694,5.2003,5.2003,5.1738,5.1334,5.0922,5.0794,5.0647,4.9811,4.9829,5.0068,4.9664,5.0141,5.0794,5.0794,5.1712,5.2601,5.2601,5.2902,5.3086,5.2692,5.292,5.3086,5.2674,5.292,5.3196,5.3196,5.2535,5.2003,5.2003,5.1665,5.1555,5.1948,5.2003,5.1683,5.0886,5.0794,4.9958,4.7874,4.6957,4.6333,4.592,4.5516,4.5131,4.4718,4.4305,4.4287,4.4699,4.4305,4.4305,4.4699,4.5094,4.5296,4.5287,4.4892,4.5131,0.0,0.0,0.0,0.0,0.0,0.0,0.0,4.2485,4.3085,4.4768,4.5498,4.6214,4.7462,4.869,5.0129,5.1972,5.3719,5.5438,5.7057,5.8338,5.8794,5.7848,5.7987,5.84,5.9064,5.9163,5.928,5.9469,5.8896,5.8813,5.9473,5.8074,5.7574,5.828,5.6761,5.5958,5.5958,5.6824,5.7324,5.7497,5.8377,5.88,5.8742,5.7728,5.7343,5.742,5.6401,5.5862,5.5708,5.5708,5.5708,5.5708,5.5708,5.5263,5.4555,5.4109,5.3673,5.3305,5.3238,5.2784,5.2197,5.206,5.2005,5.1858,5.1041,5.1242,5.1628,5.0986,5.1371,5.2005,5.2005,5.2601,5.3196,5.3196,5.3196,5.3196,5.3196,5.3196,5.3196,5.3196,5.3196,5.3196,5.3196,5.3196,5.3196,5.3196,5.2656,5.2472,5.3122,5.3196,5.2884,5.2097,5.2005,5.1143,4.8957,4.7443,4.6544,4.6379,4.6214,4.6067,4.5902,4.5278,4.5232,4.5883,4.525,4.5259,4.5902,4.6067,4.614,4.614,4.6287,4.6627,4.0594,4.0966,4.1621,4.2411,4.3007,4.4135,0.0,4.7446,4.7736,4.9117,5.0053,5.09,5.1764,5.2996,5.4215,5.5152,5.7009,5.843,5.8637,5.9428,6.0071,6.0347,6.0398,6.0303,6.0006,6.0348,6.0284,5.9544,5.9415,5.9415,5.9492,5.8646,5.8198,5.8294,5.7363,5.6843,5.6843,5.7723,5.8511,5.9223,6.0108,6.0512,6.0473,5.8877,5.855,5.9127,5.7536,5.642,5.5708,5.5708,5.5708,5.5708,5.5708,5.5423,5.4986,5.4571,5.4118,5.3673,5.3308,5.3141,5.2939,5.2234,5.2005,5.1858,5.1041,5.0857,5.093,5.0839,5.1371,5.2005,5.2005,5.2601,5.3196,5.3196,5.3196,5.3196,5.3196,5.3196,5.3196,5.3196,5.3196,5.3196,5.3196,5.3196,5.3196,5.3196,5.3122,5.3104,5.3196,5.3196,5.2884,5.2097,5.2005,5.1601,5.06,4.9692,4.8866,4.8086,4.7361,4.6645,4.592,4.581,4.581,4.5902,4.581,4.581,4.5902,4.6627,4.6966,4.6984,4.7691,4.7691,4.2889,4.268,4.2772,4.4031,4.5186,4.6477,4.8281,4.9174,5.0043,5.1587,5.2783,5.3817,5.4657,5.5457,5.6192,0.0,5.7999,5.8988,5.9217,5.999,6.038,6.0071,6.0031,6.017,6.0476,6.0684,6.0441,5.9569,5.9492,5.9492,5.9492,5.8261,5.778,5.8275,5.7459,5.7003,5.7003,5.8338,5.9165,5.9511,6.0377,6.0806,6.0768,5.955,5.8646,5.7978,5.6766,5.6035,5.5708,5.5708,5.5708,5.5708,5.5708,5.5594,5.5405,5.5,5.4586,5.4178,5.4015,5.3961,5.3869,5.3245,5.3056,5.2942,5.2363,5.2205,5.2205,5.2205,5.2435,5.2711,5.2711,5.2939,5.3196,5.3196,5.3196,5.3196,5.3196,5.3196,5.3196,5.3196,5.3196,5.3196,5.3196,5.3196,5.3196,5.3196,5.3196,5.3196,5.3196,5.3196,5.3067,5.2719,5.227,5.1858,5.1518,5.0335,4.9435,4.9087,4.8269,4.7654,4.7315,4.6847,4.681,4.7297,4.6828,4.6828,4.7297,4.7636,4.7801,4.7819,4.8131,4.8113,4.37,4.365,4.3909,4.5615,4.744,4.9124,5.0344,5.1554,5.2842,5.4318,5.5529,5.6505,5.7143,5.7684,5.8131,5.8441,5.9017,5.953,5.9829,6.0204,6.0204,5.9588,5.93,5.9415,6.005,6.03,6.0185,5.955,5.9723,5.9742,5.9511,5.8575,5.8228,5.8627,5.8017,5.769,5.769,5.8896,5.9627,5.9877,6.0498,6.0806,6.0762,5.9896,5.8454,5.6613,5.6228,5.592,5.5708,5.5708,5.5708,5.5708,5.5708,5.5708,5.5662,5.5362,5.5007,5.464,5.4543,5.4503,5.4436,5.4101,5.3986,5.3915,5.3494,5.3369,5.3339,5.3238,5.3196,5.3196,5.3196,5.3196,5.3196,5.3196,5.3196,5.3196,5.3196,5.3196,5.3196,5.3196,5.3196,5.3196,5.3196,5.3196,5.3196,5.3196,5.3196,5.3196,5.3196,5.3196,5.3196,5.3196,5.2674,5.2325,5.2325,5.0867,4.9931,4.9931,4.8893,4.8296,4.8296,4.7746,4.7709,4.8296,4.7728,4.7728,4.8296,4.8296,4.8296,4.8296,4.8296,4.8296,4.1556,4.282,4.4581,4.7023,4.9771,5.2392,5.4449,5.5896,5.7055,5.7953,5.8788,5.9365,5.9398,6.011,6.0686,6.0692,6.0731,6.0756,6.0762,6.0069,5.9531,5.9492,5.8813,5.8352,0.0,5.9088,5.9531,5.9492,6.0281,6.0396,5.955,6.0242,6.03,5.9492,5.9435,5.9415,5.9415,5.9473,5.9915,6.0768,6.0787,6.0806,6.0762,5.9896,5.8127,5.5785,5.6613,5.6478,5.5708,5.5708,5.5708,5.5708,5.5708,5.5708,5.5703,5.5698,5.5423,5.5021,5.4644,5.4503,5.4503,5.4487,5.4487,5.4387,5.3914,5.3777,5.3692,5.3305,5.3196,5.3196,5.3196,5.3196,5.3196,5.3196,5.3196,5.3196,5.3196,5.3196,5.3196,5.3196,5.3196,5.3196,5.3196,5.3196,5.3196,5.3196,5.3196,5.3196,5.3196,5.3196,5.3196,5.3196,5.3177,5.3159,5.3159,5.1691,5.0765,5.0765,4.9214,4.8296,4.8296,4.8278,4.8278,4.8296,4.8278,4.8278,4.8296,4.8296,4.8296,4.8296,4.8296,4.8296,4.351,4.5193,4.7175,5.0199,5.2509,5.4533,5.6344,5.7742,5.8742,5.905,5.8434,5.7844,5.7844,5.7613,5.7613,5.8171,5.9209,5.9935,5.9935,5.9685,5.9088,5.7978,5.7594,0.0,0.0,0.0,0.0,5.9454,5.9281,5.9492,6.0319,5.9036,5.8652,5.9473,5.8973,5.8954,5.9492,6.0069,6.0512,6.0787,6.0204,5.9935,5.9896,5.8478,5.7363,5.6555,5.6266,5.5978,5.5708,5.5708,5.5708,5.5708,5.5708,5.5708,5.5708,5.5708,5.5605,5.5483,5.5337,5.53,5.5244,5.4986,5.4902,5.4812,5.4396,5.4048,5.3768,5.3634,5.3402,5.3196,5.3196,5.3196,5.3196,5.3196,5.3196,5.3196,5.3196,5.3196,5.3196,5.3196,5.3196,5.3196,5.3196,5.3196,5.3196,5.3196,5.3196,5.3196,5.3196,5.3196,5.3196,5.3196,5.3196,5.3196,5.3196,5.2215,5.1371,5.0839,4.9774,4.8893,4.8315,4.8296,4.8296,4.8296,4.8296,4.8296,4.8296,4.8296,4.8296,4.8296,4.8296,4.8296,4.5146,4.6877,4.8637,5.163,5.3867,5.5681,5.7061,5.8253,5.9146,5.9435,5.7915,5.6536,5.6536,5.5593,5.4991,5.5555,5.6549,5.7569,5.8473,5.8088,5.7646,5.7478,5.719,5.6887,0.0,0.0,0.0,5.9011,5.8858,5.9204,6.0281,5.9075,5.8844,5.9935,5.9454,5.9435,5.9954,6.0512,6.0646,6.0319,5.9473,5.8915,5.8575,5.7497,5.6824,5.6497,5.5939,5.5708,5.5708,5.5708,5.5708,5.5708,5.5708,5.5708,5.5708,5.5708,5.5708,5.5708,5.5708,5.5708,5.5657,5.5399,5.5313,5.5231,5.4845,5.4497,5.4226,5.4092,5.3749,5.3444,5.3613,5.3543,5.3412,5.3412,5.3412,5.338,5.3238,5.3196,5.3196,5.3196,5.3196,5.3196,5.3196,5.3196,5.3196,5.3196,5.3196,5.3196,5.3196,5.3196,5.3196,5.3196,5.3196,5.3196,5.3196,5.2454,5.1665,5.0857,5.0041,4.9215,4.8333,4.8296,4.8296,4.8296,4.8296,4.8296,4.8296,4.8296,4.8296,4.8296,4.8296,4.8296,4.637,4.7838,4.9077,5.151,5.3926,5.5932,5.6806,5.7673,5.8486,5.9165,5.728,5.5478,5.5401,5.4107,5.3082,5.3121,5.3313,5.4318,5.6728,5.5728,5.5645,0.0,0.0,0.0,0.0,0.0,0.0,5.8236,0.0,5.9473,5.9569,6.03,6.0748,6.0806,6.0768,6.0748,6.0806,6.0768,6.0319,5.9492,5.8646,5.78,5.7003,5.6945,5.6478,5.5708,5.5708,5.5708,5.5708,5.5708,5.5708,5.5708,5.5708,5.5708,5.5708,5.5708,5.5708,5.5708,5.5708,5.5708,5.5708,5.5708,5.5708,5.5635,5.5256,5.5127,5.5021,5.4651,5.4196,5.3932,5.4379,5.417,5.3842,5.3842,5.3842,5.372,5.3326,5.3238,5.3227,5.3196,5.3196,5.3196,5.3196,5.3196,5.3196,5.3196,5.3196,5.3196,5.3196,5.3196,5.3196,5.3196,5.3196,5.3196,5.3196,5.2509,5.1712,5.0857,5.0078,4.9252,4.8333,4.8296,4.8296,4.8296,4.8296,4.8296,4.8296,4.8296,4.8296,4.8296,4.8296,4.8296,4.8343,4.9939,5.1499,5.3335,5.4755,5.5923,5.6737,5.7645,5.7992,5.6896,5.4645,5.2486,5.1241,5.1188,5.1529,5.214,5.4909,0.0,5.7877,5.8127,0.0,5.8294,5.8107,5.7877,5.7665,5.7838,0.0,0.0,5.8486,5.9146,6.0396,6.0069,6.0127,6.0787,6.0165,6.0146,6.0787,6.0165,5.9723,5.9473,5.8036,5.7228,5.6983,5.6324,5.592,5.5708,5.5708,5.5708,5.5708,5.5708,5.5708,5.5708,5.5708,5.5708,5.5708,5.5708,5.5708,5.5708,5.5708,5.5708,5.5708,5.5708,5.5708,5.5673,5.5577,5.5331,5.5068,5.4979,5.4648,5.4346,5.4471,5.4404,5.4313,5.4313,5.4313,5.4196,5.3739,5.3653,5.3564,5.3261,5.3196,5.3196,5.3196,5.3196,5.3196,5.3196,5.3196,5.3196,5.3196,5.3196,5.3196,5.3196,5.3196,5.3196,5.3196,5.3012,5.2278,5.0894,5.0618,4.9829,4.8351,4.8296,4.8296,4.8296,4.8296,4.8296,4.8296,4.8296,4.8296,4.8296,4.8296,4.8296,5.005,5.1289,5.2289,5.3555,5.437,5.4931,5.5211,5.5543,5.5464,5.4273,5.2005,4.9947,4.9009,4.8933,4.9298,5.0101,5.2563,5.5049,5.6896,5.7242,5.7684,5.8698,5.8833,0.0,5.8333,5.8627,5.8833,0.0,5.8833,5.9242,6.0185,6.0127,6.0281,6.0787,6.0319,6.0127,6.0223,5.9396,5.8781,5.8396,5.7055,5.642,5.6401,5.592,5.5708,5.5708,0.0,5.5708,5.5708,5.5708,5.5708,5.5708,5.5708,5.5708,5.5708,5.5708,5.5708,5.5708,5.5708,5.5708,5.5708,5.5708,5.5708,5.5708,5.5708,5.5535,5.5356,5.5356,5.5068,5.4797,5.4979,5.4902,5.4753,5.4753,5.4753,5.464,5.4204,5.396,5.3673,5.3282,5.3196,5.3196,5.3196,5.3196,5.3196,5.3196,5.3196,5.3196,5.3196,5.3196,5.3196,5.3196,5.3196,5.3196,5.3196,5.3196,5.2664,5.1408,5.1004,5.0215,4.8912,4.8875,4.8691,4.8315,4.8673,4.8673,4.8296,4.8296,4.8296,4.8296,4.8296,4.8296,5.1555,5.216,5.2325,5.3031,5.3421,5.3532,5.3123,5.272,5.2226,5.154,4.9639,4.8024,4.7817,4.737,4.7351,4.8298,4.9356,5.1471,5.5472,5.553,5.628,5.9319,5.9665,5.9396,5.8704,5.9261,5.9665,5.9665,5.9665,5.9665,5.9665,6.0396,6.0806,6.0806,6.0806,6.0377,5.9511,5.8698,5.7857,5.6983,5.6112,5.5708,5.5708,5.5708,5.5708,5.5708,0.0,0.0,5.5708,5.5708,5.5708,5.5708,5.5708,5.5708,5.5708,5.5708,5.5708,5.5708,5.5708,5.5708,5.5708,5.5708,5.5708,5.5708,5.5708,5.5708,5.5708,5.5708,5.5441,5.5269,5.5605,5.5435,5.518,5.518,5.518,5.5061,5.4682,5.4221,5.3777,5.3359,5.3293,5.3261,5.3206,5.3196,5.3196,5.3196,5.3196,5.3196,5.3196,5.3196,5.3196,5.3196,5.3196,5.3196,5.3196,5.3196,5.2847,5.206,5.1353,5.06,4.9784,4.9747,4.9399,4.8655,4.927,4.9233,4.8471,4.8351,4.8296,4.8296,4.8296,4.8296,5.2682,5.2994,5.3031,5.3177,5.2987,5.2691,5.2239,5.1804,5.1003,4.9144,4.8409,4.7682,4.6283,4.7048,4.8413,4.9995,5.215,5.4607,5.7453,5.83,5.9127,6.0416,6.0569,6.0512,6.0377,6.0492,0.0,0.0,0.0,6.0569,6.0569,6.0723,6.0806,6.0806,6.0806,6.0377,5.9511,5.8698,5.7857,5.6983,5.6112,5.5708,5.5708,5.5708,5.5708,5.5708,5.5708,0.0,5.5708,5.5708,5.5708,5.5708,5.5708,5.5708,5.5708,5.5708,5.5708,5.5708,5.5708,5.5708,5.5708,5.5708,5.5708,5.5708,5.5708,5.5708,5.5708,5.5708,5.5651,5.5605,5.5673,5.5651,5.5594,5.5594,5.5594,5.5489,5.5075,5.4671,5.4238,5.3777,5.3692,5.3595,5.3261,5.3196,5.3196,5.3196,5.3196,5.3196,5.3196,5.3196,5.3196,5.3196,5.3196,5.3196,5.3196,5.3196,5.2847,5.206,5.1877,5.1426,5.0618,5.0582,5.0527,5.038,4.9858,4.9537,4.9362,4.8655,4.8296,4.8296,4.8296,4.8296,5.2976,5.3196,5.3104,5.2674,5.2125,5.1371,5.0235,4.949,4.8637,4.7103,4.6797,4.6552,4.5744,4.6624,4.7889,4.9144,5.0741,5.3029,5.6472,5.728,5.8338,6.0531,6.0806,6.0806,6.0806,6.0806,6.0806,0.0,0.0,6.0806,6.0806,6.0806,6.0806,6.0806,6.0806,6.0185,5.8896,5.8486,5.7627,5.6324,5.5901,5.5708,5.5708,5.5708,5.5708,5.5708,5.5708,0.0,5.5708,5.5708,5.5708,5.5708,5.5708,5.5708,5.5708,5.5708,5.5439,5.5151,5.5555,5.5439,5.5151,5.5555,5.5708,5.5708,5.5708,5.5708,5.5708,5.5708,5.5708,5.5708,5.5708,5.5708,5.5708,5.5708,5.5708,5.5588,5.5186,5.4952,5.4686,5.4255,5.3959,5.3749,5.3554,5.3347,5.3196,5.3196,5.3196,5.3196,5.3196,5.3196,5.3196,5.3196,5.3196,5.3196,5.3196,5.3196,5.3031,5.2656,5.2234,5.184,5.1444,5.1022,5.06,5.0188,4.9802,4.938,4.8921,4.8508,4.8296,4.8296,4.8296,4.8402,5.2766,5.3067,5.3012,5.2207,5.1323,5.0213,4.8566,4.749,4.6619,4.5764,4.5594,4.5594,4.5594,4.6163,4.6947,4.7947,4.8663,5.0606,5.4843,5.5593,5.6901,6.0146,6.0691,0.0,6.0806,6.0806,0.0,0.0,0.0,0.0,6.0806,6.0806,6.0806,6.0806,6.0806,5.9992,5.8313,5.8467,5.7607,5.5708,5.5882,5.5882,5.5708,5.5708,5.5708,5.5708,5.5708,0.0,0.0,5.5708,5.5593,5.5439,5.5439,5.5439,5.542,5.5222,5.4876,5.4587,5.5228,5.503,5.4626,5.5439,5.5708,5.5708,5.5708,5.5708,5.5708,5.5708,5.5708,5.5708,5.5708,5.5708,5.5708,5.5708,5.5708,5.5605,5.53,5.5224,5.5121,5.472,5.4328,5.4012,5.3823,5.3545,5.3295,5.3217,5.3196,5.3196,5.3196,5.3196,5.3196,5.3196,5.3196,5.3196,5.3196,5.3196,5.3196,5.3196,5.2619,5.2252,5.2252,5.1646,5.0949,5.0133,5.0106,4.9619,4.8581,4.8581,4.8489,4.8306,4.8392,4.8604,5.2097,5.2637,5.3012,5.2207,5.108,4.9821,4.8495,4.7251,4.623,4.5705,4.5594,4.5594,4.5594,4.5667,4.6244,4.7832,4.8159,4.9721,5.401,5.5247,5.6684,5.9319,0.0,0.0,6.0806,6.0806,0.0,0.0,0.0,0.0,6.0806,6.0806,6.0806,6.0806,6.0806,5.9992,5.8313,5.9031,5.8146,5.5708,5.6497,5.6478,5.5708,5.5708,5.5708,5.5708,5.5708,0.0,0.0,5.5708,5.5266,5.4607,5.4607,5.4607,5.4511,5.3722,5.3876,5.4511,5.4587,5.4549,5.4626,5.5439,5.5708,5.5708,5.5708,5.5708,5.5708,5.5708,5.5708,5.5708,5.5708,5.5708,5.5708,5.5708,5.5708,5.5698,5.5651,5.5646,5.5537,5.5108,5.5014,5.4727,5.3941,5.3768,5.3615,5.3251,5.3196,5.3196,5.3196,5.3196,5.3196,5.3196,5.3196,5.3196,5.3196,5.3196,5.3196,5.3196,5.3122,5.3086,5.3086,5.3012,5.2601,5.1803,5.1785,5.1014,4.9482,4.9482,4.9068,4.8306,4.8675,4.8863,5.1601,5.2234,5.2289,5.1481,4.9963,4.8443,4.7667,4.6481,4.5573,4.5599,4.5594,4.5594,4.5594,4.5594,4.5821,4.6494,4.661,4.7725,5.0971,5.1702,5.3419,5.7517,5.8305,0.0,0.0,0.0,0.0,0.0,0.0,0.0,6.0806,6.0806,6.0806,6.0806,6.0806,5.9992,5.8313,5.8627,5.7742,5.5708,5.6055,5.6035,5.5708,5.5708,5.5708,5.5708,5.5708,0.0,0.0,5.5708,5.5228,5.4491,5.4491,5.4184,5.3683,5.3332,5.3082,5.3082,5.4145,5.4164,5.3933,5.5266,5.5708,5.5708,5.5708,5.5708,5.5708,5.5708,5.5708,5.5708,5.5708,5.5708,5.5708,5.5708,5.5708,5.5708,5.5708,5.5708,5.5651,5.5495,5.5275,5.5,5.4652,5.4151,5.3758,5.3585,5.3359,5.3196,5.3196,5.3196,5.3196,5.3196,5.3196,5.3196,5.3196,5.3196,5.3196,5.3196,5.3196,5.3196,5.3196,5.2719,5.2325,5.2005,5.1518,5.072,4.961,4.961,4.9277,4.8666,4.8839,4.9163,5.0086,5.1096,5.1389,5.0325,4.8944,4.7651,4.6826,4.5915,4.5317,4.5559,4.5594,4.5594,4.5594,4.5594,4.5594,4.5594,4.5594,4.6398,4.8682,4.924,5.0914,5.5016,0.0,5.6882,0.0,6.0364,0.0,0.0,0.0,0.0,0.0,6.0666,6.0691,6.0416,6.0416,5.9608,5.7934,5.8165,5.7434,5.5708,5.5958,5.5958,5.5708,5.5708,5.5708,5.5708,0.0,0.0,0.0,5.5439,5.4857,5.4087,5.3837,5.3351,5.2813,5.2813,5.2428,5.2115,5.3606,5.3703,5.3428,5.4876,5.5516,5.5708,5.5708,5.5708,5.5708,5.5708,5.5708,5.5708,5.5708,5.5708,5.5708,5.5708,5.5708,5.5708,5.5708,5.5708,5.5708,5.5708,5.5477,5.5231,5.5127,5.4579,5.4099,5.3851,5.3556,5.3328,5.3217,5.3196,5.3196,5.3196,5.3196,5.3196,5.3196,5.3196,5.3196,5.3196,5.3196,5.3196,5.3196,5.2656,5.2234,5.2005,5.1683,5.1004,4.9968,5.0188,4.9953,4.9269,4.9384,4.9671,4.7149,4.8939,5.0417,4.8737,4.8252,4.777,4.618,4.5707,4.5609,4.559,4.5594,4.5594,4.5594,4.5594,4.5594,4.5594,4.5594,4.6186,4.7875,4.8856,5.0048,0.0,0.0,5.4241,5.6786,0.0,0.0,0.0,0.0,0.0,0.0,6.0319,6.0396,5.955,5.9511,5.8704,5.7036,5.7877,5.7434,5.5708,5.6574,5.6536,5.5708,5.5708,5.5708,0.0,0.0,0.0,0.0,5.4838,5.3991,5.3121,5.2255,5.1923,5.1904,5.1904,5.1904,5.2019,5.2909,5.3217,5.3356,5.4222,5.5049,5.5708,5.5708,5.5708,5.5708,5.5708,5.5708,5.5708,5.5708,5.5708,5.5708,5.5708,5.5708,5.5708,5.5708,5.5708,5.5708,5.5708,5.5703,5.5571,5.5173,5.5081,5.4785,5.3932,5.3805,5.3653,5.3251,5.3196,5.3196,5.3196,5.3196,5.3196,5.3196,5.3196,5.3196,5.3196,5.3196,5.3196,5.3196,5.3196,5.281,5.2024,5.2766,5.2388,5.0802,5.1601,5.1317,5.0109,5.0509,5.0475,4.6654,4.7663,4.814,4.7617,4.7022,4.6437,4.5923,4.5707,4.5594,4.5594,4.5594,4.5594,4.5594,4.5594,4.5594,4.5594,4.5594,4.5782,0.0,0.0,0.0,5.2447,5.6107,5.8704,0.0,0.0,0.0,0.0,0.0,0.0,0.0,6.0089,5.9781,5.9511,6.0089,5.9588,5.7896,5.8165,5.7434,5.5708,5.5978,5.5978,5.5708,5.5708,0.0,0.0,0.0,0.0,0.0,5.4607,5.3645,5.2274,5.2,5.1563,5.1087,5.1087,5.1433,5.1942,5.2217,5.3082,5.4126,5.4414,5.503,5.5708,5.5708,5.5708,5.5708,5.5708,5.5708,5.5708,5.5708,5.5708,5.5708,5.5708,5.5708,5.5708,5.5708,5.5708,5.5708,5.5708,5.5708,5.5657,5.5524,5.5288,5.5204,5.5526,5.4843,5.4324,5.4491,5.3967,5.3495,5.3238,5.3196,5.3196,5.3196,5.3196,5.3196,5.3196,5.3196,5.3196,5.3196,5.3196,5.3086,5.2839,5.3067,5.2692,5.162,5.1877,5.149,5.0516,5.0356,5.0067,4.4792,4.5718,4.6223,4.6338,4.6095,4.5756,4.5571,4.5564,4.5594,4.5594,4.5594,4.5594,4.5594,4.5594,4.5594,4.5594,4.5594,4.5706,4.6033,0.0,0.0,5.2332,0.0,0.0,0.0,0.0,0.0,0.0,0.0,0.0,0.0,5.9627,5.9358,5.9069,5.9569,5.9031,5.7338,5.7646,5.7107,5.5708,5.5708,5.5708,5.5708,5.5708,0.0,0.0,0.0,0.0,0.0,5.3799,5.287,5.1865,5.1563,5.1144,5.0745,5.1034,5.1467,5.1942,5.2274,5.3313,5.4491,5.4491,5.503,5.5708,5.5708,5.5708,5.5708,5.5708,5.5708,5.5708,5.5708,5.5708,5.5708,5.5708,5.5708,5.5708,5.5708,5.5708,5.5708,5.5708,5.5708,5.5708,5.5708,5.5763,5.5957,5.6349,5.5727,5.5361,5.5773,5.4642,5.3841,5.3917,5.3497,5.3196,5.3196,5.3196,5.3196,5.3196,5.3196,5.3196,5.3196,5.3196,5.3196,5.3196,5.3196,5.2957,5.2454,5.2117,5.1762,5.1398,5.0364,4.974,0.0,4.3429,4.4729,4.5063,4.5455,4.564,4.5201,4.5352,0.0,4.5594,4.5594,4.5594,4.5594,4.5594,4.5594,4.5594,4.5594,4.5898,0.0,4.7851,0.0,0.0,5.5184,0.0,0.0,0.0,0.0,0.0,0.0,0.0,0.0,5.9011,5.905,5.8223,5.828,5.753,5.5901,5.6689,5.6651,5.5785,5.5728,5.5708,5.5708,5.5708,0.0,0.0,0.0,0.0,0.0,5.2563,5.1865,5.1736,5.0996,5.0707,5.0784,5.1543,5.1846,5.2019,5.2832,5.3722,5.4511,5.4568,5.5093,5.5708,5.5708,5.5708,5.5708,5.5708,5.5708,5.5708,5.5708,5.5708,5.5708,5.5708,5.5708,5.5708,5.5708,5.5708,5.5728,5.5785,5.5747,5.5728,5.5785,5.6459,5.6888,5.6587,5.6541,5.6659,5.7005,5.5255,5.427,5.4969,5.3997,5.3293,5.3293,5.3238,5.3196,5.3196,5.3196,5.3196,5.3196,5.3196,5.3196,5.3196,5.3196,5.317,5.3157,5.2302,5.2086,5.2424,5.0435,4.952,4.194,0.0,4.4261,4.4646,4.4997,4.523,0.0,4.5352,4.5594,4.5594,4.5594,4.5594,4.5594,4.5594,4.5594,4.5594,4.5594,4.5898,4.6774,5.0414,0.0,5.4664,5.7824,0.0,0.0,0.0,0.0,0.0,0.0,0.0,0.0,5.8486,5.8184,5.7324,5.7953,5.8107,5.7684,5.7896,5.755,5.6689,5.6016,5.5708,5.5708,5.5708,0.0,0.0,0.0,0.0,5.2486,5.2077,5.1543,5.0957,5.0765,5.0707,5.0726,5.0919,5.1375,5.1923,5.2135,5.3217,5.4607,5.5228,5.5555,5.5708,5.5708,5.5708,5.5708,5.5708,5.5708,5.5708,5.5708,5.5708,5.5708,5.5708,5.5708,5.5708,5.5708,5.5708,5.5901,5.6574,5.6151,5.592,5.6574,5.6863,5.7187,5.7766,5.785,5.7755,5.7485,5.6487,5.5485,5.4718,5.4369,5.4189,5.4189,5.3583,5.3196,5.3196,5.3196,5.3196,5.3196,5.3196,5.3196,5.3196,5.3196,5.3015,5.2669,5.2155,5.1643,5.1123,5.0004,4.9664,4.2651,4.3297,4.3859,4.4644,4.4979,4.5134,4.5283,4.5476,4.5594,4.5594,4.5594,4.5594,4.5594,4.5594,4.5594,4.5594,4.5936,0.0,0.0,0.0,5.3895,5.5516,5.769,0.0,0.0,0.0,0.0,0.0,0.0,0.0,0.0,5.7915,5.7844,5.8132,5.7857,5.7511,5.7107,5.7492,5.7267,5.6401,5.5939,5.5708,5.5689,5.5324,5.4914,0.0,0.0,0.0,5.1865,5.1505,5.1087,5.0707,5.0707,5.0707,5.0707,5.0707,5.1202,5.1962,5.237,5.3376,5.4626,5.5439,5.5458,5.5228,5.5593,5.5708,5.5708,5.5708,5.5708,5.5708,5.5708,5.5708,5.5708,5.5708,5.5708,5.5708,5.5708,5.5708,5.5843,5.6305,5.6016,5.5843,5.6324,5.6728,5.7305,5.8165,5.8294,5.8333,5.8457,5.7269,5.6139,5.5449,5.4855,5.4503,5.4503,5.4068,5.3805,5.3805,5.342,5.3274,5.3464,5.3295,5.3303,5.3474,5.3291,5.3167,5.3088,5.2121,5.1402,5.0961,5.0343,5.0072,4.3646,4.3814,4.3894,4.4917,4.518,4.5248,4.5546,4.5594,4.5594,4.5594,4.5594,4.5594,4.5594,4.5594,4.5594,4.5594,0.0,0.0,5.0067,5.1702,5.3486,5.5645,0.0,0.0,0.0,0.0,0.0,0.0,0.0,0.0,0.0,5.7324,5.7594,5.8877,5.7671,5.6574,5.5708,5.6555,5.6632,5.5901,5.5766,5.5651,5.5497,5.4799,5.4357,0.0,0.0,0.0,5.1659,5.0976,5.0707,5.0707,5.0707,5.0707,5.0707,5.0707,5.1125,5.1851,5.2851,5.3857,5.478,5.5343,5.5151,5.478,5.5343,5.5593,5.5708,5.5708,5.5708,5.5708,5.5708,5.5708,5.5708,5.5708,5.5708,5.5708,5.5708,5.5708,5.5747,5.5862,5.5785,5.5747,5.5882,5.6516,5.7305,5.8165,5.8294,5.855,5.9223,5.7659,5.6447,5.6313,5.532,5.4678,5.4678,5.4636,5.4628,5.4671,5.3879,5.3545,5.3878,5.3584,5.3554,5.3887,5.3437,5.3331,5.36,5.2183,5.1402,5.1199,5.1,5.0716,4.3991,4.4726,4.5284,4.547,4.5517,4.5546,4.5586,4.5594,4.5594,4.5594,4.5594,4.5594,4.5594,4.5594,4.5594,4.5594,0.0,5.0356,0.0,0.0,5.6362,0.0,0.0,0.0,0.0,0.0,0.0,0.0,0.0,0.0,0.0,5.667,5.6786,5.6305,5.6747,5.6574,5.5708,5.6555,5.6926,5.6786,5.6055,5.5343,5.4684,5.4549,5.3683,0.0,0.0,5.1505,5.0861,5.0745,5.0707,5.0707,5.0707,5.0707,5.0707,5.0707,5.0784,5.1111,5.2664,5.4222,5.542,5.4876,5.5049,5.542,5.4857,5.517,5.5708,5.5708,5.5708,5.5708,5.5708,5.5708,5.5708,5.5708,5.5708,5.5708,5.5708,5.5708,5.592,5.6651,5.6209,5.5939,5.667,5.6907,5.7305,5.8165,5.8294,5.8333,5.8467,5.7555,5.6629,5.5893,5.5637,5.5512,5.5512,5.5199,5.5153,5.5495,5.4753,5.4332,5.4379,5.434,5.4332,5.4387,5.3618,5.3066,5.2774,5.2527,5.1843,5.0815,5.1488,5.1767,4.4763,4.5282,4.5594,4.5594,4.5594,4.5594,4.5594,4.5594,4.5594,4.5594,4.5594,4.5594,4.5594,4.634,4.7394,4.8779,0.0,5.2125,5.4087,5.5093,0.0,0.0,0.0,0.0,0.0,0.0,0.0,0.0,0.0,0.0,0.0,0.0,5.6555,5.7088,5.6574,5.6324,5.6401,5.6324,5.6305,5.6285,5.5882,5.5285,5.4472,5.401,5.3101,5.1885,0.0,5.1034,5.0707,5.0707,5.0707,5.0707,5.0707,5.0707,5.0707,5.0707,5.1265,5.2087,5.239,5.3626,5.4991,5.4626,5.4741,5.5049,5.5131,5.542,5.5708,5.5708,5.5708,5.5708,5.5708,5.5708,5.5708,5.5708,5.5708,5.5708,5.5708,5.5708,5.5824,5.6228,5.5978,5.5824,5.6228,5.6305,5.6593,5.7478,5.7594,5.7594,5.7594,5.7247,5.667,5.5785,5.5708,5.5708,5.5708,5.5524,5.5319,5.5061,5.4916,5.4742,5.4511,5.472,5.4819,5.4819,5.3757,5.3339,5.3629,5.2679,5.1948,5.142,5.2262,5.2416,4.5359,4.5594,4.5594,4.5594,4.5594,4.5594,4.5594,4.5594,4.5594,4.5594,4.5594,4.5594,4.5594,4.6971,0.0,5.1236,5.2678,5.3722,0.0,0.0,0.0,0.0,0.0,0.0,0.0,0.0,0.0,0.0,0.0,0.0,0.0,0.0,5.6299,5.7646,5.6395,5.6016,5.6689,5.6035,5.5708,5.5708,5.5708,5.5164,5.4164,5.351,5.262,5.1582,5.0976,5.0707,5.0707,5.0707,5.0707,5.0707,5.0707,5.0707,5.0707,5.0707,5.1625,5.2794,5.2135,5.3044,5.4472,5.426,5.4453,5.4818,5.5049,5.5401,5.567,5.5478,5.542,5.5458,5.5651,5.5708,5.5708,5.5708,5.5708,5.5708,5.5708,5.5708,5.5708,5.5708,5.5708,5.5708,5.5708,5.5708,5.5997,5.6863,5.6824,5.6766,5.6964,5.6824,5.6439,5.5766,5.5708,5.5708,5.5708,5.5708,5.5435,5.4812,5.5061,5.5095,5.479,5.5068,5.5231,5.5231,5.4103,5.3837,5.4491,5.3053,5.2309,5.2288,5.3018,5.2955,4.5359,4.5594,4.5594,4.5594,4.5594,4.5594,4.5594,4.5594,4.5594,4.5594,4.5594,4.5594,4.5594,4.6971,4.8682,5.0495,5.2823,5.5222,0.0,0.0,0.0,0.0,0.0,0.0,0.0,0.0,0.0,0.0,0.0,0.0,0.0,0.0,0.0,5.5882,5.5766,5.5728,5.5785,5.5728,5.5708,5.5708,5.5708,5.4857,5.3294,5.3236,5.2318,5.0784,5.0726,5.0707,5.0707,5.0707,5.0707,5.0707,5.0707,5.0707,5.0707,5.0707,5.1241,5.1981,5.1923,5.3044,5.4376,5.3568,5.4357,5.5318,5.3837,5.4472,5.5535,5.4799,5.4587,5.4761,5.5516,5.5708,5.5708,5.5708,5.5708,5.5708,5.5708,5.5708,5.5708,5.5708,5.5708,5.5708,5.5708,5.5708,5.5997,5.6863,5.6305,5.6093,5.6907,5.6285,5.5766,5.5708,5.5708,5.5708,5.5708,5.5708,5.5687,5.5629,5.5646,5.5646,5.5605,5.5646,5.5657,5.5657,5.4827,5.4434,5.4491,5.3935,5.3477,5.3124,5.3563,5.3531,4.5518,4.5594,4.5594,4.5594,4.5594,4.5594,4.5594,4.6013,4.624,4.5706,4.6436,4.7317,4.786,0.0,5.0851,5.2068,5.44,0.0,0.0,0.0,0.0,0.0,0.0,0.0,0.0,0.0,0.0,0.0,0.0,0.0,0.0,0.0,0.0,5.5708,5.5708,5.5708,5.5708,5.5708,5.5708,5.5689,5.5189,5.4337,5.3178,5.264,5.1779,5.0707,5.0707,5.0707,5.0707,5.0707,5.0707,5.0707,5.0707,5.0707,5.0707,5.0707,5.1202,5.1832,5.1337,5.2626,5.426,5.2851,5.3895,5.5497,5.4357,5.4799,5.5651,5.5324,5.4895,5.4684,5.5497,5.5324,5.5068,5.5574,5.5708,5.5708,5.5708,5.5708,5.5708,5.5708,5.5708,5.5708,5.5708,5.5708,5.5805,5.6132,5.592,5.5824,5.6151,5.5901,5.5708,5.5708,5.5708,5.5708,5.5708,5.5708,5.5708,5.5708,5.5708,5.5708,5.5708,5.5708,5.5708,5.5708,5.4914,5.4741,5.5241,5.4274,5.3874,5.4008,5.3873,5.3585,4.5594,4.5594,4.5594,4.5594,4.5594,4.5594,4.5594,4.6278,4.6735,4.6124,4.6913,4.7985,4.8836,5.0375,0.0,0.0,0.0,0.0,0.0,0.0,0.0,0.0,0.0,0.0,0.0,0.0,0.0,0.0,0.0,0.0,0.0,0.0,0.0,0.0,5.5708,5.5708,5.5708,5.5458,5.5324,5.5304,5.4203,5.351,5.3159,5.2294,5.1467,5.0707,5.0707,5.0707,5.0707,5.0707,5.0707,5.0707,5.0707,5.0707,5.0707,5.0707,5.1053,5.1428,5.0899,5.2015,5.353,5.2601,5.3486,5.4799,5.426,5.4664,5.5266,5.4991,5.4703,5.4684,5.5497,5.5107,5.4703,5.5516,5.5708,5.5708,5.5708,5.5708,5.5708,5.5708,5.5708,5.5708,5.5708,5.5708,5.5708,5.5708,5.5708,5.5708,5.5708,5.5708,5.5708,5.5708,5.5708,5.5708,5.5708,5.5708,5.5708,5.5708,5.5708,5.5708,5.5708,5.5708,5.5708,5.5708,5.5039,5.4969,5.5506,5.4364,5.397,5.4263,5.3823,5.3464,4.5594,4.5594,4.5594,4.5594,4.5594,4.5594,4.5594,4.6278,4.6908,4.6928,4.6928,4.7178,4.7966,4.9529,0.0,0.0,0.0,0.0,0.0,0.0,0.0,0.0,0.0,0.0,0.0,0.0,0.0,0.0,0.0,0.0,0.0,0.0,0.0,0.0,5.5689,5.5689,5.5689,5.4895,5.4491,5.4472,5.2736,5.2351,5.3159,5.2294,5.1447,5.0707,5.0707,5.0707,5.0707,5.0707,5.0707,5.0707,5.0707,5.0707,5.0707,5.0707,5.0707,5.0707,5.0707,5.1221,5.2038,5.289,5.3197,5.3197,5.3197,5.3818,5.4318,5.3472,5.3837,5.4664,5.5478,5.5088,5.4684,5.5516,5.5708,5.5708,5.5708,5.5708,5.5708,5.5708,5.5708,5.5708,5.5708,5.5708,5.5708,5.5708,5.5708,5.5708,5.5708,5.5708,5.5708,5.5708,5.5708,5.5708,5.5708,5.5708,5.5708,5.5708,5.5708,5.5708,5.5708,5.5703,5.5684,5.5684,5.53,5.5088,5.5081,5.4209,5.3805,5.3796,5.34,5.3196,4.5594,4.5594,4.5594,4.5594,4.5594,4.5594,4.5594,4.6278,4.7235,4.8413,4.8663,4.8721,4.8971,5.0894,0.0,0.0,0.0,0.0,0.0,0.0,0.0,0.0,0.0,0.0,0.0,0.0,0.0,0.0,0.0,0.0,0.0,0.0,0.0,0.0,5.4857,5.4857,5.4857,5.401,5.3587,5.3568,5.2447,5.2038,5.2255,5.1433,5.0938,5.0707,5.0707,5.0707,5.0707,5.0707,5.0707,5.0707,5.0707,5.0707,5.0707,5.0707,5.0707,5.0707,5.0707,5.1221,5.1851,5.1529,5.2241,5.3197,5.3197,5.3818,5.4549,5.4876,5.4299,5.378,5.4626,5.4222,5.3933,5.5357,5.5708,5.5708,5.5708,5.5708,5.5708,5.5708,5.5708,5.5708,5.5708,5.5708,5.5708,5.5708,5.5708,5.5708,5.5708,5.5708,5.5708,5.5708,5.5708,5.5708,5.5708,5.5708,5.5708,5.5708,5.5708,5.5708,5.5708,5.5423,5.5282,5.5282,5.4869,5.4689,5.4689,5.4092,5.3805,5.3796,5.34,5.3196,4.5594,4.5594,4.5594,4.5594,4.5594,4.5594,4.5594,4.6528,4.7851,4.9572,4.9649,4.9514,4.9861,5.1164,0.0,0.0,0.0,0.0,0.0,0.0,0.0,0.0,0.0,0.0,0.0,0.0,0.0,0.0,0.0,0.0,0.0,0.0,0.0,0.0,5.3972,5.3972,5.3972,5.3121,5.2678,5.2678,5.1832,5.1414,5.1414,5.0919,5.0707,5.0707,5.0707,5.0707,5.0707,5.0707,5.0707,5.0707,5.0707,5.0707,5.0707,5.0707,5.0707,5.0707,5.0707,5.1015,5.1395,5.1221,5.1856,5.2678,5.2678,5.3294,5.4087,5.4568,5.3972,5.339,5.426,5.4107,5.3972,5.4972,5.5478,5.5708,5.5708,5.5708,5.5708,5.5708,5.5708,5.5708,5.5708,5.5708,5.5708,5.5708,5.5708,5.5708,5.5708,5.5708,5.5708,5.5708,5.5708,5.5708,5.5708,5.5708,5.5708,5.5708,5.5708,5.5708,5.5708,5.5313,5.5088,5.5088,5.4513,5.4221,5.4221,5.3768,5.3556,5.3564,5.3316,5.3196,4.5594,4.5594,4.5594,4.5594,4.5594,4.5614,4.5706,4.6951,4.8548,5.0149,0.0,4.9764,5.0553,5.0765,0.0,0.0,0.0,0.0,0.0,0.0,0.0,0.0,0.0,0.0,0.0,0.0,0.0,0.0,0.0,0.0,0.0,0.0,0.0,5.3101,5.3082,5.3082,5.3082,5.2217,5.1755,0.0,5.101,5.0611,5.0476,5.063,5.0707,5.0707,5.0707,5.0707,5.0707,5.0707,5.0707,5.0707,5.0707,5.0707,5.0707,5.0707,5.0707,5.0707,5.0707,5.0707,5.0822,5.164,5.1846,5.1813,5.1962,5.2563,5.3217,5.3294,5.3255,5.339,5.426,5.4434,5.4395,5.4472,5.5107,5.5708,5.5708,5.5708,5.5708,5.5708,5.5708,5.5708,5.5708,5.5708,5.5708,5.5708,5.5708,5.5708,5.5708,5.5708,5.5708,5.5708,5.5708,5.5708,5.5708,5.5708,5.5708,5.5708,5.5708,5.5708,5.5708,5.5282,5.5041,5.5041,5.4194,5.3758,5.373,5.339,5.3196,5.3196,5.3196,5.3196,4.5594,4.5594,4.5594,4.5594,4.5594,4.5782,4.6471,4.7389,4.8216,4.8586,4.961,5.0476,5.0668,0.0,0.0,0.0,0.0,0.0,0.0,0.0,0.0,0.0,0.0,0.0,0.0,0.0,0.0,0.0,0.0,0.0,0.0,0.0,0.0,5.2217,5.2178,5.2178,5.2178,5.1375,5.0606,0.0,5.0457,4.9976,4.8702,5.0072,5.0707,5.0707,5.0707,5.0707,5.0707,5.0707,5.0707,5.0707,5.0707,5.0707,5.0707,5.0707,5.0707,5.0707,5.0707,5.0707,5.0822,5.164,5.1467,5.1202,5.2524,5.3044,5.3332,5.403,5.3722,5.339,5.426,5.3991,5.3645,5.4337,5.5107,5.5708,5.5708,5.5708,5.5708,5.5708,5.5708,5.5708,5.5708,5.5708,5.5708,5.5708,5.5708,5.5708,5.5708,5.5708,5.5708,5.5708,5.5708,5.5708,5.5708,5.5708,5.5708,5.5708,5.5708,5.5708,5.5708,5.5007,5.4625,5.4625,5.3767,5.3336,5.3336,5.323,5.3196,5.3196,5.3196,5.3196,4.5594,4.5594,4.5594,4.5594,4.5594,4.5725,4.6163,4.7221,4.8101,4.8101,4.949,5.0707,5.0707,0.0,0.0,0.0,0.0,0.0,0.0,0.0,0.0,0.0,0.0,0.0,0.0,0.0,0.0,0.0,0.0,0.0,0.0,5.2794,5.2005,5.0736,5.0697,5.0505,5.0082,4.9663,4.9221,4.8779,4.924,4.8971,4.812,4.9048,4.9452,4.9471,4.9899,5.0072,5.0111,5.0534,5.0457,5.0072,5.0072,5.0072,5.0072,5.0072,5.0341,5.0707,5.0707,5.0707,5.0765,5.1183,5.1298,5.1375,5.1856,5.2279,5.2755,5.3626,5.2972,5.2279,5.3549,5.3236,5.2794,5.3664,5.4799,5.5708,5.5708,5.5708,5.5708,5.5708,5.5708,5.5708,5.5708,5.5708,5.5708,5.5708,5.5708,5.5708,5.5708,5.5708,5.5708,5.5708,5.5708,5.5708,5.5708,5.5708,5.5708,5.5708,5.5708,5.5708,5.5708,5.5101,5.4712,5.4511,5.3642,5.3196,5.3196,5.3196,5.3196,5.3196,5.3196,5.3196,4.5594,4.5594,4.5594,4.5594,4.5594,4.5594,4.5594,4.6797,4.7889,4.7889,4.9394,5.0707,0.0,0.0,0.0,0.0,0.0,0.0,0.0,0.0,0.0,0.0,0.0,0.0,0.0,0.0,0.0,0.0,0.0,0.0,5.2779,5.1947,5.0755,4.9221,4.9183,4.8836,4.8101,4.8101,4.8024,4.7889,4.774,4.7759,4.7889,4.774,4.7836,4.8139,4.9029,4.9394,4.9471,5.0341,5.0284,4.963,4.963,4.963,4.963,4.963,5.0072,5.0707,5.0707,5.0707,5.0726,5.0861,5.126,5.1582,5.1068,5.1375,5.2038,5.2774,5.1972,5.1265,5.2799,5.2544,5.212,5.2986,5.426,5.5343,5.5651,5.5708,5.5708,5.5708,5.5708,5.5708,5.5708,5.5708,5.5708,5.5708,5.5708,5.5708,5.5708,5.5708,5.5708,5.5708,5.5708,5.5708,5.5708,5.5708,5.5708,5.5708,5.5708,5.5708,5.5708,5.5313,5.4916,5.4511,5.371,5.3272,5.3196,5.3196,5.3196,5.3196,5.3196,5.3196,4.5594,4.5594,4.5594,4.5594,4.5594,4.5594,4.5594,4.6355,4.7062,0.0,4.899,0.0,0.0,0.0,0.0,0.0,0.0,0.0,0.0,0.0,0.0,0.0,0.0,0.0,0.0,0.0,0.0,0.0,0.0,0.0,5.1072,5.0202,4.9298,4.8293,4.8274,4.8216,4.8101,4.8101,4.7755,4.7043,4.6297,4.6336,4.7024,4.6283,4.6725,4.8139,4.9029,4.9394,4.9471,5.0341,5.063,5.0534,5.0534,5.0534,5.0534,5.0534,5.0592,5.0707,5.0707,5.0707,5.0803,5.1505,5.1337,5.0976,5.1563,5.1813,5.1923,5.2038,5.1909,5.1967,5.2947,5.2544,5.212,5.2986,5.3371,5.3933,5.5401,5.5708,5.5708,5.5708,5.5708,5.5708,5.5708,5.5708,5.5708,5.5708,5.5708,5.5708,5.5708,5.5708,5.5708,5.5708,5.5708,5.5708,5.5708,5.5708,5.5708,5.5708,5.5708,5.5708,5.5708,5.5313,5.4916,5.4511,5.3996,5.3554,5.3196,5.3196,5.3196,5.3196,5.3196,5.3196,4.5594,4.5594,4.5594,4.5594,4.5594,4.5594,4.5594,4.6278,4.6908,4.6908,0.0,0.0,0.0,0.0,0.0,0.0,0.0,0.0,0.0,0.0,0.0,0.0,0.0,0.0,0.0,0.0,0.0,0.0,0.0,5.0567,5.0688,4.9413,4.8298,4.7447,4.7428,4.7201,4.6706,4.6706,4.6509,4.6163,4.5782,4.5802,4.6163,4.5763,4.5994,4.6744,4.7625,4.8009,4.8067,4.8894,4.924,4.9202,4.874,4.9144,4.9918,4.9413,4.9861,5.0707,5.0707,5.0707,5.0765,5.1106,5.0996,5.0765,5.1125,5.1221,5.1318,5.1774,5.1582,5.1414,5.2255,5.1851,5.1433,5.2274,5.2467,5.2813,5.403,5.4299,5.4434,5.4934,5.5401,5.5708,5.5708,5.5708,5.5708,5.5708,5.5708,5.5708,5.5708,5.5708,5.5708,5.5708,5.5708,5.5708,5.5708,5.5708,5.5708,5.5708,5.5708,5.5708,5.5708,5.5524,5.5256,5.4833,5.4151,5.3604,5.3196,5.3196,5.3196,5.3196,5.3196,5.3196,4.5594,4.5594,4.5594,4.5594,4.5594,4.5594,4.5594,0.0,4.6567,0.0,0.0,0.0,0.0,0.0,0.0,0.0,0.0,0.0,0.0,0.0,0.0,0.0,0.0,0.0,0.0,0.0,0.0,0.0,0.0,4.926,4.9707,4.8509,4.7428,4.6605,4.6567,4.6259,4.5614,4.5594,4.5594,4.5594,4.5594,4.5594,4.5594,4.5594,4.5594,4.5648,4.6528,4.6908,4.6966,4.7774,4.8235,4.8375,4.7774,4.8298,4.9356,4.8913,4.9298,5.0091,5.0553,5.0553,5.0418,5.063,5.0707,5.0707,5.0707,5.0707,5.0822,5.1433,5.1164,5.0842,5.1428,5.1144,5.0842,5.1447,5.1601,5.1947,5.326,5.3351,5.353,5.4607,5.5126,5.5458,5.567,5.5708,5.5708,5.5708,5.5708,5.5708,5.5708,5.5708,5.5708,5.5708,5.5708,5.5708,5.5708,5.5708,5.5708,5.5708,5.5708,5.5708,5.5708,5.5708,5.5506,5.5121,5.4454,5.3878,5.3349,5.3251,5.3196,5.3196,5.3196,5.3251,4.5594,4.5594,4.5594,4.5594,4.5594,4.5594,0.0,0.0,0.0,0.0,0.0,0.0,0.0,0.0,0.0,0.0,0.0,0.0,0.0,0.0,0.0,0.0,0.0,0.0,0.0,0.0,0.0,0.0,0.0,4.7851,4.7139,4.7005,4.6567,4.5706,4.5667,4.5648,4.5594,4.5594,4.5594,4.5594,4.5594,4.5594,4.5594,4.5594,4.5594,4.5648,4.6528,4.6908,4.6966,4.7774,4.8586,4.9336,4.9279,4.9317,4.949,5.0284,4.9591,4.8471,5.013,5.0168,4.961,5.0438,5.0707,5.0707,5.0707,5.0707,5.0707,5.0745,5.0726,5.0707,5.0745,5.0726,5.0707,5.0745,5.0765,5.1438,5.3895,5.378,5.3683,5.5318,5.5054,5.4799,5.5574,5.5708,5.5708,5.5708,5.5708,5.5708,5.5708,5.5708,5.5708,5.5708,5.5708,5.5708,5.5708,5.5708,5.5708,5.5708,5.5708,5.5708,5.5708,5.5708,5.5506,5.5121,5.5055,5.4621,5.3768,5.34,5.3196,5.3196,5.3196,5.3402,4.5594,4.5594,4.5594,4.5594,4.5594,4.5594,4.5594,4.5594,4.5594,0.0,0.0,0.0,0.0,0.0,0.0,0.0,0.0,0.0,0.0,0.0,0.0,0.0,0.0,0.0,0.0,0.0,0.0,0.0,0.0,0.0,4.6928,4.6374,4.5917,4.5614,4.5594,4.5594,4.5594,4.5594,4.5594,4.5594,4.5594,4.5594,4.5594,4.5594,4.5594,4.5614,4.5936,4.6071,4.609,4.6379,4.7009,4.774,4.7187,4.7629,4.8548,4.8336,4.8548,4.9029,4.9649,5.0034,5.0284,5.0592,5.0707,5.0707,5.0707,5.0707,5.0707,5.0707,5.0707,5.0707,5.0707,5.0707,5.0707,5.0707,5.0707,5.1092,5.2524,5.3024,5.3371,5.3972,5.4722,5.5362,5.5651,5.5708,5.5708,5.5708,5.5708,5.5708,5.5708,5.5708,5.5708,5.5708,5.5708,5.5708,5.5708,5.5708,5.5708,5.5708,5.5708,5.5708,5.5708,5.5708,5.564,5.5489,5.5224,5.4819,5.4246,5.3805,5.3739,5.4033,5.372,5.3823,4.5594,4.5594,4.5594,4.5594,4.5594,4.5594,4.5594,0.0,4.5594,0.0,0.0,0.0,0.0,0.0,0.0,0.0,0.0,0.0,0.0,0.0,0.0,0.0,0.0,0.0,0.0,0.0,0.0,0.0,0.0,0.0,4.6471,4.5917,4.5594,4.5594,4.5594,4.5594,4.5594,4.5594,4.5594,4.5594,4.5594,4.5594,4.5594,4.5594,4.5594,4.5594,4.5594,4.5594,4.5594,4.5594,4.6105,4.6831,4.6259,4.6721,4.7678,4.7408,4.7832,4.8606,4.8875,4.9529,5.0265,5.0265,5.0457,5.0707,5.0707,5.0707,5.0707,5.0707,5.0707,5.0707,5.0707,5.0707,5.0707,5.0707,5.0707,5.0842,5.1375,5.2159,5.2851,5.314,5.4337,5.5304,5.5304,5.5516,5.5708,5.5708,5.5708,5.5708,5.5708,5.5708,5.5708,5.5708,5.5708,5.5708,5.5708,5.5708,5.5708,5.5708,5.5708,5.5708,5.5708,5.5708,5.5708,5.5708,5.5435,5.5173,5.489,5.4311,5.4196,5.4495,5.4178,5.4261,0.0,0.0,0.0,4.5594,0.0,0.0,4.5594,0.0,4.5594,0.0,0.0,0.0,0.0,0.0,0.0,0.0,0.0,0.0,0.0,0.0,0.0,0.0,0.0,0.0,0.0,0.0,0.0,0.0,0.0,4.5594,4.5594,4.5594,4.5594,4.5594,4.5594,4.5594,4.5594,4.5594,4.5594,4.5594,4.5594,4.5594,4.5594,4.5594,4.5594,4.5594,4.5594,4.5594,4.5594,4.5594,4.6109,4.6851,4.6851,4.6851,4.6966,4.7735,4.7543,4.7024,4.7812,4.8663,4.9394,4.9433,5.0014,5.0707,5.0707,5.0707,5.0707,5.0707,5.0707,5.0707,5.0707,5.0707,5.0707,5.0707,5.0707,5.0707,5.0707,5.1337,5.2159,5.3005,5.3876,5.4453,5.4453,5.5131,5.567,5.567,5.5689,5.5708,5.5708,5.5708,5.5708,5.5708,5.5708,5.5708,5.5708,5.5708,5.5708,5.5708,5.5708,5.5708,5.5708,5.5708,5.5708,5.5708,5.5708,5.5708,5.5703,5.489,5.4508,5.4543,5.4543,5.4738,4.5594,0.0,0.0,0.0,0.0,0.0,0.0,0.0,0.0,0.0,0.0,0.0,0.0,0.0,0.0,0.0,0.0,0.0,0.0,0.0,0.0,0.0,0.0,0.0,0.0,0.0,0.0,0.0,4.5594,4.5594,4.5594,4.5594,4.5594,4.5594,4.5594,4.5594,4.5594,4.5594,4.5594,4.5594,4.5594,4.5594,4.5594,4.5594,4.5594,4.5594,4.5594,4.5594,4.5594,4.5594,4.5744,4.5956,4.5956,4.5956,4.5994,4.6206,4.6547,4.7024,4.7812,4.8663,4.949,5.0149,5.0495,5.0707,5.0707,5.0707,5.0707,5.0707,5.0707,5.0707,5.0707,5.0707,5.0707,5.0707,5.0707,5.0707,5.0707,5.1337,5.1962,5.2217,5.2967,5.3568,5.3568,5.426,5.4818,5.4818,5.5324,5.5708,5.5708,5.5708,5.5708,5.5708,5.5708,5.5708,5.5708,5.5708,5.5708,5.5708,5.5708,5.5708,5.5708,5.5708,5.5708,5.5708,5.5708,5.5708,5.5708,5.5186,5.5075,5.5375,5.5375,5.5423,0.0,0.0,0.0,0.0,0.0,0.0,4.5594,4.5594,0.0,0.0,0.0,0.0,0.0,0.0,0.0,0.0,0.0,0.0,0.0,0.0,0.0,0.0,0.0,0.0,0.0,0.0,0.0,4.5594,4.5594,4.5594,4.5594,4.5594,4.5594,4.5594,4.5594,4.5594,4.5594,4.5594,4.5594,4.5594,4.5594,4.5594,4.5594,4.5594,4.5594,4.5594,4.5594,4.5594,4.5594,4.5594,4.5594,4.5594,4.5594,4.5594,4.5594,4.5594,4.6355,4.7428,4.7543,4.8625,4.9976,5.0111,5.0399,5.0707,5.0707,5.0707,5.0707,5.0707,5.0707,5.0707,5.0707,5.0707,5.0707,5.0707,5.0707,5.0707,5.0707,5.1068,5.1395,5.1395,5.237,5.3082,5.2717,5.3371,5.4087,5.4453,5.4895,5.5324,5.567,5.5708,5.5708,5.5708,5.5708,5.5708,5.5708,5.5708,5.5708,5.5708,5.5708,5.5708,5.5708,5.5708,5.5708,5.5708,5.5708,5.5708,5.5708,5.5452,5.5477,5.5708,5.5708,5.5708,0.0,0.0,0.0,0.0,0.0,0.0,4.5594,4.5594,4.5594,0.0,0.0,0.0,0.0,0.0,0.0,0.0,0.0,0.0,0.0,0.0,0.0,0.0,0.0,0.0,0.0,4.5594,4.5594,4.5594,4.5594,4.5594,4.5594,4.5594,4.5594,4.5594,4.5594,4.5594,4.5594,4.5594,4.5594,4.5594,4.5594,4.5594,4.5594,4.5594,4.5594,4.5594,4.5594,4.5594,4.5594,4.5594,4.5594,4.5594,4.5594,4.5594,4.5594,4.5594,4.661,4.787,4.7255,4.8586,5.0438,4.9764,5.0072,5.0707,5.0707,5.0707,5.0707,5.0707,5.0707,5.0707,5.0707,5.0707,5.0707,5.0707,5.0707,5.0707,5.0707,5.0707,5.0707,5.0707,5.1895,5.2678,5.1909,5.2563,5.3453,5.4241,5.4511,5.4895,5.5612,5.5708,5.5708,5.5708,5.5708,5.5708,5.5708,5.5708,5.5708,5.5708,5.5708,5.5708,5.5708,5.5708,5.5708,5.5708,5.5708,5.5708,5.5708,5.5708,5.5708,5.5708,5.5708,5.5708,0.0,0.0,0.0,0.0,0.0,0.0,4.5594,4.5594,4.5594,0.0,0.0,0.0,0.0,0.0,0.0,0.0,0.0,0.0,0.0,0.0,0.0,0.0,0.0,0.0,0.0,4.5594,4.5594,4.5594,4.5594,4.5594,4.5594,4.5594,4.5594,4.5594,4.5594,4.5594,4.5594,4.5594,4.5594,4.5594,4.5594,4.5594,4.5594,4.5594,4.5594,4.5594,4.5594,4.5594,4.5594,4.5594,4.5594,4.5594,4.5594,4.5594,4.5594,4.5594,4.624,4.7197,4.7697,4.8644,4.9745,5.0265,5.0553,5.0707,5.0707,5.0707,5.0707,5.0707,5.0707,5.0707,5.0707,5.0707,5.0707,5.0707,5.0707,5.0707,5.0707,5.0707,5.0707,5.0707,5.0957,5.113,5.0957,5.2183,5.3255,5.3433,5.4607,5.5516,5.5689,5.5708,5.5708,5.5708,5.5708,5.5708,5.5708,5.5708,5.5708,5.5708,5.5708,5.5708,5.5708,5.5708,5.5708,5.5708,5.5708,5.5708,5.5708,5.5708,5.5708,5.5708,5.5708,5.5708,0.0,0.0,0.0,4.5594,0.0,0.0,0.0,4.5594,4.5594,4.5594,0.0,0.0,0.0,0.0,0.0,0.0,0.0,0.0,0.0,0.0,0.0,0.0,0.0,0.0,0.0,4.5594,4.5594,4.5594,4.5594,4.5594,4.5594,4.5594,4.5594,4.5594,4.5594,4.5594,4.5594,4.5594,4.5594,4.5594,4.5594,4.5594,4.5594,4.5594,4.5594,4.5594,4.5594,4.5594,4.5594,4.5594,4.5594,4.5594,4.5594,4.5594,4.5594,4.5594,4.6417,4.7562,4.7966,4.8952,5.0053,5.0053,5.0341,5.0611,5.0188,5.0361,5.0707,5.0707,5.0707,5.0707,5.0707,5.0707,5.0707,5.0707,5.0707,5.0707,5.0707,5.0707,5.0707,5.0707,5.0707,5.0707,5.0707,5.1399,5.2087,5.2486,5.3645,5.4607,5.5049,5.5458,5.5708,5.5708,5.5708,5.5708,5.5708,5.5708,5.5708,5.5708,5.5708,5.5708,5.5708,5.5708,5.5708,5.5708,5.5708,5.5708,5.5708,5.5708,5.5708,5.5708,5.5708,5.5708,0.0,0.0,0.0,0.0,0.0,4.5594,0.0,0.0,0.0,4.5594,0.0,0.0,0.0,0.0,0.0,0.0,0.0,0.0,0.0,0.0,0.0,0.0,0.0,0.0,0.0,4.5594,4.5594,4.5594,4.5594,4.5594,4.5594,4.5594,4.5594,4.5594,4.5594,4.5594,4.5594,4.5594,4.5594,4.5594,4.5594,4.5594,4.5594,4.5594,4.5594,4.5594,4.5594,4.5594,4.5594,4.5594,4.5594,4.5594,4.5594,4.5594,4.5594,4.5594,4.6667,4.8101,4.8101,4.9125,5.0322,4.963,4.9764,5.0091,4.9548,4.9899,5.0476,5.0649,5.0707,5.0707,5.0707,5.0707,5.0707,5.0707,5.0707,5.0707,5.0707,5.0707,5.0707,5.0707,5.0707,5.0707,5.0707,5.0822,5.1144,5.1793,5.2774,5.3703,5.4414,5.5208,5.5708,5.5708,5.5708,5.5708,5.5708,5.5708,5.5708,5.5708,5.5708,5.5708,5.5708,5.5708,5.5708,5.5708,5.5708,5.5708,5.5708,5.5708,5.5708,5.5708,5.5708,5.5708,0.0,0.0,0.0,0.0,4.5594,0.0,0.0,0.0,4.5594,4.5594,0.0,0.0,0.0,0.0,0.0,0.0,0.0,0.0,0.0,0.0,0.0,0.0,0.0,0.0,0.0,0.0,4.5594,4.5594,4.5594,4.5594,4.5594,4.5594,4.5594,4.5594,4.5594,4.5594,4.5594,4.5594,4.5594,4.5594,4.5594,4.5594,4.5594,4.5594,4.5594,4.5594,4.5594,4.5594,4.5594,4.5594,4.5594,4.5594,4.5594,4.5594,4.5594,4.5594,4.6667,4.8101,4.8101,4.874,4.9529,4.9433,4.8933,4.8529,4.9202,4.9471,4.9707,5.0476,5.0707,5.0707,5.0707,5.0707,5.0707,5.0707,5.0707,5.0707,5.0707,5.0707,5.0707,5.0707,5.0707,5.0707,5.0707,5.1298,5.1793,5.1885,5.3294,5.4395,5.4491,5.5208,5.5708,5.5708,5.5708,5.5708,5.5708,5.5708,5.5708,5.5708,5.5708,5.5708,5.5708,5.5708,5.5708,5.5708,5.5708,5.5708,5.5708,5.5708,5.5708,5.5708,5.5708,5.5708,0.0,0.0,0.0,0.0,0.0,0.0,4.5594,0.0,4.5594,0.0,0.0,0.0,0.0,0.0,0.0,0.0,4.5063,0.0,0.0,0.0,0.0,0.0,0.0,0.0,0.0,0.0,0.0,0.0,0.0,4.5594,4.5594,4.5594,4.5594,4.5594,4.5594,4.5594,4.5594,4.5594,4.5594,4.5594,4.5594,4.5594,4.5594,4.5594,4.5594,4.5594,4.5594,4.5594,4.5594,4.5594,4.5594,4.5594,4.5594,4.5594,4.5594,4.5594,4.6379,4.7408,4.7408,4.7947,4.8644,4.8644,4.8082,4.7658,4.899,4.9394,4.9591,5.0457,5.0707,5.0707,5.0707,5.0707,5.0707,5.0707,5.0707,5.0707,5.0707,5.0707,5.0707,5.0707,5.1087,5.1241,5.0784,5.1375,5.1904,5.1904,5.3371,5.4491,5.4491,5.5208,5.5708,5.5708,5.5708,5.5708,5.5708,5.5708,5.5708,5.5708,5.5708,5.5708,5.5708,5.5708,5.5708,5.5708,5.5708,5.5708,5.5708,5.5708,5.5708,5.5708,5.5708,5.5708,4.5594,0.0,0.0,0.0,0.0,0.0,0.0,0.0,0.0,0.0,0.0,0.0,0.0,0.0,0.0,0.0,0.0,0.0,0.0,0.0,0.0,0.0,0.0,0.0,0.0,0.0,0.0,4.5452,4.5555,4.5594,4.5594,4.5594,4.5594,4.5594,4.5594,4.5594,4.5594,4.5594,4.5594,4.5594,4.5594,4.5594,4.5594,4.5594,4.5594,4.5594,4.5594,4.5594,4.5594,4.5594,4.5594,4.5594,4.5594,4.5594,4.5594,4.5594,4.6144,4.6908,4.6908,4.7274,4.7735,4.749,4.7178,4.7178,4.8606,4.9202,4.9591,5.0457,5.0707,5.0707,5.0707,5.0707,5.0707,5.0707,5.0707,5.0707,5.0707,5.0707,5.0707,5.0707,5.1164,5.1467,5.1087,5.1717,5.2178,5.1942,5.3371,5.4491,5.4491,5.5208,5.5708,5.5708,5.5708,5.5708,5.5708,5.5708,5.5708,5.5708,5.5708,5.5708,5.5708,5.5708,5.5708,5.5708,5.5708,5.5708,5.5708,5.5708,5.5708,5.5708,5.5708,5.5708,0.0,0.0,0.0,4.5594,0.0,0.0,0.0,0.0,4.5508,0.0,0.0,0.0,0.0,0.0,0.0,0.0,0.0,0.0,0.0,0.0,0.0,0.0,0.0,0.0,0.0,0.0,0.0,4.5113,4.5419,4.5594,4.5594,4.5594,4.5594,4.5594,4.5594,4.5594,4.5594,4.5594,4.5594,4.5594,4.5594,4.5594,4.5594,4.5594,4.5594,4.5594,4.5594,4.5594,4.5594,4.5594,4.5594,4.5594,4.5594,4.5594,4.5594,4.5594,4.6144,4.6908,4.6908,4.6928,4.6793,4.5956,4.622,4.7062,4.7889,4.874,4.9591,5.0457,5.0707,5.0707,5.0707,5.0707,5.0707,5.0707,5.0707,5.0707,5.0707,5.0707,5.0707,5.0707,5.0726,5.0976,5.1736,5.2582,5.287,5.2019,5.3371,5.4491,5.4491,5.5208,5.5708,5.5708,5.5708,5.5708,5.5708,5.5708,5.5708,5.5708,5.5708,5.5708,5.5708,5.5708,5.5708,5.5708,5.5708,5.5708,5.5708,5.5708,5.5708,5.5708,5.5708,5.5708,0.0,0.0,4.5594,4.5594,0.0,0.0,0.0,0.0,0.0,0.0,0.0,0.0,0.0,0.0,0.0,0.0,0.0,0.0,0.0,0.0,0.0,0.0,0.0,0.0,0.0,0.0,0.0,4.5096,4.5415,4.5594,0.0,4.5594,4.5594,4.5594,4.5594,4.5594,4.5594,4.5594,4.5594,4.5594,4.5594,4.5594,4.5594,4.5594,4.5594,4.5594,4.5594,4.5594,4.5594,4.5594,4.5594,4.5594,4.5594,4.5594,4.5594,4.5594,4.5782,4.6033,4.6033,4.6033,4.5994,4.5706,4.6182,4.7043,4.7851,4.8702,4.9591,5.0457,5.0707,5.0707,5.0707,5.0707,5.0707,5.0707,5.0707,5.0707,5.0707,5.0707,5.0707,5.0707,5.1611,5.226,5.1947,5.3544,5.4568,5.376,5.4587,5.5285,5.5285,5.5535,5.5708,5.5708,5.5708,5.5708,5.5708,5.5708,5.5708,5.5708,5.5708,5.5708,5.5708,5.5708,5.5708,5.5708,5.5708,5.5708,5.5708,5.5708,5.5708,5.5708,5.5708,5.5708,4.5594,4.5594,0.0,4.5594,4.5594,0.0,4.5594,0.0,0.0,0.0,0.0,0.0,0.0,0.0,0.0,0.0,0.0,0.0,0.0,4.3629,0.0,0.0,0.0,0.0,0.0,0.0,4.4966,4.5091,4.5415,4.5594,0.0,0.0,4.5594,4.5594,4.5594,4.5594,4.5594,4.5594,4.5594,4.5594,4.5594,4.5594,4.5594,4.5594,4.5594,4.5594,4.5594,4.5594,4.5594,4.5594,4.5594,4.5594,4.5594,4.5594,4.5594,4.5594,4.5594,4.5594,4.5594,4.5594,4.5648,4.5956,4.6644,4.7485,4.8317,4.9163,5.0034,5.0894,5.0919,5.0765,5.1048,5.0919,5.0707,5.0707,5.0707,5.0707,5.0707,5.0707,5.0707,5.0707,5.1798,5.2659,5.2409,5.3972,5.5112,5.4587,5.5189,5.5708,5.5708,5.5708,5.5708,5.5708,5.5708,5.5708,5.5708,5.5708,5.5708,5.5708,5.5708,5.5708,5.5708,5.5708,5.5997,5.6607,5.6016,5.6016,5.6626,5.5997,5.5708,5.5708,5.5708,5.5708]}]]